<?xml version="1.0" encoding="UTF-8" standalone="no" ?>
<gpx xmlns="http://www.topografix.com/GPX/1/1" xmlns:xsi="http://www.w3.org/2001/XMLSchema-instance" xsi:schemaLocation="http://www.topografix.com/GPX/1/1 http://www.topografix.com/GPX/1/1/gpx.xsd" version="1.1" creator="VisuGPX - https://www.visugpx.com">
  <metadata>
    <name>Sortie caniculaire ☀️</name>
    <desc><![CDATA[Alerte Canicule : Recette pour cyclistes (un peu) fadas !

Comment survivre à une sortie par 40°C ?

- Étape 1 : Embarquer un(e) partenaire aussi fou que soi.

- Étape 2 : Boire avant, pendant, après... et s\'arroser le reste du temps.

- Étape 3 : Fuir le dénivelé et viser le plat.

Le petit bonus du jour : Un vent de face salvateur et ultra-agréable sur le retour de Vocance !]]></desc>
  </metadata>
  <trk>
    <name><![CDATA[Sortie caniculaire ☀️]]></name>
    <trkseg>
      <trkpt lat="45.23929" lon="4.69139">
        <ele>412.801304</ele>
        <time>2026-06-23T10:20:48.454Z</time>
      </trkpt>
      <trkpt lat="45.23938" lon="4.69133">
        <ele>412.801304</ele>
        <time>2026-06-23T10:21:07.107Z</time>
      </trkpt>
      <trkpt lat="45.23949" lon="4.69129">
        <ele>412.801304</ele>
        <time>2026-06-23T10:21:25.232Z</time>
      </trkpt>
      <trkpt lat="45.23942" lon="4.69118">
        <ele>412.801304</ele>
        <time>2026-06-23T10:21:31.230Z</time>
      </trkpt>
      <trkpt lat="45.23934" lon="4.69109">
        <ele>412.801304</ele>
        <time>2026-06-23T10:21:34.153Z</time>
      </trkpt>
      <trkpt lat="45.23926" lon="4.69102">
        <ele>412.801304</ele>
        <time>2026-06-23T10:21:37.140Z</time>
      </trkpt>
      <trkpt lat="45.23918" lon="4.69094">
        <ele>412.801304</ele>
        <time>2026-06-23T10:21:42.147Z</time>
      </trkpt>
      <trkpt lat="45.23907" lon="4.6909">
        <ele>412.801304</ele>
        <time>2026-06-23T10:21:48.152Z</time>
      </trkpt>
      <trkpt lat="45.23908" lon="4.69074">
        <ele>412.801304</ele>
        <time>2026-06-23T10:21:52.165Z</time>
      </trkpt>
      <trkpt lat="45.23915" lon="4.69065">
        <ele>413.037669</ele>
        <time>2026-06-23T10:21:54.129Z</time>
      </trkpt>
      <trkpt lat="45.23924" lon="4.69057">
        <ele>413.942304</ele>
        <time>2026-06-23T10:21:56.119Z</time>
      </trkpt>
      <trkpt lat="45.2393" lon="4.69045">
        <ele>414.850157</ele>
        <time>2026-06-23T10:21:58.163Z</time>
      </trkpt>
      <trkpt lat="45.23934" lon="4.6903">
        <ele>415.856019</ele>
        <time>2026-06-23T10:22:00.147Z</time>
      </trkpt>
      <trkpt lat="45.23932" lon="4.69013">
        <ele>416.879226</ele>
        <time>2026-06-23T10:22:02.108Z</time>
      </trkpt>
      <trkpt lat="45.23927" lon="4.68999">
        <ele>417.885791</ele>
        <time>2026-06-23T10:22:04.129Z</time>
      </trkpt>
      <trkpt lat="45.2392" lon="4.68986">
        <ele>418.880315</ele>
        <time>2026-06-23T10:22:06.165Z</time>
      </trkpt>
      <trkpt lat="45.23917" lon="4.6897">
        <ele>419.927208</ele>
        <time>2026-06-23T10:22:08.157Z</time>
      </trkpt>
      <trkpt lat="45.2392" lon="4.68956">
        <ele>420.85749</ele>
        <time>2026-06-23T10:22:10.147Z</time>
      </trkpt>
      <trkpt lat="45.23924" lon="4.68943">
        <ele>421.753986</ele>
        <time>2026-06-23T10:22:12.157Z</time>
      </trkpt>
      <trkpt lat="45.23928" lon="4.68925">
        <ele>422.892969</ele>
        <time>2026-06-23T10:22:15.157Z</time>
      </trkpt>
      <trkpt lat="45.2393" lon="4.68909">
        <ele>423.887197</ele>
        <time>2026-06-23T10:22:19.157Z</time>
      </trkpt>
      <trkpt lat="45.23929" lon="4.68893">
        <ele>424.918789</ele>
        <time>2026-06-23T10:22:23.150Z</time>
      </trkpt>
      <trkpt lat="45.23929" lon="4.68878">
        <ele>425.830345</ele>
        <time>2026-06-23T10:22:27.154Z</time>
      </trkpt>
      <trkpt lat="45.23931" lon="4.68863">
        <ele>426.800363</ele>
        <time>2026-06-23T10:22:31.163Z</time>
      </trkpt>
      <trkpt lat="45.23932" lon="4.68846">
        <ele>427.862589</ele>
        <time>2026-06-23T10:22:35.123Z</time>
      </trkpt>
      <trkpt lat="45.23935" lon="4.68832">
        <ele>428.705118</ele>
        <time>2026-06-23T10:22:38.151Z</time>
      </trkpt>
      <trkpt lat="45.23938" lon="4.68817">
        <ele>429.20043</ele>
        <time>2026-06-23T10:22:41.155Z</time>
      </trkpt>
      <trkpt lat="45.23941" lon="4.68801">
        <ele>429.75502</ele>
        <time>2026-06-23T10:22:44.154Z</time>
      </trkpt>
      <trkpt lat="45.23944" lon="4.68785">
        <ele>430.301718</ele>
        <time>2026-06-23T10:22:47.151Z</time>
      </trkpt>
      <trkpt lat="45.23948" lon="4.68768">
        <ele>430.889158</ele>
        <time>2026-06-23T10:22:50.159Z</time>
      </trkpt>
      <trkpt lat="45.23951" lon="4.68755">
        <ele>431.320547</ele>
        <time>2026-06-23T10:22:52.153Z</time>
      </trkpt>
      <trkpt lat="45.23956" lon="4.68737">
        <ele>431.957599</ele>
        <time>2026-06-23T10:22:55.154Z</time>
      </trkpt>
      <trkpt lat="45.23959" lon="4.68725">
        <ele>432.378144</ele>
        <time>2026-06-23T10:22:57.156Z</time>
      </trkpt>
      <trkpt lat="45.23961" lon="4.68712">
        <ele>432.811607</ele>
        <time>2026-06-23T10:22:59.147Z</time>
      </trkpt>
      <trkpt lat="45.23964" lon="4.68699">
        <ele>433.267937</ele>
        <time>2026-06-23T10:23:01.135Z</time>
      </trkpt>
      <trkpt lat="45.23966" lon="4.68685">
        <ele>433.729524</ele>
        <time>2026-06-23T10:23:03.151Z</time>
      </trkpt>
      <trkpt lat="45.23968" lon="4.68671">
        <ele>434.199167</ele>
        <time>2026-06-23T10:23:05.149Z</time>
      </trkpt>
      <trkpt lat="45.23971" lon="4.68656">
        <ele>434.699493</ele>
        <time>2026-06-23T10:23:07.153Z</time>
      </trkpt>
      <trkpt lat="45.23974" lon="4.68641">
        <ele>435.205551</ele>
        <time>2026-06-23T10:23:09.151Z</time>
      </trkpt>
      <trkpt lat="45.23977" lon="4.68626">
        <ele>435.735905</ele>
        <time>2026-06-23T10:23:11.155Z</time>
      </trkpt>
      <trkpt lat="45.23982" lon="4.6861">
        <ele>436.308027</ele>
        <time>2026-06-23T10:23:13.155Z</time>
      </trkpt>
      <trkpt lat="45.23985" lon="4.68591">
        <ele>436.920634</ele>
        <time>2026-06-23T10:23:15.134Z</time>
      </trkpt>
      <trkpt lat="45.23989" lon="4.68573">
        <ele>437.148828</ele>
        <time>2026-06-23T10:23:17.166Z</time>
      </trkpt>
      <trkpt lat="45.23992" lon="4.68556">
        <ele>437.294202</ele>
        <time>2026-06-23T10:23:19.156Z</time>
      </trkpt>
      <trkpt lat="45.23995" lon="4.6854">
        <ele>437.434402</ele>
        <time>2026-06-23T10:23:21.152Z</time>
      </trkpt>
      <trkpt lat="45.23998" lon="4.68522">
        <ele>437.589869</ele>
        <time>2026-06-23T10:23:23.149Z</time>
      </trkpt>
      <trkpt lat="45.24002" lon="4.68504">
        <ele>437.749505</ele>
        <time>2026-06-23T10:23:25.158Z</time>
      </trkpt>
      <trkpt lat="45.24005" lon="4.68488">
        <ele>437.888242</ele>
        <time>2026-06-23T10:23:27.148Z</time>
      </trkpt>
      <trkpt lat="45.24005" lon="4.68474">
        <ele>438.009612</ele>
        <time>2026-06-23T10:23:29.171Z</time>
      </trkpt>
      <trkpt lat="45.24007" lon="4.68461">
        <ele>438.123002</ele>
        <time>2026-06-23T10:23:31.153Z</time>
      </trkpt>
      <trkpt lat="45.24009" lon="4.68442">
        <ele>438.282228</ele>
        <time>2026-06-23T10:23:34.152Z</time>
      </trkpt>
      <trkpt lat="45.24011" lon="4.68425">
        <ele>438.423172</ele>
        <time>2026-06-23T10:23:37.149Z</time>
      </trkpt>
      <trkpt lat="45.24012" lon="4.68411">
        <ele>438.54247</ele>
        <time>2026-06-23T10:23:40.133Z</time>
      </trkpt>
      <trkpt lat="45.24014" lon="4.68396">
        <ele>438.675126</ele>
        <time>2026-06-23T10:23:43.158Z</time>
      </trkpt>
      <trkpt lat="45.24017" lon="4.68377">
        <ele>438.840687</ele>
        <time>2026-06-23T10:23:46.157Z</time>
      </trkpt>
      <trkpt lat="45.24019" lon="4.68364">
        <ele>438.950341</ele>
        <time>2026-06-23T10:23:48.149Z</time>
      </trkpt>
      <trkpt lat="45.2402" lon="4.68349">
        <ele>439.075381</ele>
        <time>2026-06-23T10:23:50.148Z</time>
      </trkpt>
      <trkpt lat="45.24023" lon="4.68334">
        <ele>439.043097</ele>
        <time>2026-06-23T10:23:52.151Z</time>
      </trkpt>
      <trkpt lat="45.24026" lon="4.68317">
        <ele>438.696373</ele>
        <time>2026-06-23T10:23:54.180Z</time>
      </trkpt>
      <trkpt lat="45.24029" lon="4.683">
        <ele>438.325513</ele>
        <time>2026-06-23T10:23:56.150Z</time>
      </trkpt>
      <trkpt lat="45.24032" lon="4.68279">
        <ele>437.897976</ele>
        <time>2026-06-23T10:23:58.159Z</time>
      </trkpt>
      <trkpt lat="45.24035" lon="4.68256">
        <ele>437.416621</ele>
        <time>2026-06-23T10:24:00.149Z</time>
      </trkpt>
      <trkpt lat="45.24038" lon="4.68232">
        <ele>436.908103</ele>
        <time>2026-06-23T10:24:02.151Z</time>
      </trkpt>
      <trkpt lat="45.24042" lon="4.68207">
        <ele>436.397515</ele>
        <time>2026-06-23T10:24:04.148Z</time>
      </trkpt>
      <trkpt lat="45.24044" lon="4.68194">
        <ele>436.119688</ele>
        <time>2026-06-23T10:24:05.152Z</time>
      </trkpt>
      <trkpt lat="45.24046" lon="4.68181">
        <ele>435.846542</ele>
        <time>2026-06-23T10:24:06.148Z</time>
      </trkpt>
      <trkpt lat="45.24047" lon="4.68167">
        <ele>435.566164</ele>
        <time>2026-06-23T10:24:07.151Z</time>
      </trkpt>
      <trkpt lat="45.2405" lon="4.68143">
        <ele>435.056392</ele>
        <time>2026-06-23T10:24:09.149Z</time>
      </trkpt>
      <trkpt lat="45.24051" lon="4.6813">
        <ele>434.79131</ele>
        <time>2026-06-23T10:24:10.149Z</time>
      </trkpt>
      <trkpt lat="45.24053" lon="4.68117">
        <ele>434.525457</ele>
        <time>2026-06-23T10:24:11.142Z</time>
      </trkpt>
      <trkpt lat="45.24057" lon="4.68092">
        <ele>434.003584</ele>
        <time>2026-06-23T10:24:13.156Z</time>
      </trkpt>
      <trkpt lat="45.24058" lon="4.68068">
        <ele>434.09513</ele>
        <time>2026-06-23T10:24:15.146Z</time>
      </trkpt>
      <trkpt lat="45.24059" lon="4.68044">
        <ele>434.267721</ele>
        <time>2026-06-23T10:24:17.151Z</time>
      </trkpt>
      <trkpt lat="45.2406" lon="4.6802">
        <ele>434.446356</ele>
        <time>2026-06-23T10:24:19.152Z</time>
      </trkpt>
      <trkpt lat="45.24059" lon="4.67997">
        <ele>434.610186</ele>
        <time>2026-06-23T10:24:21.154Z</time>
      </trkpt>
      <trkpt lat="45.24059" lon="4.67975">
        <ele>434.774696</ele>
        <time>2026-06-23T10:24:23.147Z</time>
      </trkpt>
      <trkpt lat="45.24061" lon="4.67952">
        <ele>434.939024</ele>
        <time>2026-06-23T10:24:25.148Z</time>
      </trkpt>
      <trkpt lat="45.24064" lon="4.67931">
        <ele>435.094998</ele>
        <time>2026-06-23T10:24:27.153Z</time>
      </trkpt>
      <trkpt lat="45.24066" lon="4.6791">
        <ele>435.252004</ele>
        <time>2026-06-23T10:24:29.156Z</time>
      </trkpt>
      <trkpt lat="45.2407" lon="4.67891">
        <ele>435.394094</ele>
        <time>2026-06-23T10:24:31.157Z</time>
      </trkpt>
      <trkpt lat="45.24074" lon="4.67875">
        <ele>435.521843</ele>
        <time>2026-06-23T10:24:33.141Z</time>
      </trkpt>
      <trkpt lat="45.24079" lon="4.67859">
        <ele>435.644852</ele>
        <time>2026-06-23T10:24:35.127Z</time>
      </trkpt>
      <trkpt lat="45.24085" lon="4.67844">
        <ele>435.7686</ele>
        <time>2026-06-23T10:24:37.144Z</time>
      </trkpt>
      <trkpt lat="45.24091" lon="4.67828">
        <ele>435.159736</ele>
        <time>2026-06-23T10:24:39.149Z</time>
      </trkpt>
      <trkpt lat="45.24096" lon="4.67813">
        <ele>434.38192</ele>
        <time>2026-06-23T10:24:41.152Z</time>
      </trkpt>
      <trkpt lat="45.24103" lon="4.67802">
        <ele>433.652872</ele>
        <time>2026-06-23T10:24:43.148Z</time>
      </trkpt>
      <trkpt lat="45.24113" lon="4.67795">
        <ele>432.946515</ele>
        <time>2026-06-23T10:24:45.157Z</time>
      </trkpt>
      <trkpt lat="45.24118" lon="4.67781">
        <ele>432.230711</ele>
        <time>2026-06-23T10:24:47.151Z</time>
      </trkpt>
      <trkpt lat="45.2412" lon="4.67763">
        <ele>431.361964</ele>
        <time>2026-06-23T10:24:49.160Z</time>
      </trkpt>
      <trkpt lat="45.24127" lon="4.67744">
        <ele>430.361616</ele>
        <time>2026-06-23T10:24:51.148Z</time>
      </trkpt>
      <trkpt lat="45.24137" lon="4.67725">
        <ele>429.260899</ele>
        <time>2026-06-23T10:24:53.149Z</time>
      </trkpt>
      <trkpt lat="45.24145" lon="4.67707">
        <ele>428.279222</ele>
        <time>2026-06-23T10:24:55.161Z</time>
      </trkpt>
      <trkpt lat="45.24148" lon="4.67691">
        <ele>427.526549</ele>
        <time>2026-06-23T10:24:57.155Z</time>
      </trkpt>
      <trkpt lat="45.24152" lon="4.67679">
        <ele>426.920635</ele>
        <time>2026-06-23T10:25:00.167Z</time>
      </trkpt>
      <trkpt lat="45.24149" lon="4.67666">
        <ele>426.312675</ele>
        <time>2026-06-23T10:25:04.151Z</time>
      </trkpt>
      <trkpt lat="45.2414" lon="4.67656">
        <ele>425.541886</ele>
        <time>2026-06-23T10:25:07.149Z</time>
      </trkpt>
      <trkpt lat="45.24141" lon="4.67635">
        <ele>424.605282</ele>
        <time>2026-06-23T10:25:10.154Z</time>
      </trkpt>
      <trkpt lat="45.24137" lon="4.67619">
        <ele>423.579211</ele>
        <time>2026-06-23T10:25:12.153Z</time>
      </trkpt>
      <trkpt lat="45.24129" lon="4.67604">
        <ele>421.537714</ele>
        <time>2026-06-23T10:25:14.153Z</time>
      </trkpt>
      <trkpt lat="45.2412" lon="4.67587">
        <ele>419.223494</ele>
        <time>2026-06-23T10:25:16.147Z</time>
      </trkpt>
      <trkpt lat="45.24115" lon="4.67568">
        <ele>417.012103</ele>
        <time>2026-06-23T10:25:18.151Z</time>
      </trkpt>
      <trkpt lat="45.2411" lon="4.67554">
        <ele>415.249714</ele>
        <time>2026-06-23T10:25:20.152Z</time>
      </trkpt>
      <trkpt lat="45.24105" lon="4.67542">
        <ele>413.69789</ele>
        <time>2026-06-23T10:25:22.153Z</time>
      </trkpt>
      <trkpt lat="45.24097" lon="4.67532">
        <ele>412.045951</ele>
        <time>2026-06-23T10:25:24.153Z</time>
      </trkpt>
      <trkpt lat="45.24089" lon="4.67522">
        <ele>410.435653</ele>
        <time>2026-06-23T10:25:26.149Z</time>
      </trkpt>
      <trkpt lat="45.24082" lon="4.67511">
        <ele>408.835643</ele>
        <time>2026-06-23T10:25:28.153Z</time>
      </trkpt>
      <trkpt lat="45.24075" lon="4.67501">
        <ele>407.227791</ele>
        <time>2026-06-23T10:25:30.153Z</time>
      </trkpt>
      <trkpt lat="45.24068" lon="4.6749">
        <ele>405.642364</ele>
        <time>2026-06-23T10:25:32.157Z</time>
      </trkpt>
      <trkpt lat="45.24059" lon="4.6748">
        <ele>403.85365</ele>
        <time>2026-06-23T10:25:34.150Z</time>
      </trkpt>
      <trkpt lat="45.2405" lon="4.67468">
        <ele>401.977546</ele>
        <time>2026-06-23T10:25:36.156Z</time>
      </trkpt>
      <trkpt lat="45.24042" lon="4.67458">
        <ele>400.272916</ele>
        <time>2026-06-23T10:25:38.159Z</time>
      </trkpt>
      <trkpt lat="45.24033" lon="4.67446">
        <ele>398.386704</ele>
        <time>2026-06-23T10:25:41.152Z</time>
      </trkpt>
      <trkpt lat="45.24026" lon="4.67433">
        <ele>396.60951</ele>
        <time>2026-06-23T10:25:44.146Z</time>
      </trkpt>
      <trkpt lat="45.24029" lon="4.67419">
        <ele>395.356677</ele>
        <time>2026-06-23T10:25:49.148Z</time>
      </trkpt>
      <trkpt lat="45.24038" lon="4.67421">
        <ele>394.468088</ele>
        <time>2026-06-23T10:25:53.145Z</time>
      </trkpt>
      <trkpt lat="45.24035" lon="4.67407">
        <ele>393.490126</ele>
        <time>2026-06-23T10:26:01.153Z</time>
      </trkpt>
      <trkpt lat="45.24025" lon="4.67401">
        <ele>392.434633</ele>
        <time>2026-06-23T10:26:04.145Z</time>
      </trkpt>
      <trkpt lat="45.24018" lon="4.67389">
        <ele>391.375061</ele>
        <time>2026-06-23T10:26:08.150Z</time>
      </trkpt>
      <trkpt lat="45.24028" lon="4.67394">
        <ele>390.360672</ele>
        <time>2026-06-23T10:26:17.153Z</time>
      </trkpt>
      <trkpt lat="45.24021" lon="4.67379">
        <ele>389.154123</ele>
        <time>2026-06-23T10:26:26.152Z</time>
      </trkpt>
      <trkpt lat="45.24011" lon="4.67365">
        <ele>387.865367</ele>
        <time>2026-06-23T10:26:29.143Z</time>
      </trkpt>
      <trkpt lat="45.24006" lon="4.67354">
        <ele>386.906651</ele>
        <time>2026-06-23T10:26:32.148Z</time>
      </trkpt>
      <trkpt lat="45.2401" lon="4.67338">
        <ele>385.819946</ele>
        <time>2026-06-23T10:26:37.155Z</time>
      </trkpt>
      <trkpt lat="45.24011" lon="4.67326">
        <ele>384.942361</ele>
        <time>2026-06-23T10:26:39.150Z</time>
      </trkpt>
      <trkpt lat="45.24011" lon="4.67312">
        <ele>384.01692</ele>
        <time>2026-06-23T10:26:41.145Z</time>
      </trkpt>
      <trkpt lat="45.24003" lon="4.67302">
        <ele>383.018561</ele>
        <time>2026-06-23T10:26:43.148Z</time>
      </trkpt>
      <trkpt lat="45.23994" lon="4.67294">
        <ele>382.011854</ele>
        <time>2026-06-23T10:26:45.157Z</time>
      </trkpt>
      <trkpt lat="45.23983" lon="4.67288">
        <ele>380.864111</ele>
        <time>2026-06-23T10:26:48.150Z</time>
      </trkpt>
      <trkpt lat="45.23972" lon="4.67284">
        <ele>379.768812</ele>
        <time>2026-06-23T10:26:51.125Z</time>
      </trkpt>
      <trkpt lat="45.23964" lon="4.67274">
        <ele>378.763368</ele>
        <time>2026-06-23T10:26:54.135Z</time>
      </trkpt>
      <trkpt lat="45.23957" lon="4.67262">
        <ele>379.889992</ele>
        <time>2026-06-23T10:26:57.147Z</time>
      </trkpt>
      <trkpt lat="45.2395" lon="4.6725">
        <ele>381.128435</ele>
        <time>2026-06-23T10:27:00.152Z</time>
      </trkpt>
      <trkpt lat="45.23945" lon="4.67236">
        <ele>382.387397</ele>
        <time>2026-06-23T10:27:03.151Z</time>
      </trkpt>
      <trkpt lat="45.23942" lon="4.67223">
        <ele>383.466887</ele>
        <time>2026-06-23T10:27:06.145Z</time>
      </trkpt>
      <trkpt lat="45.23939" lon="4.67208">
        <ele>384.681949</ele>
        <time>2026-06-23T10:27:10.148Z</time>
      </trkpt>
      <trkpt lat="45.23937" lon="4.67194">
        <ele>385.871837</ele>
        <time>2026-06-23T10:27:15.151Z</time>
      </trkpt>
      <trkpt lat="45.2394" lon="4.67178">
        <ele>387.14083</ele>
        <time>2026-06-23T10:27:21.145Z</time>
      </trkpt>
      <trkpt lat="45.23942" lon="4.67162">
        <ele>388.459851</ele>
        <time>2026-06-23T10:27:25.148Z</time>
      </trkpt>
      <trkpt lat="45.23944" lon="4.67149">
        <ele>389.532929</ele>
        <time>2026-06-23T10:27:28.138Z</time>
      </trkpt>
      <trkpt lat="45.23947" lon="4.67134">
        <ele>390.766718</ele>
        <time>2026-06-23T10:27:32.143Z</time>
      </trkpt>
      <trkpt lat="45.23946" lon="4.67118">
        <ele>392.049533</ele>
        <time>2026-06-23T10:27:37.151Z</time>
      </trkpt>
      <trkpt lat="45.23944" lon="4.67102">
        <ele>393.332349</ele>
        <time>2026-06-23T10:27:41.149Z</time>
      </trkpt>
      <trkpt lat="45.23947" lon="4.67087">
        <ele>394.511057</ele>
        <time>2026-06-23T10:27:45.158Z</time>
      </trkpt>
      <trkpt lat="45.23949" lon="4.67074">
        <ele>395.638111</ele>
        <time>2026-06-23T10:27:49.152Z</time>
      </trkpt>
      <trkpt lat="45.23951" lon="4.67059">
        <ele>396.810276</ele>
        <time>2026-06-23T10:27:53.147Z</time>
      </trkpt>
      <trkpt lat="45.23954" lon="4.67045">
        <ele>397.999403</ele>
        <time>2026-06-23T10:27:57.145Z</time>
      </trkpt>
      <trkpt lat="45.23957" lon="4.67031">
        <ele>399.08899</ele>
        <time>2026-06-23T10:28:00.161Z</time>
      </trkpt>
      <trkpt lat="45.23961" lon="4.67018">
        <ele>399.602991</ele>
        <time>2026-06-23T10:28:05.147Z</time>
      </trkpt>
      <trkpt lat="45.23962" lon="4.67005">
        <ele>400.086724</ele>
        <time>2026-06-23T10:28:08.155Z</time>
      </trkpt>
      <trkpt lat="45.23962" lon="4.66989">
        <ele>400.665202</ele>
        <time>2026-06-23T10:28:12.163Z</time>
      </trkpt>
      <trkpt lat="45.23962" lon="4.66975">
        <ele>401.185204</ele>
        <time>2026-06-23T10:28:15.161Z</time>
      </trkpt>
      <trkpt lat="45.2396" lon="4.66959">
        <ele>401.783433</ele>
        <time>2026-06-23T10:28:18.151Z</time>
      </trkpt>
      <trkpt lat="45.2396" lon="4.66944">
        <ele>402.332843</ele>
        <time>2026-06-23T10:28:21.158Z</time>
      </trkpt>
      <trkpt lat="45.23961" lon="4.66931">
        <ele>402.821563</ele>
        <time>2026-06-23T10:28:24.154Z</time>
      </trkpt>
      <trkpt lat="45.23963" lon="4.66916">
        <ele>403.35535</ele>
        <time>2026-06-23T10:28:28.148Z</time>
      </trkpt>
      <trkpt lat="45.23962" lon="4.66903">
        <ele>403.831569</ele>
        <time>2026-06-23T10:28:31.150Z</time>
      </trkpt>
      <trkpt lat="45.23965" lon="4.66887">
        <ele>404.445924</ele>
        <time>2026-06-23T10:28:35.147Z</time>
      </trkpt>
      <trkpt lat="45.23968" lon="4.66875">
        <ele>404.924236</ele>
        <time>2026-06-23T10:28:38.156Z</time>
      </trkpt>
      <trkpt lat="45.23969" lon="4.66861">
        <ele>405.431651</ele>
        <time>2026-06-23T10:28:42.151Z</time>
      </trkpt>
      <trkpt lat="45.23966" lon="4.66848">
        <ele>405.910032</ele>
        <time>2026-06-23T10:28:45.149Z</time>
      </trkpt>
      <trkpt lat="45.23967" lon="4.66832">
        <ele>406.519598</ele>
        <time>2026-06-23T10:28:49.151Z</time>
      </trkpt>
      <trkpt lat="45.23966" lon="4.66816">
        <ele>407.089469</ele>
        <time>2026-06-23T10:28:52.149Z</time>
      </trkpt>
      <trkpt lat="45.23966" lon="4.66802">
        <ele>407.620987</ele>
        <time>2026-06-23T10:28:55.152Z</time>
      </trkpt>
      <trkpt lat="45.23969" lon="4.66787">
        <ele>408.185349</ele>
        <time>2026-06-23T10:28:58.151Z</time>
      </trkpt>
      <trkpt lat="45.23972" lon="4.66774">
        <ele>408.45299</ele>
        <time>2026-06-23T10:29:01.171Z</time>
      </trkpt>
      <trkpt lat="45.23977" lon="4.6676">
        <ele>408.593318</ele>
        <time>2026-06-23T10:29:04.121Z</time>
      </trkpt>
      <trkpt lat="45.23977" lon="4.66744">
        <ele>408.728812</ele>
        <time>2026-06-23T10:29:08.146Z</time>
      </trkpt>
      <trkpt lat="45.23976" lon="4.66728">
        <ele>408.870645</ele>
        <time>2026-06-23T10:29:12.149Z</time>
      </trkpt>
      <trkpt lat="45.23977" lon="4.66714">
        <ele>408.994938</ele>
        <time>2026-06-23T10:29:16.153Z</time>
      </trkpt>
      <trkpt lat="45.23979" lon="4.667">
        <ele>409.123182</ele>
        <time>2026-06-23T10:29:20.153Z</time>
      </trkpt>
      <trkpt lat="45.23983" lon="4.66687">
        <ele>409.248092</ele>
        <time>2026-06-23T10:29:23.160Z</time>
      </trkpt>
      <trkpt lat="45.23986" lon="4.66674">
        <ele>409.37177</ele>
        <time>2026-06-23T10:29:26.152Z</time>
      </trkpt>
      <trkpt lat="45.23988" lon="4.66657">
        <ele>409.518748</ele>
        <time>2026-06-23T10:29:30.140Z</time>
      </trkpt>
      <trkpt lat="45.23988" lon="4.66644">
        <ele>409.63412</ele>
        <time>2026-06-23T10:29:33.155Z</time>
      </trkpt>
      <trkpt lat="45.2399" lon="4.66631">
        <ele>409.752956</ele>
        <time>2026-06-23T10:29:36.154Z</time>
      </trkpt>
      <trkpt lat="45.23992" lon="4.66614">
        <ele>409.903262</ele>
        <time>2026-06-23T10:29:40.148Z</time>
      </trkpt>
      <trkpt lat="45.23992" lon="4.66601">
        <ele>410.022169</ele>
        <time>2026-06-23T10:29:43.151Z</time>
      </trkpt>
      <trkpt lat="45.23993" lon="4.66588">
        <ele>410.138208</ele>
        <time>2026-06-23T10:29:47.155Z</time>
      </trkpt>
      <trkpt lat="45.23997" lon="4.66574">
        <ele>410.269424</ele>
        <time>2026-06-23T10:29:50.151Z</time>
      </trkpt>
      <trkpt lat="45.23994" lon="4.66559">
        <ele>410.409564</ele>
        <time>2026-06-23T10:29:53.155Z</time>
      </trkpt>
      <trkpt lat="45.23991" lon="4.66541">
        <ele>410.571396</ele>
        <time>2026-06-23T10:29:56.152Z</time>
      </trkpt>
      <trkpt lat="45.23989" lon="4.66528">
        <ele>410.507942</ele>
        <time>2026-06-23T10:29:58.152Z</time>
      </trkpt>
      <trkpt lat="45.23988" lon="4.66514">
        <ele>410.19342</ele>
        <time>2026-06-23T10:30:00.162Z</time>
      </trkpt>
      <trkpt lat="45.23987" lon="4.66498">
        <ele>409.847015</ele>
        <time>2026-06-23T10:30:02.156Z</time>
      </trkpt>
      <trkpt lat="45.23986" lon="4.66483">
        <ele>409.513327</ele>
        <time>2026-06-23T10:30:04.150Z</time>
      </trkpt>
      <trkpt lat="45.23985" lon="4.66469">
        <ele>409.182943</ele>
        <time>2026-06-23T10:30:06.152Z</time>
      </trkpt>
      <trkpt lat="45.23981" lon="4.66454">
        <ele>408.834162</ele>
        <time>2026-06-23T10:30:08.153Z</time>
      </trkpt>
      <trkpt lat="45.23979" lon="4.6644">
        <ele>408.515149</ele>
        <time>2026-06-23T10:30:10.150Z</time>
      </trkpt>
      <trkpt lat="45.23976" lon="4.66425">
        <ele>408.166691</ele>
        <time>2026-06-23T10:30:12.117Z</time>
      </trkpt>
      <trkpt lat="45.23974" lon="4.66409">
        <ele>407.805289</ele>
        <time>2026-06-23T10:30:14.148Z</time>
      </trkpt>
      <trkpt lat="45.23973" lon="4.66393">
        <ele>407.439999</ele>
        <time>2026-06-23T10:30:16.157Z</time>
      </trkpt>
      <trkpt lat="45.2397" lon="4.66377">
        <ele>407.080642</ele>
        <time>2026-06-23T10:30:18.152Z</time>
      </trkpt>
      <trkpt lat="45.23968" lon="4.66358">
        <ele>406.656694</ele>
        <time>2026-06-23T10:30:20.155Z</time>
      </trkpt>
      <trkpt lat="45.23964" lon="4.66339">
        <ele>406.224055</ele>
        <time>2026-06-23T10:30:22.151Z</time>
      </trkpt>
      <trkpt lat="45.23961" lon="4.66319">
        <ele>405.770479</ele>
        <time>2026-06-23T10:30:24.149Z</time>
      </trkpt>
      <trkpt lat="45.2396" lon="4.66299">
        <ele>405.309812</ele>
        <time>2026-06-23T10:30:26.155Z</time>
      </trkpt>
      <trkpt lat="45.23957" lon="4.66279">
        <ele>404.854652</ele>
        <time>2026-06-23T10:30:28.156Z</time>
      </trkpt>
      <trkpt lat="45.23955" lon="4.66258">
        <ele>404.391545</ele>
        <time>2026-06-23T10:30:30.153Z</time>
      </trkpt>
      <trkpt lat="45.23953" lon="4.66236">
        <ele>403.889679</ele>
        <time>2026-06-23T10:30:32.149Z</time>
      </trkpt>
      <trkpt lat="45.23949" lon="4.66212">
        <ele>403.351124</ele>
        <time>2026-06-23T10:30:34.158Z</time>
      </trkpt>
      <trkpt lat="45.23947" lon="4.66188">
        <ele>402.809167</ele>
        <time>2026-06-23T10:30:36.149Z</time>
      </trkpt>
      <trkpt lat="45.23944" lon="4.66164">
        <ele>402.259692</ele>
        <time>2026-06-23T10:30:38.145Z</time>
      </trkpt>
      <trkpt lat="45.23941" lon="4.6614">
        <ele>401.732049</ele>
        <time>2026-06-23T10:30:40.147Z</time>
      </trkpt>
      <trkpt lat="45.23939" lon="4.66117">
        <ele>401.216948</ele>
        <time>2026-06-23T10:30:42.148Z</time>
      </trkpt>
      <trkpt lat="45.23936" lon="4.66093">
        <ele>400.665857</ele>
        <time>2026-06-23T10:30:44.149Z</time>
      </trkpt>
      <trkpt lat="45.23935" lon="4.6608">
        <ele>400.383249</ele>
        <time>2026-06-23T10:30:45.153Z</time>
      </trkpt>
      <trkpt lat="45.23931" lon="4.66056">
        <ele>399.84066</ele>
        <time>2026-06-23T10:30:47.161Z</time>
      </trkpt>
      <trkpt lat="45.23928" lon="4.66033">
        <ele>399.304329</ele>
        <time>2026-06-23T10:30:49.147Z</time>
      </trkpt>
      <trkpt lat="45.23931" lon="4.66009">
        <ele>399.026578</ele>
        <time>2026-06-23T10:30:51.152Z</time>
      </trkpt>
      <trkpt lat="45.23936" lon="4.65999">
        <ele>398.886227</ele>
        <time>2026-06-23T10:30:52.148Z</time>
      </trkpt>
      <trkpt lat="45.23943" lon="4.65989">
        <ele>398.736628</ele>
        <time>2026-06-23T10:30:53.150Z</time>
      </trkpt>
      <trkpt lat="45.23951" lon="4.65979">
        <ele>398.572641</ele>
        <time>2026-06-23T10:30:54.150Z</time>
      </trkpt>
      <trkpt lat="45.23959" lon="4.6597">
        <ele>398.41432</ele>
        <time>2026-06-23T10:30:55.153Z</time>
      </trkpt>
      <trkpt lat="45.23966" lon="4.6596">
        <ele>398.259777</ele>
        <time>2026-06-23T10:30:56.153Z</time>
      </trkpt>
      <trkpt lat="45.23974" lon="4.65951">
        <ele>398.104513</ele>
        <time>2026-06-23T10:30:57.159Z</time>
      </trkpt>
      <trkpt lat="45.23981" lon="4.65941">
        <ele>397.956455</ele>
        <time>2026-06-23T10:30:58.146Z</time>
      </trkpt>
      <trkpt lat="45.23988" lon="4.65931">
        <ele>397.795183</ele>
        <time>2026-06-23T10:30:59.144Z</time>
      </trkpt>
      <trkpt lat="45.23996" lon="4.65922">
        <ele>397.637983</ele>
        <time>2026-06-23T10:31:00.151Z</time>
      </trkpt>
      <trkpt lat="45.24005" lon="4.65915">
        <ele>397.484021</ele>
        <time>2026-06-23T10:31:01.149Z</time>
      </trkpt>
      <trkpt lat="45.24015" lon="4.65913">
        <ele>397.323359</ele>
        <time>2026-06-23T10:31:02.155Z</time>
      </trkpt>
      <trkpt lat="45.24025" lon="4.65913">
        <ele>397.160377</ele>
        <time>2026-06-23T10:31:03.143Z</time>
      </trkpt>
      <trkpt lat="45.24035" lon="4.65913">
        <ele>397.011364</ele>
        <time>2026-06-23T10:31:04.158Z</time>
      </trkpt>
      <trkpt lat="45.24045" lon="4.65914">
        <ele>396.852857</ele>
        <time>2026-06-23T10:31:05.144Z</time>
      </trkpt>
      <trkpt lat="45.24055" lon="4.65913">
        <ele>396.705384</ele>
        <time>2026-06-23T10:31:06.149Z</time>
      </trkpt>
      <trkpt lat="45.24074" lon="4.65909">
        <ele>396.278814</ele>
        <time>2026-06-23T10:31:08.154Z</time>
      </trkpt>
      <trkpt lat="45.24083" lon="4.65904">
        <ele>395.859547</ele>
        <time>2026-06-23T10:31:09.161Z</time>
      </trkpt>
      <trkpt lat="45.24092" lon="4.65898">
        <ele>395.446556</ele>
        <time>2026-06-23T10:31:10.105Z</time>
      </trkpt>
      <trkpt lat="45.24101" lon="4.6589">
        <ele>395.013612</ele>
        <time>2026-06-23T10:31:11.107Z</time>
      </trkpt>
      <trkpt lat="45.24109" lon="4.65881">
        <ele>394.586164</ele>
        <time>2026-06-23T10:31:12.111Z</time>
      </trkpt>
      <trkpt lat="45.24117" lon="4.65873">
        <ele>394.163471</ele>
        <time>2026-06-23T10:31:13.138Z</time>
      </trkpt>
      <trkpt lat="45.24124" lon="4.65864">
        <ele>393.785751</ele>
        <time>2026-06-23T10:31:14.123Z</time>
      </trkpt>
      <trkpt lat="45.24131" lon="4.65855">
        <ele>393.371777</ele>
        <time>2026-06-23T10:31:15.133Z</time>
      </trkpt>
      <trkpt lat="45.24138" lon="4.65846">
        <ele>392.981271</ele>
        <time>2026-06-23T10:31:16.110Z</time>
      </trkpt>
      <trkpt lat="45.24146" lon="4.65838">
        <ele>392.570583</ele>
        <time>2026-06-23T10:31:17.146Z</time>
      </trkpt>
      <trkpt lat="45.24154" lon="4.65829">
        <ele>392.137684</ele>
        <time>2026-06-23T10:31:18.150Z</time>
      </trkpt>
      <trkpt lat="45.24162" lon="4.6582">
        <ele>391.736866</ele>
        <time>2026-06-23T10:31:19.148Z</time>
      </trkpt>
      <trkpt lat="45.24169" lon="4.65811">
        <ele>391.344405</ele>
        <time>2026-06-23T10:31:20.152Z</time>
      </trkpt>
      <trkpt lat="45.24177" lon="4.65802">
        <ele>390.916254</ele>
        <time>2026-06-23T10:31:21.123Z</time>
      </trkpt>
      <trkpt lat="45.24184" lon="4.65794">
        <ele>390.537669</ele>
        <time>2026-06-23T10:31:22.147Z</time>
      </trkpt>
      <trkpt lat="45.24197" lon="4.65779">
        <ele>389.821297</ele>
        <time>2026-06-23T10:31:24.145Z</time>
      </trkpt>
      <trkpt lat="45.24208" lon="4.65762">
        <ele>389.146782</ele>
        <time>2026-06-23T10:31:26.149Z</time>
      </trkpt>
      <trkpt lat="45.24214" lon="4.65742">
        <ele>389.067432</ele>
        <time>2026-06-23T10:31:28.141Z</time>
      </trkpt>
      <trkpt lat="45.24218" lon="4.65723">
        <ele>389.197704</ele>
        <time>2026-06-23T10:31:30.145Z</time>
      </trkpt>
      <trkpt lat="45.24221" lon="4.65705">
        <ele>389.322803</ele>
        <time>2026-06-23T10:31:32.143Z</time>
      </trkpt>
      <trkpt lat="45.24222" lon="4.65686">
        <ele>389.446286</ele>
        <time>2026-06-23T10:31:34.145Z</time>
      </trkpt>
      <trkpt lat="45.2422" lon="4.65667">
        <ele>389.573455</ele>
        <time>2026-06-23T10:31:36.144Z</time>
      </trkpt>
      <trkpt lat="45.24219" lon="4.65648">
        <ele>389.694831</ele>
        <time>2026-06-23T10:31:38.142Z</time>
      </trkpt>
      <trkpt lat="45.24219" lon="4.65629">
        <ele>389.819538</ele>
        <time>2026-06-23T10:31:40.108Z</time>
      </trkpt>
      <trkpt lat="45.24223" lon="4.65611">
        <ele>389.942737</ele>
        <time>2026-06-23T10:31:42.148Z</time>
      </trkpt>
      <trkpt lat="45.24225" lon="4.65595">
        <ele>390.053923</ele>
        <time>2026-06-23T10:31:44.148Z</time>
      </trkpt>
      <trkpt lat="45.24226" lon="4.65578">
        <ele>390.161167</ele>
        <time>2026-06-23T10:31:46.152Z</time>
      </trkpt>
      <trkpt lat="45.24224" lon="4.65563">
        <ele>390.264129</ele>
        <time>2026-06-23T10:31:48.153Z</time>
      </trkpt>
      <trkpt lat="45.24221" lon="4.65547">
        <ele>390.371879</ele>
        <time>2026-06-23T10:31:50.113Z</time>
      </trkpt>
      <trkpt lat="45.24215" lon="4.65535">
        <ele>390.465859</ele>
        <time>2026-06-23T10:31:52.149Z</time>
      </trkpt>
      <trkpt lat="45.24208" lon="4.65523">
        <ele>390.574376</ele>
        <time>2026-06-23T10:31:54.149Z</time>
      </trkpt>
      <trkpt lat="45.242" lon="4.6551">
        <ele>390.861887</ele>
        <time>2026-06-23T10:31:56.145Z</time>
      </trkpt>
      <trkpt lat="45.24192" lon="4.65497">
        <ele>391.506161</ele>
        <time>2026-06-23T10:31:58.147Z</time>
      </trkpt>
      <trkpt lat="45.24185" lon="4.65486">
        <ele>392.072101</ele>
        <time>2026-06-23T10:32:00.148Z</time>
      </trkpt>
      <trkpt lat="45.24177" lon="4.65477">
        <ele>392.643167</ele>
        <time>2026-06-23T10:32:02.147Z</time>
      </trkpt>
      <trkpt lat="45.24168" lon="4.65468">
        <ele>393.251714</ele>
        <time>2026-06-23T10:32:04.145Z</time>
      </trkpt>
      <trkpt lat="45.24158" lon="4.65461">
        <ele>393.828178</ele>
        <time>2026-06-23T10:32:06.156Z</time>
      </trkpt>
      <trkpt lat="45.24149" lon="4.65453">
        <ele>394.39023</ele>
        <time>2026-06-23T10:32:08.151Z</time>
      </trkpt>
      <trkpt lat="45.24139" lon="4.65446">
        <ele>394.985786</ele>
        <time>2026-06-23T10:32:10.149Z</time>
      </trkpt>
      <trkpt lat="45.24129" lon="4.65441">
        <ele>395.588584</ele>
        <time>2026-06-23T10:32:12.149Z</time>
      </trkpt>
      <trkpt lat="45.24117" lon="4.65436">
        <ele>396.23638</ele>
        <time>2026-06-23T10:32:14.138Z</time>
      </trkpt>
      <trkpt lat="45.24106" lon="4.6543">
        <ele>396.878494</ele>
        <time>2026-06-23T10:32:16.167Z</time>
      </trkpt>
      <trkpt lat="45.24097" lon="4.65421">
        <ele>397.467062</ele>
        <time>2026-06-23T10:32:18.149Z</time>
      </trkpt>
      <trkpt lat="45.24091" lon="4.65409">
        <ele>398.025455</ele>
        <time>2026-06-23T10:32:20.158Z</time>
      </trkpt>
      <trkpt lat="45.24089" lon="4.65393">
        <ele>398.658702</ele>
        <time>2026-06-23T10:32:22.143Z</time>
      </trkpt>
      <trkpt lat="45.24092" lon="4.65375">
        <ele>399.332062</ele>
        <time>2026-06-23T10:32:24.149Z</time>
      </trkpt>
      <trkpt lat="45.24098" lon="4.65361">
        <ele>399.9454</ele>
        <time>2026-06-23T10:32:26.152Z</time>
      </trkpt>
      <trkpt lat="45.24106" lon="4.65348">
        <ele>400.375137</ele>
        <time>2026-06-23T10:32:28.156Z</time>
      </trkpt>
      <trkpt lat="45.24111" lon="4.65335">
        <ele>400.471689</ele>
        <time>2026-06-23T10:32:30.148Z</time>
      </trkpt>
      <trkpt lat="45.24116" lon="4.6532">
        <ele>400.571969</ele>
        <time>2026-06-23T10:32:32.144Z</time>
      </trkpt>
      <trkpt lat="45.24119" lon="4.65306">
        <ele>400.666095</ele>
        <time>2026-06-23T10:32:34.149Z</time>
      </trkpt>
      <trkpt lat="45.24122" lon="4.65292">
        <ele>400.754954</ele>
        <time>2026-06-23T10:32:36.145Z</time>
      </trkpt>
      <trkpt lat="45.24123" lon="4.65277">
        <ele>400.846602</ele>
        <time>2026-06-23T10:32:38.147Z</time>
      </trkpt>
      <trkpt lat="45.24124" lon="4.65263">
        <ele>400.937098</ele>
        <time>2026-06-23T10:32:40.147Z</time>
      </trkpt>
      <trkpt lat="45.24126" lon="4.65248">
        <ele>401.029124</ele>
        <time>2026-06-23T10:32:42.148Z</time>
      </trkpt>
      <trkpt lat="45.24129" lon="4.65234">
        <ele>401.119062</ele>
        <time>2026-06-23T10:32:44.143Z</time>
      </trkpt>
      <trkpt lat="45.24132" lon="4.6522">
        <ele>401.210303</ele>
        <time>2026-06-23T10:32:46.149Z</time>
      </trkpt>
      <trkpt lat="45.24134" lon="4.65204">
        <ele>401.313509</ele>
        <time>2026-06-23T10:32:48.143Z</time>
      </trkpt>
      <trkpt lat="45.24134" lon="4.65189">
        <ele>401.405709</ele>
        <time>2026-06-23T10:32:50.147Z</time>
      </trkpt>
      <trkpt lat="45.24131" lon="4.65175">
        <ele>401.495871</ele>
        <time>2026-06-23T10:32:52.147Z</time>
      </trkpt>
      <trkpt lat="45.24125" lon="4.65162">
        <ele>401.592751</ele>
        <time>2026-06-23T10:32:54.151Z</time>
      </trkpt>
      <trkpt lat="45.2412" lon="4.6515">
        <ele>401.681655</ele>
        <time>2026-06-23T10:32:56.159Z</time>
      </trkpt>
      <trkpt lat="45.24114" lon="4.65138">
        <ele>401.773076</ele>
        <time>2026-06-23T10:32:58.155Z</time>
      </trkpt>
      <trkpt lat="45.24107" lon="4.65123">
        <ele>401.881766</ele>
        <time>2026-06-23T10:33:00.149Z</time>
      </trkpt>
      <trkpt lat="45.24101" lon="4.65108">
        <ele>401.90419</ele>
        <time>2026-06-23T10:33:02.151Z</time>
      </trkpt>
      <trkpt lat="45.24094" lon="4.65095">
        <ele>401.881689</ele>
        <time>2026-06-23T10:33:04.145Z</time>
      </trkpt>
      <trkpt lat="45.24088" lon="4.65081">
        <ele>401.859066</ele>
        <time>2026-06-23T10:33:06.151Z</time>
      </trkpt>
      <trkpt lat="45.24082" lon="4.65068">
        <ele>401.836782</ele>
        <time>2026-06-23T10:33:08.148Z</time>
      </trkpt>
      <trkpt lat="45.24077" lon="4.65053">
        <ele>401.813751</ele>
        <time>2026-06-23T10:33:10.147Z</time>
      </trkpt>
      <trkpt lat="45.24071" lon="4.65038">
        <ele>401.791032</ele>
        <time>2026-06-23T10:33:12.151Z</time>
      </trkpt>
      <trkpt lat="45.24065" lon="4.65025">
        <ele>401.768726</ele>
        <time>2026-06-23T10:33:14.152Z</time>
      </trkpt>
      <trkpt lat="45.24059" lon="4.65012">
        <ele>401.747573</ele>
        <time>2026-06-23T10:33:16.150Z</time>
      </trkpt>
      <trkpt lat="45.24051" lon="4.65002">
        <ele>401.727702</ele>
        <time>2026-06-23T10:33:18.164Z</time>
      </trkpt>
      <trkpt lat="45.24043" lon="4.64994">
        <ele>401.706969</ele>
        <time>2026-06-23T10:33:20.146Z</time>
      </trkpt>
      <trkpt lat="45.24033" lon="4.64985">
        <ele>401.684804</ele>
        <time>2026-06-23T10:33:22.148Z</time>
      </trkpt>
      <trkpt lat="45.24022" lon="4.64979">
        <ele>401.661772</ele>
        <time>2026-06-23T10:33:24.148Z</time>
      </trkpt>
      <trkpt lat="45.24013" lon="4.64972">
        <ele>401.641591</ele>
        <time>2026-06-23T10:33:26.148Z</time>
      </trkpt>
      <trkpt lat="45.24004" lon="4.64965">
        <ele>401.621713</ele>
        <time>2026-06-23T10:33:28.153Z</time>
      </trkpt>
      <trkpt lat="45.23996" lon="4.64957">
        <ele>401.601766</ele>
        <time>2026-06-23T10:33:30.157Z</time>
      </trkpt>
      <trkpt lat="45.23988" lon="4.64948">
        <ele>401.58129</ele>
        <time>2026-06-23T10:33:32.154Z</time>
      </trkpt>
      <trkpt lat="45.23981" lon="4.64935">
        <ele>401.656332</ele>
        <time>2026-06-23T10:33:34.155Z</time>
      </trkpt>
      <trkpt lat="45.23977" lon="4.64922">
        <ele>401.934516</ele>
        <time>2026-06-23T10:33:36.158Z</time>
      </trkpt>
      <trkpt lat="45.23974" lon="4.64907">
        <ele>402.22001</ele>
        <time>2026-06-23T10:33:38.151Z</time>
      </trkpt>
      <trkpt lat="45.2397" lon="4.64892">
        <ele>402.520357</ele>
        <time>2026-06-23T10:33:40.147Z</time>
      </trkpt>
      <trkpt lat="45.23966" lon="4.64879">
        <ele>402.782996</ele>
        <time>2026-06-23T10:33:42.153Z</time>
      </trkpt>
      <trkpt lat="45.23962" lon="4.64864">
        <ele>403.068127</ele>
        <time>2026-06-23T10:33:44.159Z</time>
      </trkpt>
      <trkpt lat="45.23957" lon="4.64852">
        <ele>403.323622</ele>
        <time>2026-06-23T10:33:46.152Z</time>
      </trkpt>
      <trkpt lat="45.23952" lon="4.64841">
        <ele>403.57541</ele>
        <time>2026-06-23T10:33:48.153Z</time>
      </trkpt>
      <trkpt lat="45.23946" lon="4.64829">
        <ele>403.84636</ele>
        <time>2026-06-23T10:33:50.147Z</time>
      </trkpt>
      <trkpt lat="45.23939" lon="4.64817">
        <ele>404.132297</ele>
        <time>2026-06-23T10:33:52.146Z</time>
      </trkpt>
      <trkpt lat="45.23932" lon="4.64807">
        <ele>404.395977</ele>
        <time>2026-06-23T10:33:54.154Z</time>
      </trkpt>
      <trkpt lat="45.23926" lon="4.64795">
        <ele>404.672987</ele>
        <time>2026-06-23T10:33:56.151Z</time>
      </trkpt>
      <trkpt lat="45.23921" lon="4.64782">
        <ele>404.935916</ele>
        <time>2026-06-23T10:33:58.150Z</time>
      </trkpt>
      <trkpt lat="45.23917" lon="4.64769">
        <ele>405.209485</ele>
        <time>2026-06-23T10:34:00.149Z</time>
      </trkpt>
      <trkpt lat="45.23915" lon="4.64754">
        <ele>405.483541</ele>
        <time>2026-06-23T10:34:02.149Z</time>
      </trkpt>
      <trkpt lat="45.23914" lon="4.64739">
        <ele>405.762476</ele>
        <time>2026-06-23T10:34:04.163Z</time>
      </trkpt>
      <trkpt lat="45.23913" lon="4.64721">
        <ele>406.106414</ele>
        <time>2026-06-23T10:34:07.152Z</time>
      </trkpt>
      <trkpt lat="45.23912" lon="4.64707">
        <ele>406.340232</ele>
        <time>2026-06-23T10:34:09.148Z</time>
      </trkpt>
      <trkpt lat="45.2391" lon="4.64694">
        <ele>406.521436</ele>
        <time>2026-06-23T10:34:11.144Z</time>
      </trkpt>
      <trkpt lat="45.23906" lon="4.64681">
        <ele>406.714785</ele>
        <time>2026-06-23T10:34:13.147Z</time>
      </trkpt>
      <trkpt lat="45.23901" lon="4.64669">
        <ele>406.899607</ele>
        <time>2026-06-23T10:34:15.150Z</time>
      </trkpt>
      <trkpt lat="45.23896" lon="4.64658">
        <ele>407.07957</ele>
        <time>2026-06-23T10:34:17.168Z</time>
      </trkpt>
      <trkpt lat="45.23889" lon="4.64646">
        <ele>407.283816</ele>
        <time>2026-06-23T10:34:19.155Z</time>
      </trkpt>
      <trkpt lat="45.23882" lon="4.64636">
        <ele>407.484092</ele>
        <time>2026-06-23T10:34:21.152Z</time>
      </trkpt>
      <trkpt lat="45.23874" lon="4.64628">
        <ele>407.67213</ele>
        <time>2026-06-23T10:34:23.157Z</time>
      </trkpt>
      <trkpt lat="45.23865" lon="4.64619">
        <ele>407.865617</ele>
        <time>2026-06-23T10:34:25.148Z</time>
      </trkpt>
      <trkpt lat="45.23857" lon="4.64611">
        <ele>408.059381</ele>
        <time>2026-06-23T10:34:27.152Z</time>
      </trkpt>
      <trkpt lat="45.23848" lon="4.64603">
        <ele>408.259135</ele>
        <time>2026-06-23T10:34:29.148Z</time>
      </trkpt>
      <trkpt lat="45.2384" lon="4.64594">
        <ele>408.459805</ele>
        <time>2026-06-23T10:34:31.155Z</time>
      </trkpt>
      <trkpt lat="45.23832" lon="4.64585">
        <ele>408.643759</ele>
        <time>2026-06-23T10:34:33.160Z</time>
      </trkpt>
      <trkpt lat="45.23825" lon="4.64574">
        <ele>408.847006</ele>
        <time>2026-06-23T10:34:35.146Z</time>
      </trkpt>
      <trkpt lat="45.23818" lon="4.64563">
        <ele>409.050462</ele>
        <time>2026-06-23T10:34:37.150Z</time>
      </trkpt>
      <trkpt lat="45.23811" lon="4.64552">
        <ele>409.247691</ele>
        <time>2026-06-23T10:34:39.147Z</time>
      </trkpt>
      <trkpt lat="45.23804" lon="4.64541">
        <ele>409.437344</ele>
        <time>2026-06-23T10:34:41.150Z</time>
      </trkpt>
      <trkpt lat="45.23798" lon="4.64533">
        <ele>409.608502</ele>
        <time>2026-06-23T10:34:43.146Z</time>
      </trkpt>
      <trkpt lat="45.23791" lon="4.64523">
        <ele>409.768348</ele>
        <time>2026-06-23T10:34:45.149Z</time>
      </trkpt>
      <trkpt lat="45.23783" lon="4.64513">
        <ele>409.892649</ele>
        <time>2026-06-23T10:34:47.149Z</time>
      </trkpt>
      <trkpt lat="45.23775" lon="4.64503">
        <ele>410.025507</ele>
        <time>2026-06-23T10:34:49.151Z</time>
      </trkpt>
      <trkpt lat="45.23767" lon="4.64494">
        <ele>410.144014</ele>
        <time>2026-06-23T10:34:51.156Z</time>
      </trkpt>
      <trkpt lat="45.23758" lon="4.64488">
        <ele>410.267871</ele>
        <time>2026-06-23T10:34:53.152Z</time>
      </trkpt>
      <trkpt lat="45.23748" lon="4.64481">
        <ele>410.39897</ele>
        <time>2026-06-23T10:34:55.153Z</time>
      </trkpt>
      <trkpt lat="45.23739" lon="4.64477">
        <ele>410.516773</ele>
        <time>2026-06-23T10:34:57.156Z</time>
      </trkpt>
      <trkpt lat="45.2373" lon="4.64473">
        <ele>410.627245</ele>
        <time>2026-06-23T10:34:59.144Z</time>
      </trkpt>
      <trkpt lat="45.23721" lon="4.64467">
        <ele>410.74884</ele>
        <time>2026-06-23T10:35:01.130Z</time>
      </trkpt>
      <trkpt lat="45.2371" lon="4.6446">
        <ele>410.890891</ele>
        <time>2026-06-23T10:35:03.149Z</time>
      </trkpt>
      <trkpt lat="45.23701" lon="4.64453">
        <ele>411.016587</ele>
        <time>2026-06-23T10:35:05.152Z</time>
      </trkpt>
      <trkpt lat="45.23691" lon="4.64446">
        <ele>411.148057</ele>
        <time>2026-06-23T10:35:07.152Z</time>
      </trkpt>
      <trkpt lat="45.23682" lon="4.64438">
        <ele>411.281183</ele>
        <time>2026-06-23T10:35:09.151Z</time>
      </trkpt>
      <trkpt lat="45.23672" lon="4.64431">
        <ele>411.414308</ele>
        <time>2026-06-23T10:35:11.131Z</time>
      </trkpt>
      <trkpt lat="45.23662" lon="4.64424">
        <ele>411.550856</ele>
        <time>2026-06-23T10:35:13.150Z</time>
      </trkpt>
      <trkpt lat="45.23652" lon="4.64417">
        <ele>411.68308</ele>
        <time>2026-06-23T10:35:15.149Z</time>
      </trkpt>
      <trkpt lat="45.23643" lon="4.64409">
        <ele>411.809726</ele>
        <time>2026-06-23T10:35:17.149Z</time>
      </trkpt>
      <trkpt lat="45.23634" lon="4.64399">
        <ele>411.985314</ele>
        <time>2026-06-23T10:35:19.151Z</time>
      </trkpt>
      <trkpt lat="45.23629" lon="4.64384">
        <ele>412.225229</ele>
        <time>2026-06-23T10:35:21.156Z</time>
      </trkpt>
      <trkpt lat="45.23625" lon="4.64369">
        <ele>412.453998</ele>
        <time>2026-06-23T10:35:23.147Z</time>
      </trkpt>
      <trkpt lat="45.23624" lon="4.64354">
        <ele>412.666071</ele>
        <time>2026-06-23T10:35:25.156Z</time>
      </trkpt>
      <trkpt lat="45.23625" lon="4.6434">
        <ele>412.865701</ele>
        <time>2026-06-23T10:35:27.152Z</time>
      </trkpt>
      <trkpt lat="45.23627" lon="4.64326">
        <ele>413.068133</ele>
        <time>2026-06-23T10:35:29.154Z</time>
      </trkpt>
      <trkpt lat="45.23629" lon="4.64311">
        <ele>413.29764</ele>
        <time>2026-06-23T10:35:31.151Z</time>
      </trkpt>
      <trkpt lat="45.23632" lon="4.64295">
        <ele>413.531949</ele>
        <time>2026-06-23T10:35:33.129Z</time>
      </trkpt>
      <trkpt lat="45.23635" lon="4.64279">
        <ele>413.759351</ele>
        <time>2026-06-23T10:35:35.152Z</time>
      </trkpt>
      <trkpt lat="45.23639" lon="4.64265">
        <ele>413.981652</ele>
        <time>2026-06-23T10:35:37.150Z</time>
      </trkpt>
      <trkpt lat="45.23645" lon="4.64251">
        <ele>414.21285</ele>
        <time>2026-06-23T10:35:39.146Z</time>
      </trkpt>
      <trkpt lat="45.23652" lon="4.64238">
        <ele>414.450563</ele>
        <time>2026-06-23T10:35:41.148Z</time>
      </trkpt>
      <trkpt lat="45.2366" lon="4.64225">
        <ele>414.695618</ele>
        <time>2026-06-23T10:35:43.152Z</time>
      </trkpt>
      <trkpt lat="45.23666" lon="4.64211">
        <ele>414.93206</ele>
        <time>2026-06-23T10:35:45.148Z</time>
      </trkpt>
      <trkpt lat="45.23671" lon="4.64197">
        <ele>415.158678</ele>
        <time>2026-06-23T10:35:47.152Z</time>
      </trkpt>
      <trkpt lat="45.23676" lon="4.64182">
        <ele>415.384406</ele>
        <time>2026-06-23T10:35:49.149Z</time>
      </trkpt>
      <trkpt lat="45.23678" lon="4.64166">
        <ele>415.545686</ele>
        <time>2026-06-23T10:35:51.148Z</time>
      </trkpt>
      <trkpt lat="45.2368" lon="4.64149">
        <ele>415.554156</ele>
        <time>2026-06-23T10:35:53.156Z</time>
      </trkpt>
      <trkpt lat="45.23679" lon="4.64133">
        <ele>415.561886</ele>
        <time>2026-06-23T10:35:55.151Z</time>
      </trkpt>
      <trkpt lat="45.23676" lon="4.64117">
        <ele>415.570168</ele>
        <time>2026-06-23T10:35:57.148Z</time>
      </trkpt>
      <trkpt lat="45.23668" lon="4.64102">
        <ele>415.57916</ele>
        <time>2026-06-23T10:35:59.155Z</time>
      </trkpt>
      <trkpt lat="45.23662" lon="4.64088">
        <ele>415.587152</ele>
        <time>2026-06-23T10:36:01.153Z</time>
      </trkpt>
      <trkpt lat="45.23654" lon="4.64077">
        <ele>415.595083</ele>
        <time>2026-06-23T10:36:03.149Z</time>
      </trkpt>
      <trkpt lat="45.23645" lon="4.64066">
        <ele>415.602998</ele>
        <time>2026-06-23T10:36:05.157Z</time>
      </trkpt>
      <trkpt lat="45.23635" lon="4.64058">
        <ele>415.611138</ele>
        <time>2026-06-23T10:36:07.155Z</time>
      </trkpt>
      <trkpt lat="45.23624" lon="4.64051">
        <ele>415.619599</ele>
        <time>2026-06-23T10:36:09.150Z</time>
      </trkpt>
      <trkpt lat="45.23613" lon="4.64045">
        <ele>415.627767</ele>
        <time>2026-06-23T10:36:11.124Z</time>
      </trkpt>
      <trkpt lat="45.23602" lon="4.64039">
        <ele>415.635894</ele>
        <time>2026-06-23T10:36:13.148Z</time>
      </trkpt>
      <trkpt lat="45.23591" lon="4.64033">
        <ele>415.643786</ele>
        <time>2026-06-23T10:36:15.150Z</time>
      </trkpt>
      <trkpt lat="45.23581" lon="4.64024">
        <ele>415.652062</ele>
        <time>2026-06-23T10:36:17.148Z</time>
      </trkpt>
      <trkpt lat="45.23574" lon="4.6401">
        <ele>415.660377</ele>
        <time>2026-06-23T10:36:19.145Z</time>
      </trkpt>
      <trkpt lat="45.23569" lon="4.63994">
        <ele>415.682732</ele>
        <time>2026-06-23T10:36:21.150Z</time>
      </trkpt>
      <trkpt lat="45.23568" lon="4.63978">
        <ele>415.788328</ele>
        <time>2026-06-23T10:36:23.151Z</time>
      </trkpt>
      <trkpt lat="45.23569" lon="4.63962">
        <ele>415.897513</ele>
        <time>2026-06-23T10:36:25.160Z</time>
      </trkpt>
      <trkpt lat="45.23569" lon="4.63946">
        <ele>416.007209</ele>
        <time>2026-06-23T10:36:27.146Z</time>
      </trkpt>
      <trkpt lat="45.23569" lon="4.63929">
        <ele>416.120895</ele>
        <time>2026-06-23T10:36:29.152Z</time>
      </trkpt>
      <trkpt lat="45.23569" lon="4.63911">
        <ele>416.246078</ele>
        <time>2026-06-23T10:36:31.150Z</time>
      </trkpt>
      <trkpt lat="45.23568" lon="4.63894">
        <ele>416.359153</ele>
        <time>2026-06-23T10:36:33.152Z</time>
      </trkpt>
      <trkpt lat="45.23569" lon="4.6388">
        <ele>416.457286</ele>
        <time>2026-06-23T10:36:35.148Z</time>
      </trkpt>
      <trkpt lat="45.23568" lon="4.63864">
        <ele>416.562251</ele>
        <time>2026-06-23T10:36:37.150Z</time>
      </trkpt>
      <trkpt lat="45.23566" lon="4.63848">
        <ele>416.671206</ele>
        <time>2026-06-23T10:36:39.150Z</time>
      </trkpt>
      <trkpt lat="45.23563" lon="4.63832">
        <ele>416.786077</ele>
        <time>2026-06-23T10:36:41.154Z</time>
      </trkpt>
      <trkpt lat="45.23558" lon="4.63817">
        <ele>416.89855</ele>
        <time>2026-06-23T10:36:43.149Z</time>
      </trkpt>
      <trkpt lat="45.23555" lon="4.63801">
        <ele>417.005462</ele>
        <time>2026-06-23T10:36:45.150Z</time>
      </trkpt>
      <trkpt lat="45.23556" lon="4.63784">
        <ele>417.120529</ele>
        <time>2026-06-23T10:36:47.157Z</time>
      </trkpt>
      <trkpt lat="45.23558" lon="4.63768">
        <ele>417.231125</ele>
        <time>2026-06-23T10:36:49.148Z</time>
      </trkpt>
      <trkpt lat="45.23561" lon="4.63752">
        <ele>417.346406</ele>
        <time>2026-06-23T10:36:51.152Z</time>
      </trkpt>
      <trkpt lat="45.23564" lon="4.63736">
        <ele>417.48975</ele>
        <time>2026-06-23T10:36:53.153Z</time>
      </trkpt>
      <trkpt lat="45.23565" lon="4.63719">
        <ele>417.670576</ele>
        <time>2026-06-23T10:36:55.151Z</time>
      </trkpt>
      <trkpt lat="45.23566" lon="4.63702">
        <ele>417.843561</ele>
        <time>2026-06-23T10:36:57.159Z</time>
      </trkpt>
      <trkpt lat="45.23564" lon="4.63685">
        <ele>418.021318</ele>
        <time>2026-06-23T10:36:59.149Z</time>
      </trkpt>
      <trkpt lat="45.23561" lon="4.6367">
        <ele>418.18766</ele>
        <time>2026-06-23T10:37:01.139Z</time>
      </trkpt>
      <trkpt lat="45.23555" lon="4.63656">
        <ele>418.352715</ele>
        <time>2026-06-23T10:37:03.104Z</time>
      </trkpt>
      <trkpt lat="45.2355" lon="4.63641">
        <ele>418.520289</ele>
        <time>2026-06-23T10:37:05.150Z</time>
      </trkpt>
      <trkpt lat="45.23545" lon="4.63627">
        <ele>418.685555</ele>
        <time>2026-06-23T10:37:07.148Z</time>
      </trkpt>
      <trkpt lat="45.23542" lon="4.63612">
        <ele>418.85177</ele>
        <time>2026-06-23T10:37:09.159Z</time>
      </trkpt>
      <trkpt lat="45.2354" lon="4.63596">
        <ele>419.012524</ele>
        <time>2026-06-23T10:37:11.150Z</time>
      </trkpt>
      <trkpt lat="45.2354" lon="4.6358">
        <ele>419.177992</ele>
        <time>2026-06-23T10:37:13.149Z</time>
      </trkpt>
      <trkpt lat="45.23542" lon="4.63565">
        <ele>419.34145</ele>
        <time>2026-06-23T10:37:15.124Z</time>
      </trkpt>
      <trkpt lat="45.23544" lon="4.63548">
        <ele>419.515372</ele>
        <time>2026-06-23T10:37:17.155Z</time>
      </trkpt>
      <trkpt lat="45.23549" lon="4.63532">
        <ele>419.692561</ele>
        <time>2026-06-23T10:37:19.154Z</time>
      </trkpt>
      <trkpt lat="45.23553" lon="4.63517">
        <ele>419.860435</ele>
        <time>2026-06-23T10:37:21.153Z</time>
      </trkpt>
      <trkpt lat="45.23556" lon="4.635">
        <ele>420.042464</ele>
        <time>2026-06-23T10:37:23.153Z</time>
      </trkpt>
      <trkpt lat="45.23557" lon="4.63482">
        <ele>420.32701</ele>
        <time>2026-06-23T10:37:25.149Z</time>
      </trkpt>
      <trkpt lat="45.23557" lon="4.63465">
        <ele>420.593729</ele>
        <time>2026-06-23T10:37:27.148Z</time>
      </trkpt>
      <trkpt lat="45.23557" lon="4.63446">
        <ele>420.882011</ele>
        <time>2026-06-23T10:37:29.152Z</time>
      </trkpt>
      <trkpt lat="45.23556" lon="4.63428">
        <ele>421.164208</ele>
        <time>2026-06-23T10:37:31.153Z</time>
      </trkpt>
      <trkpt lat="45.23556" lon="4.6341">
        <ele>421.438706</ele>
        <time>2026-06-23T10:37:33.146Z</time>
      </trkpt>
      <trkpt lat="45.23555" lon="4.63394">
        <ele>421.688677</ele>
        <time>2026-06-23T10:37:35.153Z</time>
      </trkpt>
      <trkpt lat="45.23554" lon="4.63379">
        <ele>421.914506</ele>
        <time>2026-06-23T10:37:37.160Z</time>
      </trkpt>
      <trkpt lat="45.23552" lon="4.63366">
        <ele>422.122111</ele>
        <time>2026-06-23T10:37:39.147Z</time>
      </trkpt>
      <trkpt lat="45.23549" lon="4.63353">
        <ele>422.333063</ele>
        <time>2026-06-23T10:37:41.146Z</time>
      </trkpt>
      <trkpt lat="45.23544" lon="4.63337">
        <ele>422.603199</ele>
        <time>2026-06-23T10:37:44.150Z</time>
      </trkpt>
      <trkpt lat="45.23539" lon="4.63323">
        <ele>422.845414</ele>
        <time>2026-06-23T10:37:47.149Z</time>
      </trkpt>
      <trkpt lat="45.23534" lon="4.6331">
        <ele>423.069522</ele>
        <time>2026-06-23T10:37:52.157Z</time>
      </trkpt>
      <trkpt lat="45.23533" lon="4.63297">
        <ele>423.272511</ele>
        <time>2026-06-23T10:38:00.150Z</time>
      </trkpt>
      <trkpt lat="45.2353" lon="4.63278">
        <ele>423.573541</ele>
        <time>2026-06-23T10:39:01.150Z</time>
      </trkpt>
      <trkpt lat="45.2353" lon="4.63263">
        <ele>423.801858</ele>
        <time>2026-06-23T10:39:04.153Z</time>
      </trkpt>
      <trkpt lat="45.23532" lon="4.63247">
        <ele>424.114965</ele>
        <time>2026-06-23T10:39:07.148Z</time>
      </trkpt>
      <trkpt lat="45.23535" lon="4.63234">
        <ele>424.491616</ele>
        <time>2026-06-23T10:39:10.147Z</time>
      </trkpt>
      <trkpt lat="45.2354" lon="4.63222">
        <ele>424.889133</ele>
        <time>2026-06-23T10:39:13.152Z</time>
      </trkpt>
      <trkpt lat="45.23546" lon="4.63208">
        <ele>425.345733</ele>
        <time>2026-06-23T10:39:16.145Z</time>
      </trkpt>
      <trkpt lat="45.23554" lon="4.63195">
        <ele>425.835132</ele>
        <time>2026-06-23T10:39:19.161Z</time>
      </trkpt>
      <trkpt lat="45.23562" lon="4.63181">
        <ele>426.3313</ele>
        <time>2026-06-23T10:39:22.153Z</time>
      </trkpt>
      <trkpt lat="45.23571" lon="4.63168">
        <ele>426.824549</ele>
        <time>2026-06-23T10:39:25.159Z</time>
      </trkpt>
      <trkpt lat="45.2358" lon="4.63155">
        <ele>427.353364</ele>
        <time>2026-06-23T10:39:28.148Z</time>
      </trkpt>
      <trkpt lat="45.2359" lon="4.63143">
        <ele>427.866857</ele>
        <time>2026-06-23T10:39:31.146Z</time>
      </trkpt>
      <trkpt lat="45.23598" lon="4.6313">
        <ele>428.343825</ele>
        <time>2026-06-23T10:39:34.150Z</time>
      </trkpt>
      <trkpt lat="45.23605" lon="4.63115">
        <ele>428.84159</ele>
        <time>2026-06-23T10:39:37.148Z</time>
      </trkpt>
      <trkpt lat="45.23609" lon="4.63099">
        <ele>429.337054</ele>
        <time>2026-06-23T10:39:40.152Z</time>
      </trkpt>
      <trkpt lat="45.23611" lon="4.63085">
        <ele>429.721424</ele>
        <time>2026-06-23T10:39:42.150Z</time>
      </trkpt>
      <trkpt lat="45.23613" lon="4.63071">
        <ele>430.125735</ele>
        <time>2026-06-23T10:39:44.159Z</time>
      </trkpt>
      <trkpt lat="45.23614" lon="4.63056">
        <ele>430.544999</ele>
        <time>2026-06-23T10:39:46.151Z</time>
      </trkpt>
      <trkpt lat="45.23614" lon="4.6304">
        <ele>430.983785</ele>
        <time>2026-06-23T10:39:48.149Z</time>
      </trkpt>
      <trkpt lat="45.23615" lon="4.63024">
        <ele>431.043364</ele>
        <time>2026-06-23T10:39:50.140Z</time>
      </trkpt>
      <trkpt lat="45.23616" lon="4.63009">
        <ele>430.966722</ele>
        <time>2026-06-23T10:39:52.147Z</time>
      </trkpt>
      <trkpt lat="45.23617" lon="4.62993">
        <ele>430.888001</ele>
        <time>2026-06-23T10:39:54.150Z</time>
      </trkpt>
      <trkpt lat="45.2362" lon="4.62978">
        <ele>430.807342</ele>
        <time>2026-06-23T10:39:56.152Z</time>
      </trkpt>
      <trkpt lat="45.23623" lon="4.62961">
        <ele>430.720261</ele>
        <time>2026-06-23T10:39:58.148Z</time>
      </trkpt>
      <trkpt lat="45.23628" lon="4.62945">
        <ele>430.631233</ele>
        <time>2026-06-23T10:40:00.157Z</time>
      </trkpt>
      <trkpt lat="45.23634" lon="4.62928">
        <ele>430.53591</ele>
        <time>2026-06-23T10:40:02.159Z</time>
      </trkpt>
      <trkpt lat="45.23642" lon="4.62913">
        <ele>430.439483</ele>
        <time>2026-06-23T10:40:04.147Z</time>
      </trkpt>
      <trkpt lat="45.23653" lon="4.62899">
        <ele>430.338992</ele>
        <time>2026-06-23T10:40:06.156Z</time>
      </trkpt>
      <trkpt lat="45.23663" lon="4.62889">
        <ele>430.250125</ele>
        <time>2026-06-23T10:40:08.149Z</time>
      </trkpt>
      <trkpt lat="45.23674" lon="4.62882">
        <ele>430.165739</ele>
        <time>2026-06-23T10:40:10.146Z</time>
      </trkpt>
      <trkpt lat="45.23685" lon="4.62878">
        <ele>430.078569</ele>
        <time>2026-06-23T10:40:12.151Z</time>
      </trkpt>
      <trkpt lat="45.23698" lon="4.62874">
        <ele>429.988237</ele>
        <time>2026-06-23T10:40:14.155Z</time>
      </trkpt>
      <trkpt lat="45.2371" lon="4.62871">
        <ele>429.90039</ele>
        <time>2026-06-23T10:40:16.152Z</time>
      </trkpt>
      <trkpt lat="45.23721" lon="4.62865">
        <ele>429.831205</ele>
        <time>2026-06-23T10:40:18.153Z</time>
      </trkpt>
      <trkpt lat="45.23733" lon="4.62855">
        <ele>430.017413</ele>
        <time>2026-06-23T10:40:20.145Z</time>
      </trkpt>
      <trkpt lat="45.23743" lon="4.62846">
        <ele>430.171738</ele>
        <time>2026-06-23T10:40:22.148Z</time>
      </trkpt>
      <trkpt lat="45.23752" lon="4.62835">
        <ele>430.334595</ele>
        <time>2026-06-23T10:40:24.150Z</time>
      </trkpt>
      <trkpt lat="45.23759" lon="4.62822">
        <ele>430.492094</ele>
        <time>2026-06-23T10:40:26.151Z</time>
      </trkpt>
      <trkpt lat="45.23766" lon="4.62807">
        <ele>430.65252</ele>
        <time>2026-06-23T10:40:28.146Z</time>
      </trkpt>
      <trkpt lat="45.23772" lon="4.62795">
        <ele>430.797384</ele>
        <time>2026-06-23T10:40:30.146Z</time>
      </trkpt>
      <trkpt lat="45.23777" lon="4.6278">
        <ele>430.955162</ele>
        <time>2026-06-23T10:40:32.150Z</time>
      </trkpt>
      <trkpt lat="45.23784" lon="4.62765">
        <ele>431.124015</ele>
        <time>2026-06-23T10:40:34.151Z</time>
      </trkpt>
      <trkpt lat="45.2379" lon="4.6275">
        <ele>431.28671</ele>
        <time>2026-06-23T10:40:36.146Z</time>
      </trkpt>
      <trkpt lat="45.23798" lon="4.62737">
        <ele>431.446755</ele>
        <time>2026-06-23T10:40:38.150Z</time>
      </trkpt>
      <trkpt lat="45.23805" lon="4.62724">
        <ele>431.605213</ele>
        <time>2026-06-23T10:40:40.144Z</time>
      </trkpt>
      <trkpt lat="45.23813" lon="4.62711">
        <ele>431.767263</ele>
        <time>2026-06-23T10:40:42.143Z</time>
      </trkpt>
      <trkpt lat="45.2382" lon="4.62697">
        <ele>431.927626</ele>
        <time>2026-06-23T10:40:44.153Z</time>
      </trkpt>
      <trkpt lat="45.23827" lon="4.62684">
        <ele>432.083342</ele>
        <time>2026-06-23T10:40:46.146Z</time>
      </trkpt>
      <trkpt lat="45.23833" lon="4.62671">
        <ele>432.23669</ele>
        <time>2026-06-23T10:40:48.147Z</time>
      </trkpt>
      <trkpt lat="45.23838" lon="4.62655">
        <ele>432.457612</ele>
        <time>2026-06-23T10:40:50.149Z</time>
      </trkpt>
      <trkpt lat="45.23842" lon="4.6264">
        <ele>432.677562</ele>
        <time>2026-06-23T10:40:52.146Z</time>
      </trkpt>
      <trkpt lat="45.23845" lon="4.62623">
        <ele>432.902236</ele>
        <time>2026-06-23T10:40:54.149Z</time>
      </trkpt>
      <trkpt lat="45.23848" lon="4.62606">
        <ele>433.12909</ele>
        <time>2026-06-23T10:40:56.160Z</time>
      </trkpt>
      <trkpt lat="45.23852" lon="4.62589">
        <ele>433.364009</ele>
        <time>2026-06-23T10:40:58.147Z</time>
      </trkpt>
      <trkpt lat="45.23855" lon="4.62572">
        <ele>433.590856</ele>
        <time>2026-06-23T10:41:00.147Z</time>
      </trkpt>
      <trkpt lat="45.23857" lon="4.62556">
        <ele>433.806208</ele>
        <time>2026-06-23T10:41:02.152Z</time>
      </trkpt>
      <trkpt lat="45.23861" lon="4.62539">
        <ele>434.039878</ele>
        <time>2026-06-23T10:41:04.153Z</time>
      </trkpt>
      <trkpt lat="45.23864" lon="4.62522">
        <ele>434.268958</ele>
        <time>2026-06-23T10:41:06.155Z</time>
      </trkpt>
      <trkpt lat="45.23866" lon="4.62506">
        <ele>434.481091</ele>
        <time>2026-06-23T10:41:08.154Z</time>
      </trkpt>
      <trkpt lat="45.23866" lon="4.6249">
        <ele>434.690159</ele>
        <time>2026-06-23T10:41:10.145Z</time>
      </trkpt>
      <trkpt lat="45.23864" lon="4.62474">
        <ele>434.898563</ele>
        <time>2026-06-23T10:41:12.128Z</time>
      </trkpt>
      <trkpt lat="45.23858" lon="4.62458">
        <ele>435.125192</ele>
        <time>2026-06-23T10:41:14.125Z</time>
      </trkpt>
      <trkpt lat="45.23853" lon="4.62442">
        <ele>435.364827</ele>
        <time>2026-06-23T10:41:16.120Z</time>
      </trkpt>
      <trkpt lat="45.23848" lon="4.62425">
        <ele>435.593636</ele>
        <time>2026-06-23T10:41:18.144Z</time>
      </trkpt>
      <trkpt lat="45.23844" lon="4.62409">
        <ele>435.784017</ele>
        <time>2026-06-23T10:41:20.145Z</time>
      </trkpt>
      <trkpt lat="45.2384" lon="4.62394">
        <ele>435.968282</ele>
        <time>2026-06-23T10:41:22.150Z</time>
      </trkpt>
      <trkpt lat="45.23836" lon="4.6238">
        <ele>436.147768</ele>
        <time>2026-06-23T10:41:24.120Z</time>
      </trkpt>
      <trkpt lat="45.23832" lon="4.62365">
        <ele>436.320605</ele>
        <time>2026-06-23T10:41:26.146Z</time>
      </trkpt>
      <trkpt lat="45.23828" lon="4.62352">
        <ele>436.480803</ele>
        <time>2026-06-23T10:41:28.108Z</time>
      </trkpt>
      <trkpt lat="45.23823" lon="4.6234">
        <ele>436.640945</ele>
        <time>2026-06-23T10:41:30.129Z</time>
      </trkpt>
      <trkpt lat="45.23818" lon="4.62329">
        <ele>436.786686</ele>
        <time>2026-06-23T10:41:32.126Z</time>
      </trkpt>
      <trkpt lat="45.23813" lon="4.62318">
        <ele>436.940651</ele>
        <time>2026-06-23T10:41:34.119Z</time>
      </trkpt>
      <trkpt lat="45.23807" lon="4.62306">
        <ele>437.098308</ele>
        <time>2026-06-23T10:41:36.114Z</time>
      </trkpt>
      <trkpt lat="45.23801" lon="4.62293">
        <ele>437.272559</ele>
        <time>2026-06-23T10:41:38.131Z</time>
      </trkpt>
      <trkpt lat="45.23796" lon="4.6228">
        <ele>437.44194</ele>
        <time>2026-06-23T10:41:40.129Z</time>
      </trkpt>
      <trkpt lat="45.23788" lon="4.62265">
        <ele>437.648455</ele>
        <time>2026-06-23T10:41:43.152Z</time>
      </trkpt>
      <trkpt lat="45.23781" lon="4.62251">
        <ele>437.855101</ele>
        <time>2026-06-23T10:41:46.125Z</time>
      </trkpt>
      <trkpt lat="45.23773" lon="4.62235">
        <ele>438.072692</ele>
        <time>2026-06-23T10:41:49.151Z</time>
      </trkpt>
      <trkpt lat="45.23764" lon="4.62221">
        <ele>438.287279</ele>
        <time>2026-06-23T10:41:52.127Z</time>
      </trkpt>
      <trkpt lat="45.23759" lon="4.6221">
        <ele>438.432951</ele>
        <time>2026-06-23T10:41:54.149Z</time>
      </trkpt>
      <trkpt lat="45.23753" lon="4.622">
        <ele>438.684893</ele>
        <time>2026-06-23T10:41:56.150Z</time>
      </trkpt>
      <trkpt lat="45.23744" lon="4.62186">
        <ele>439.08467</ele>
        <time>2026-06-23T10:41:59.170Z</time>
      </trkpt>
      <trkpt lat="45.23735" lon="4.62172">
        <ele>439.476927</ele>
        <time>2026-06-23T10:42:02.127Z</time>
      </trkpt>
      <trkpt lat="45.2373" lon="4.62161">
        <ele>439.766266</ele>
        <time>2026-06-23T10:42:04.155Z</time>
      </trkpt>
      <trkpt lat="45.23726" lon="4.6215">
        <ele>440.03541</ele>
        <time>2026-06-23T10:42:06.145Z</time>
      </trkpt>
      <trkpt lat="45.2372" lon="4.62135">
        <ele>440.387905</ele>
        <time>2026-06-23T10:42:09.157Z</time>
      </trkpt>
      <trkpt lat="45.23716" lon="4.62122">
        <ele>440.693016</ele>
        <time>2026-06-23T10:42:11.152Z</time>
      </trkpt>
      <trkpt lat="45.23712" lon="4.6211">
        <ele>440.962721</ele>
        <time>2026-06-23T10:42:13.146Z</time>
      </trkpt>
      <trkpt lat="45.2371" lon="4.62097">
        <ele>441.253106</ele>
        <time>2026-06-23T10:42:15.149Z</time>
      </trkpt>
      <trkpt lat="45.23706" lon="4.62083">
        <ele>441.550209</ele>
        <time>2026-06-23T10:42:17.149Z</time>
      </trkpt>
      <trkpt lat="45.23704" lon="4.6207">
        <ele>441.840169</ele>
        <time>2026-06-23T10:42:19.150Z</time>
      </trkpt>
      <trkpt lat="45.23701" lon="4.62052">
        <ele>442.231949</ele>
        <time>2026-06-23T10:42:22.147Z</time>
      </trkpt>
      <trkpt lat="45.23698" lon="4.62039">
        <ele>442.516111</ele>
        <time>2026-06-23T10:42:24.152Z</time>
      </trkpt>
      <trkpt lat="45.23695" lon="4.62026">
        <ele>442.805218</ele>
        <time>2026-06-23T10:42:26.144Z</time>
      </trkpt>
      <trkpt lat="45.23691" lon="4.62008">
        <ele>443.205941</ele>
        <time>2026-06-23T10:42:29.141Z</time>
      </trkpt>
      <trkpt lat="45.23689" lon="4.61995">
        <ele>443.475114</ele>
        <time>2026-06-23T10:42:31.155Z</time>
      </trkpt>
      <trkpt lat="45.23689" lon="4.61981">
        <ele>443.768881</ele>
        <time>2026-06-23T10:42:33.149Z</time>
      </trkpt>
      <trkpt lat="45.23689" lon="4.61967">
        <ele>444.055322</ele>
        <time>2026-06-23T10:42:35.148Z</time>
      </trkpt>
      <trkpt lat="45.23691" lon="4.61953">
        <ele>444.323232</ele>
        <time>2026-06-23T10:42:37.146Z</time>
      </trkpt>
      <trkpt lat="45.23694" lon="4.61941">
        <ele>444.571323</ele>
        <time>2026-06-23T10:42:39.147Z</time>
      </trkpt>
      <trkpt lat="45.237" lon="4.61924">
        <ele>444.925687</ele>
        <time>2026-06-23T10:42:42.151Z</time>
      </trkpt>
      <trkpt lat="45.23705" lon="4.61908">
        <ele>445.260934</ele>
        <time>2026-06-23T10:42:45.160Z</time>
      </trkpt>
      <trkpt lat="45.23706" lon="4.6189">
        <ele>445.608689</ele>
        <time>2026-06-23T10:42:48.153Z</time>
      </trkpt>
      <trkpt lat="45.23703" lon="4.61872">
        <ele>445.956666</ele>
        <time>2026-06-23T10:42:51.149Z</time>
      </trkpt>
      <trkpt lat="45.237" lon="4.61855">
        <ele>446.30002</ele>
        <time>2026-06-23T10:42:54.152Z</time>
      </trkpt>
      <trkpt lat="45.23696" lon="4.61843">
        <ele>446.555642</ele>
        <time>2026-06-23T10:42:56.160Z</time>
      </trkpt>
      <trkpt lat="45.23692" lon="4.61824">
        <ele>446.924378</ele>
        <time>2026-06-23T10:42:59.145Z</time>
      </trkpt>
      <trkpt lat="45.23689" lon="4.61811">
        <ele>447.200141</ele>
        <time>2026-06-23T10:43:01.152Z</time>
      </trkpt>
      <trkpt lat="45.23686" lon="4.61798">
        <ele>447.455763</ele>
        <time>2026-06-23T10:43:03.151Z</time>
      </trkpt>
      <trkpt lat="45.23681" lon="4.61781">
        <ele>447.805475</ele>
        <time>2026-06-23T10:43:06.150Z</time>
      </trkpt>
      <trkpt lat="45.23678" lon="4.61769">
        <ele>448.05023</ele>
        <time>2026-06-23T10:43:08.151Z</time>
      </trkpt>
      <trkpt lat="45.23674" lon="4.61751">
        <ele>448.414509</ele>
        <time>2026-06-23T10:43:11.154Z</time>
      </trkpt>
      <trkpt lat="45.23672" lon="4.61738">
        <ele>448.668861</ele>
        <time>2026-06-23T10:43:13.149Z</time>
      </trkpt>
      <trkpt lat="45.2367" lon="4.61725">
        <ele>448.952449</ele>
        <time>2026-06-23T10:43:15.144Z</time>
      </trkpt>
      <trkpt lat="45.23667" lon="4.61712">
        <ele>449.253312</ele>
        <time>2026-06-23T10:43:17.158Z</time>
      </trkpt>
      <trkpt lat="45.23664" lon="4.617">
        <ele>449.541579</ele>
        <time>2026-06-23T10:43:19.149Z</time>
      </trkpt>
      <trkpt lat="45.23663" lon="4.61687">
        <ele>449.832828</ele>
        <time>2026-06-23T10:43:21.160Z</time>
      </trkpt>
      <trkpt lat="45.23662" lon="4.61673">
        <ele>450.130005</ele>
        <time>2026-06-23T10:43:23.150Z</time>
      </trkpt>
      <trkpt lat="45.23665" lon="4.61657">
        <ele>450.499453</ele>
        <time>2026-06-23T10:43:26.161Z</time>
      </trkpt>
      <trkpt lat="45.23669" lon="4.61639">
        <ele>450.927703</ele>
        <time>2026-06-23T10:43:29.150Z</time>
      </trkpt>
      <trkpt lat="45.23674" lon="4.61621">
        <ele>451.347142</ele>
        <time>2026-06-23T10:43:32.150Z</time>
      </trkpt>
      <trkpt lat="45.23678" lon="4.61603">
        <ele>451.768453</ele>
        <time>2026-06-23T10:43:35.155Z</time>
      </trkpt>
      <trkpt lat="45.2368" lon="4.61589">
        <ele>452.082557</ele>
        <time>2026-06-23T10:43:37.150Z</time>
      </trkpt>
      <trkpt lat="45.23679" lon="4.61576">
        <ele>452.37531</ele>
        <time>2026-06-23T10:43:39.147Z</time>
      </trkpt>
      <trkpt lat="45.23679" lon="4.6156">
        <ele>452.730152</ele>
        <time>2026-06-23T10:43:41.145Z</time>
      </trkpt>
      <trkpt lat="45.23677" lon="4.61544">
        <ele>453.079134</ele>
        <time>2026-06-23T10:43:43.147Z</time>
      </trkpt>
      <trkpt lat="45.23674" lon="4.6153">
        <ele>453.411163</ele>
        <time>2026-06-23T10:43:45.146Z</time>
      </trkpt>
      <trkpt lat="45.23672" lon="4.61513">
        <ele>453.791217</ele>
        <time>2026-06-23T10:43:47.148Z</time>
      </trkpt>
      <trkpt lat="45.2367" lon="4.61497">
        <ele>454.156338</ele>
        <time>2026-06-23T10:43:49.150Z</time>
      </trkpt>
      <trkpt lat="45.23668" lon="4.61481">
        <ele>454.35997</ele>
        <time>2026-06-23T10:43:51.158Z</time>
      </trkpt>
      <trkpt lat="45.23665" lon="4.61465">
        <ele>454.289885</ele>
        <time>2026-06-23T10:43:53.157Z</time>
      </trkpt>
      <trkpt lat="45.23664" lon="4.61447">
        <ele>454.215321</ele>
        <time>2026-06-23T10:43:55.155Z</time>
      </trkpt>
      <trkpt lat="45.23662" lon="4.61429">
        <ele>454.141052</ele>
        <time>2026-06-23T10:43:57.150Z</time>
      </trkpt>
      <trkpt lat="45.23659" lon="4.61412">
        <ele>454.065794</ele>
        <time>2026-06-23T10:43:59.151Z</time>
      </trkpt>
      <trkpt lat="45.23657" lon="4.61393">
        <ele>453.986405</ele>
        <time>2026-06-23T10:44:01.148Z</time>
      </trkpt>
      <trkpt lat="45.23654" lon="4.61374">
        <ele>453.905917</ele>
        <time>2026-06-23T10:44:03.157Z</time>
      </trkpt>
      <trkpt lat="45.23652" lon="4.61355">
        <ele>453.827497</ele>
        <time>2026-06-23T10:44:05.152Z</time>
      </trkpt>
      <trkpt lat="45.23649" lon="4.61337">
        <ele>453.748458</ele>
        <time>2026-06-23T10:44:07.148Z</time>
      </trkpt>
      <trkpt lat="45.23647" lon="4.61318">
        <ele>453.670548</ele>
        <time>2026-06-23T10:44:09.137Z</time>
      </trkpt>
      <trkpt lat="45.23645" lon="4.613">
        <ele>453.593554</ele>
        <time>2026-06-23T10:44:11.157Z</time>
      </trkpt>
      <trkpt lat="45.23642" lon="4.61281">
        <ele>453.514286</ele>
        <time>2026-06-23T10:44:13.149Z</time>
      </trkpt>
      <trkpt lat="45.23639" lon="4.6126">
        <ele>453.426526</ele>
        <time>2026-06-23T10:44:15.122Z</time>
      </trkpt>
      <trkpt lat="45.23636" lon="4.61239">
        <ele>453.335511</ele>
        <time>2026-06-23T10:44:17.145Z</time>
      </trkpt>
      <trkpt lat="45.23634" lon="4.61215">
        <ele>452.982402</ele>
        <time>2026-06-23T10:44:19.146Z</time>
      </trkpt>
      <trkpt lat="45.23631" lon="4.61192">
        <ele>452.591007</ele>
        <time>2026-06-23T10:44:21.161Z</time>
      </trkpt>
      <trkpt lat="45.2363" lon="4.61179">
        <ele>452.371319</ele>
        <time>2026-06-23T10:44:22.151Z</time>
      </trkpt>
      <trkpt lat="45.23627" lon="4.61154">
        <ele>451.964681</ele>
        <time>2026-06-23T10:44:24.147Z</time>
      </trkpt>
      <trkpt lat="45.23624" lon="4.61129">
        <ele>451.545862</ele>
        <time>2026-06-23T10:44:26.148Z</time>
      </trkpt>
      <trkpt lat="45.23621" lon="4.61104">
        <ele>451.117908</ele>
        <time>2026-06-23T10:44:28.148Z</time>
      </trkpt>
      <trkpt lat="45.23619" lon="4.61091">
        <ele>450.903906</ele>
        <time>2026-06-23T10:44:29.147Z</time>
      </trkpt>
      <trkpt lat="45.23616" lon="4.61066">
        <ele>450.492758</ele>
        <time>2026-06-23T10:44:31.144Z</time>
      </trkpt>
      <trkpt lat="45.23613" lon="4.61041">
        <ele>450.072317</ele>
        <time>2026-06-23T10:44:33.149Z</time>
      </trkpt>
      <trkpt lat="45.23612" lon="4.61028">
        <ele>449.855892</ele>
        <time>2026-06-23T10:44:34.144Z</time>
      </trkpt>
      <trkpt lat="45.2361" lon="4.61016">
        <ele>449.643637</ele>
        <time>2026-06-23T10:44:35.143Z</time>
      </trkpt>
      <trkpt lat="45.23607" lon="4.60991">
        <ele>449.224817</ele>
        <time>2026-06-23T10:44:37.145Z</time>
      </trkpt>
      <trkpt lat="45.23606" lon="4.60978">
        <ele>449.046464</ele>
        <time>2026-06-23T10:44:38.139Z</time>
      </trkpt>
      <trkpt lat="45.23604" lon="4.60965">
        <ele>448.901901</ele>
        <time>2026-06-23T10:44:39.147Z</time>
      </trkpt>
      <trkpt lat="45.23602" lon="4.60952">
        <ele>448.761284</ele>
        <time>2026-06-23T10:44:40.151Z</time>
      </trkpt>
      <trkpt lat="45.23598" lon="4.60927">
        <ele>448.483966</ele>
        <time>2026-06-23T10:44:42.152Z</time>
      </trkpt>
      <trkpt lat="45.23597" lon="4.60914">
        <ele>448.342049</ele>
        <time>2026-06-23T10:44:43.144Z</time>
      </trkpt>
      <trkpt lat="45.23595" lon="4.60901">
        <ele>448.200132</ele>
        <time>2026-06-23T10:44:44.148Z</time>
      </trkpt>
      <trkpt lat="45.23592" lon="4.60876">
        <ele>447.929866</ele>
        <time>2026-06-23T10:44:46.146Z</time>
      </trkpt>
      <trkpt lat="45.23588" lon="4.60852">
        <ele>447.66696</ele>
        <time>2026-06-23T10:44:48.148Z</time>
      </trkpt>
      <trkpt lat="45.23584" lon="4.60829">
        <ele>447.41346</ele>
        <time>2026-06-23T10:44:50.150Z</time>
      </trkpt>
      <trkpt lat="45.23581" lon="4.60804">
        <ele>447.134032</ele>
        <time>2026-06-23T10:44:52.143Z</time>
      </trkpt>
      <trkpt lat="45.23579" lon="4.60791">
        <ele>446.990678</ele>
        <time>2026-06-23T10:44:53.143Z</time>
      </trkpt>
      <trkpt lat="45.23576" lon="4.60779">
        <ele>446.851418</ele>
        <time>2026-06-23T10:44:54.149Z</time>
      </trkpt>
      <trkpt lat="45.23574" lon="4.60765">
        <ele>446.702798</ele>
        <time>2026-06-23T10:44:55.149Z</time>
      </trkpt>
      <trkpt lat="45.23571" lon="4.60752">
        <ele>446.554499</ele>
        <time>2026-06-23T10:44:56.156Z</time>
      </trkpt>
      <trkpt lat="45.23567" lon="4.60727">
        <ele>446.420789</ele>
        <time>2026-06-23T10:44:58.145Z</time>
      </trkpt>
      <trkpt lat="45.23562" lon="4.60702">
        <ele>446.626388</ele>
        <time>2026-06-23T10:45:00.119Z</time>
      </trkpt>
      <trkpt lat="45.23557" lon="4.60679">
        <ele>446.821149</ele>
        <time>2026-06-23T10:45:02.152Z</time>
      </trkpt>
      <trkpt lat="45.23555" lon="4.60666">
        <ele>446.925722</ele>
        <time>2026-06-23T10:45:03.155Z</time>
      </trkpt>
      <trkpt lat="45.23551" lon="4.60643">
        <ele>447.122611</ele>
        <time>2026-06-23T10:45:05.153Z</time>
      </trkpt>
      <trkpt lat="45.23548" lon="4.60619">
        <ele>447.31376</ele>
        <time>2026-06-23T10:45:07.145Z</time>
      </trkpt>
      <trkpt lat="45.23543" lon="4.60597">
        <ele>447.496926</ele>
        <time>2026-06-23T10:45:09.135Z</time>
      </trkpt>
      <trkpt lat="45.23539" lon="4.60578">
        <ele>447.658918</ele>
        <time>2026-06-23T10:45:11.155Z</time>
      </trkpt>
      <trkpt lat="45.23536" lon="4.60558">
        <ele>447.82143</ele>
        <time>2026-06-23T10:45:13.148Z</time>
      </trkpt>
      <trkpt lat="45.23534" lon="4.60539">
        <ele>447.978989</ele>
        <time>2026-06-23T10:45:15.148Z</time>
      </trkpt>
      <trkpt lat="45.2353" lon="4.6052">
        <ele>448.135075</ele>
        <time>2026-06-23T10:45:17.150Z</time>
      </trkpt>
      <trkpt lat="45.23527" lon="4.60502">
        <ele>448.285317</ele>
        <time>2026-06-23T10:45:19.151Z</time>
      </trkpt>
      <trkpt lat="45.23523" lon="4.60484">
        <ele>448.434366</ele>
        <time>2026-06-23T10:45:21.150Z</time>
      </trkpt>
      <trkpt lat="45.2352" lon="4.60465">
        <ele>448.581702</ele>
        <time>2026-06-23T10:45:23.145Z</time>
      </trkpt>
      <trkpt lat="45.23516" lon="4.60446">
        <ele>448.724734</ele>
        <time>2026-06-23T10:45:25.141Z</time>
      </trkpt>
      <trkpt lat="45.23511" lon="4.6043">
        <ele>448.855318</ele>
        <time>2026-06-23T10:45:27.150Z</time>
      </trkpt>
      <trkpt lat="45.23506" lon="4.60414">
        <ele>448.987263</ele>
        <time>2026-06-23T10:45:29.146Z</time>
      </trkpt>
      <trkpt lat="45.23498" lon="4.60398">
        <ele>449.122062</ele>
        <time>2026-06-23T10:45:31.155Z</time>
      </trkpt>
      <trkpt lat="45.23491" lon="4.60383">
        <ele>449.261044</ele>
        <time>2026-06-23T10:45:33.148Z</time>
      </trkpt>
      <trkpt lat="45.23482" lon="4.60368">
        <ele>449.399208</ele>
        <time>2026-06-23T10:45:35.150Z</time>
      </trkpt>
      <trkpt lat="45.23475" lon="4.60355">
        <ele>449.52942</ele>
        <time>2026-06-23T10:45:37.147Z</time>
      </trkpt>
      <trkpt lat="45.23466" lon="4.60342">
        <ele>449.658884</ele>
        <time>2026-06-23T10:45:39.155Z</time>
      </trkpt>
      <trkpt lat="45.23458" lon="4.60329">
        <ele>449.788409</ele>
        <time>2026-06-23T10:45:41.156Z</time>
      </trkpt>
      <trkpt lat="45.2345" lon="4.60316">
        <ele>449.915042</ele>
        <time>2026-06-23T10:45:43.149Z</time>
      </trkpt>
      <trkpt lat="45.23442" lon="4.60302">
        <ele>450.043641</ele>
        <time>2026-06-23T10:45:45.159Z</time>
      </trkpt>
      <trkpt lat="45.23435" lon="4.60288">
        <ele>450.170596</ele>
        <time>2026-06-23T10:45:47.144Z</time>
      </trkpt>
      <trkpt lat="45.23426" lon="4.60275">
        <ele>450.291631</ele>
        <time>2026-06-23T10:45:49.153Z</time>
      </trkpt>
      <trkpt lat="45.23418" lon="4.60262">
        <ele>450.282199</ele>
        <time>2026-06-23T10:45:51.146Z</time>
      </trkpt>
      <trkpt lat="45.23408" lon="4.60249">
        <ele>450.27243</ele>
        <time>2026-06-23T10:45:53.143Z</time>
      </trkpt>
      <trkpt lat="45.23397" lon="4.60236">
        <ele>450.261689</ele>
        <time>2026-06-23T10:45:55.156Z</time>
      </trkpt>
      <trkpt lat="45.23386" lon="4.60222">
        <ele>450.250512</ele>
        <time>2026-06-23T10:45:57.156Z</time>
      </trkpt>
      <trkpt lat="45.23374" lon="4.60209">
        <ele>450.239095</ele>
        <time>2026-06-23T10:45:59.148Z</time>
      </trkpt>
      <trkpt lat="45.23362" lon="4.60195">
        <ele>450.22771</ele>
        <time>2026-06-23T10:46:01.155Z</time>
      </trkpt>
      <trkpt lat="45.2335" lon="4.60183">
        <ele>450.216812</ele>
        <time>2026-06-23T10:46:03.149Z</time>
      </trkpt>
      <trkpt lat="45.23339" lon="4.6017">
        <ele>450.206032</ele>
        <time>2026-06-23T10:46:05.148Z</time>
      </trkpt>
      <trkpt lat="45.23327" lon="4.60157">
        <ele>450.195113</ele>
        <time>2026-06-23T10:46:07.155Z</time>
      </trkpt>
      <trkpt lat="45.23316" lon="4.60145">
        <ele>450.18443</ele>
        <time>2026-06-23T10:46:09.153Z</time>
      </trkpt>
      <trkpt lat="45.23304" lon="4.60133">
        <ele>450.173667</ele>
        <time>2026-06-23T10:46:11.149Z</time>
      </trkpt>
      <trkpt lat="45.23294" lon="4.6012">
        <ele>450.163312</ele>
        <time>2026-06-23T10:46:13.155Z</time>
      </trkpt>
      <trkpt lat="45.23283" lon="4.60108">
        <ele>450.299899</ele>
        <time>2026-06-23T10:46:15.149Z</time>
      </trkpt>
      <trkpt lat="45.23272" lon="4.60096">
        <ele>450.599692</ele>
        <time>2026-06-23T10:46:17.148Z</time>
      </trkpt>
      <trkpt lat="45.23262" lon="4.60084">
        <ele>450.890339</ele>
        <time>2026-06-23T10:46:19.152Z</time>
      </trkpt>
      <trkpt lat="45.23252" lon="4.60071">
        <ele>451.176957</ele>
        <time>2026-06-23T10:46:21.151Z</time>
      </trkpt>
      <trkpt lat="45.23243" lon="4.60058">
        <ele>451.461459</ele>
        <time>2026-06-23T10:46:23.148Z</time>
      </trkpt>
      <trkpt lat="45.23234" lon="4.60045">
        <ele>451.734207</ele>
        <time>2026-06-23T10:46:25.150Z</time>
      </trkpt>
      <trkpt lat="45.23226" lon="4.60031">
        <ele>452.017224</ele>
        <time>2026-06-23T10:46:27.153Z</time>
      </trkpt>
      <trkpt lat="45.23217" lon="4.60016">
        <ele>452.304201</ele>
        <time>2026-06-23T10:46:29.148Z</time>
      </trkpt>
      <trkpt lat="45.23208" lon="4.60002">
        <ele>452.595366</ele>
        <time>2026-06-23T10:46:31.148Z</time>
      </trkpt>
      <trkpt lat="45.23198" lon="4.59989">
        <ele>452.880654</ele>
        <time>2026-06-23T10:46:33.144Z</time>
      </trkpt>
      <trkpt lat="45.2319" lon="4.59976">
        <ele>453.149066</ele>
        <time>2026-06-23T10:46:35.146Z</time>
      </trkpt>
      <trkpt lat="45.23181" lon="4.59964">
        <ele>453.410612</ele>
        <time>2026-06-23T10:46:37.145Z</time>
      </trkpt>
      <trkpt lat="45.23172" lon="4.59952">
        <ele>453.672314</ele>
        <time>2026-06-23T10:46:39.150Z</time>
      </trkpt>
      <trkpt lat="45.23164" lon="4.59939">
        <ele>453.939343</ele>
        <time>2026-06-23T10:46:41.144Z</time>
      </trkpt>
      <trkpt lat="45.23156" lon="4.59926">
        <ele>454.140415</ele>
        <time>2026-06-23T10:46:43.151Z</time>
      </trkpt>
      <trkpt lat="45.23148" lon="4.59913">
        <ele>454.302876</ele>
        <time>2026-06-23T10:46:45.144Z</time>
      </trkpt>
      <trkpt lat="45.2314" lon="4.59901">
        <ele>454.458134</ele>
        <time>2026-06-23T10:46:47.148Z</time>
      </trkpt>
      <trkpt lat="45.23133" lon="4.5989">
        <ele>454.60006</ele>
        <time>2026-06-23T10:46:49.143Z</time>
      </trkpt>
      <trkpt lat="45.23126" lon="4.59878">
        <ele>454.747627</ele>
        <time>2026-06-23T10:46:51.143Z</time>
      </trkpt>
      <trkpt lat="45.23119" lon="4.59866">
        <ele>454.901109</ele>
        <time>2026-06-23T10:46:53.156Z</time>
      </trkpt>
      <trkpt lat="45.23111" lon="4.59852">
        <ele>455.063629</ele>
        <time>2026-06-23T10:46:55.150Z</time>
      </trkpt>
      <trkpt lat="45.23105" lon="4.59836">
        <ele>455.231197</ele>
        <time>2026-06-23T10:46:57.149Z</time>
      </trkpt>
      <trkpt lat="45.231" lon="4.59821">
        <ele>455.394643</ele>
        <time>2026-06-23T10:46:59.147Z</time>
      </trkpt>
      <trkpt lat="45.23094" lon="4.59804">
        <ele>455.573184</ele>
        <time>2026-06-23T10:47:01.150Z</time>
      </trkpt>
      <trkpt lat="45.23089" lon="4.59788">
        <ele>455.73756</ele>
        <time>2026-06-23T10:47:03.158Z</time>
      </trkpt>
      <trkpt lat="45.23085" lon="4.59771">
        <ele>455.905786</ele>
        <time>2026-06-23T10:47:05.156Z</time>
      </trkpt>
      <trkpt lat="45.23081" lon="4.59757">
        <ele>456.052974</ele>
        <time>2026-06-23T10:47:07.148Z</time>
      </trkpt>
      <trkpt lat="45.23076" lon="4.59743">
        <ele>456.198429</ele>
        <time>2026-06-23T10:47:09.149Z</time>
      </trkpt>
      <trkpt lat="45.23072" lon="4.59728">
        <ele>456.350027</ele>
        <time>2026-06-23T10:47:11.164Z</time>
      </trkpt>
      <trkpt lat="45.23069" lon="4.59713">
        <ele>456.540566</ele>
        <time>2026-06-23T10:47:13.146Z</time>
      </trkpt>
      <trkpt lat="45.23066" lon="4.59699">
        <ele>456.847059</ele>
        <time>2026-06-23T10:47:15.149Z</time>
      </trkpt>
      <trkpt lat="45.23061" lon="4.59684">
        <ele>457.157813</ele>
        <time>2026-06-23T10:47:17.116Z</time>
      </trkpt>
      <trkpt lat="45.23057" lon="4.59669">
        <ele>457.472978</ele>
        <time>2026-06-23T10:47:19.144Z</time>
      </trkpt>
      <trkpt lat="45.23054" lon="4.59655">
        <ele>457.77396</ele>
        <time>2026-06-23T10:47:21.151Z</time>
      </trkpt>
      <trkpt lat="45.23051" lon="4.59639">
        <ele>458.091889</ele>
        <time>2026-06-23T10:47:23.145Z</time>
      </trkpt>
      <trkpt lat="45.23048" lon="4.59624">
        <ele>458.399374</ele>
        <time>2026-06-23T10:47:25.144Z</time>
      </trkpt>
      <trkpt lat="45.23044" lon="4.59611">
        <ele>458.690203</ele>
        <time>2026-06-23T10:47:27.149Z</time>
      </trkpt>
      <trkpt lat="45.2304" lon="4.59598">
        <ele>458.970315</ele>
        <time>2026-06-23T10:47:29.156Z</time>
      </trkpt>
      <trkpt lat="45.23034" lon="4.59584">
        <ele>459.290409</ele>
        <time>2026-06-23T10:47:31.146Z</time>
      </trkpt>
      <trkpt lat="45.23029" lon="4.5957">
        <ele>459.597806</ele>
        <time>2026-06-23T10:47:33.145Z</time>
      </trkpt>
      <trkpt lat="45.23023" lon="4.59558">
        <ele>459.886908</ele>
        <time>2026-06-23T10:47:35.158Z</time>
      </trkpt>
      <trkpt lat="45.23018" lon="4.59546">
        <ele>460.155778</ele>
        <time>2026-06-23T10:47:37.132Z</time>
      </trkpt>
      <trkpt lat="45.23014" lon="4.59534">
        <ele>460.424934</ele>
        <time>2026-06-23T10:47:39.155Z</time>
      </trkpt>
      <trkpt lat="45.23009" lon="4.59523">
        <ele>460.680806</ele>
        <time>2026-06-23T10:47:41.166Z</time>
      </trkpt>
      <trkpt lat="45.23004" lon="4.59506">
        <ele>461.049715</ele>
        <time>2026-06-23T10:47:44.147Z</time>
      </trkpt>
      <trkpt lat="45.23" lon="4.59491">
        <ele>461.374064</ele>
        <time>2026-06-23T10:47:47.151Z</time>
      </trkpt>
      <trkpt lat="45.22993" lon="4.59477">
        <ele>461.732661</ele>
        <time>2026-06-23T10:47:50.158Z</time>
      </trkpt>
      <trkpt lat="45.22988" lon="4.59464">
        <ele>462.074854</ele>
        <time>2026-06-23T10:47:53.149Z</time>
      </trkpt>
      <trkpt lat="45.22982" lon="4.59453">
        <ele>462.409001</ele>
        <time>2026-06-23T10:47:56.149Z</time>
      </trkpt>
      <trkpt lat="45.22975" lon="4.59439">
        <ele>462.786761</ele>
        <time>2026-06-23T10:47:59.149Z</time>
      </trkpt>
      <trkpt lat="45.22969" lon="4.59427">
        <ele>463.13809</ele>
        <time>2026-06-23T10:48:02.140Z</time>
      </trkpt>
      <trkpt lat="45.22961" lon="4.59415">
        <ele>463.530232</ele>
        <time>2026-06-23T10:48:05.149Z</time>
      </trkpt>
      <trkpt lat="45.22954" lon="4.59401">
        <ele>463.93455</ele>
        <time>2026-06-23T10:48:08.156Z</time>
      </trkpt>
      <trkpt lat="45.22946" lon="4.59386">
        <ele>464.344673</ele>
        <time>2026-06-23T10:48:11.152Z</time>
      </trkpt>
      <trkpt lat="45.22941" lon="4.59376">
        <ele>464.641086</ele>
        <time>2026-06-23T10:48:13.144Z</time>
      </trkpt>
      <trkpt lat="45.22936" lon="4.59366">
        <ele>464.939127</ele>
        <time>2026-06-23T10:48:15.152Z</time>
      </trkpt>
      <trkpt lat="45.22928" lon="4.59351">
        <ele>465.368607</ele>
        <time>2026-06-23T10:48:18.151Z</time>
      </trkpt>
      <trkpt lat="45.22918" lon="4.59337">
        <ele>465.819972</ele>
        <time>2026-06-23T10:48:21.156Z</time>
      </trkpt>
      <trkpt lat="45.22908" lon="4.59325">
        <ele>466.259176</ele>
        <time>2026-06-23T10:48:24.146Z</time>
      </trkpt>
      <trkpt lat="45.22898" lon="4.59314">
        <ele>466.689338</ele>
        <time>2026-06-23T10:48:27.155Z</time>
      </trkpt>
      <trkpt lat="45.22888" lon="4.59304">
        <ele>467.08858</ele>
        <time>2026-06-23T10:48:30.151Z</time>
      </trkpt>
      <trkpt lat="45.22878" lon="4.59293">
        <ele>467.491466</ele>
        <time>2026-06-23T10:48:33.144Z</time>
      </trkpt>
      <trkpt lat="45.22867" lon="4.59282">
        <ele>467.900122</ele>
        <time>2026-06-23T10:48:36.162Z</time>
      </trkpt>
      <trkpt lat="45.22856" lon="4.59271">
        <ele>468.309805</ele>
        <time>2026-06-23T10:48:39.149Z</time>
      </trkpt>
      <trkpt lat="45.22845" lon="4.5926">
        <ele>468.72829</ele>
        <time>2026-06-23T10:48:42.148Z</time>
      </trkpt>
      <trkpt lat="45.22835" lon="4.59249">
        <ele>469.111569</ele>
        <time>2026-06-23T10:48:45.148Z</time>
      </trkpt>
      <trkpt lat="45.22827" lon="4.59241">
        <ele>469.436981</ele>
        <time>2026-06-23T10:48:48.156Z</time>
      </trkpt>
      <trkpt lat="45.22817" lon="4.59232">
        <ele>469.793511</ele>
        <time>2026-06-23T10:48:51.147Z</time>
      </trkpt>
      <trkpt lat="45.22808" lon="4.59223">
        <ele>470.136537</ele>
        <time>2026-06-23T10:48:54.156Z</time>
      </trkpt>
      <trkpt lat="45.22799" lon="4.59213">
        <ele>470.489598</ele>
        <time>2026-06-23T10:48:57.147Z</time>
      </trkpt>
      <trkpt lat="45.2279" lon="4.59203">
        <ele>470.832175</ele>
        <time>2026-06-23T10:49:00.150Z</time>
      </trkpt>
      <trkpt lat="45.2278" lon="4.59195">
        <ele>471.182144</ele>
        <time>2026-06-23T10:49:03.148Z</time>
      </trkpt>
      <trkpt lat="45.22769" lon="4.59188">
        <ele>471.56036</ele>
        <time>2026-06-23T10:49:06.150Z</time>
      </trkpt>
      <trkpt lat="45.22761" lon="4.59181">
        <ele>471.839805</ele>
        <time>2026-06-23T10:49:08.148Z</time>
      </trkpt>
      <trkpt lat="45.22753" lon="4.59174">
        <ele>472.130901</ele>
        <time>2026-06-23T10:49:10.150Z</time>
      </trkpt>
      <trkpt lat="45.22742" lon="4.59164">
        <ele>472.547311</ele>
        <time>2026-06-23T10:49:13.153Z</time>
      </trkpt>
      <trkpt lat="45.22734" lon="4.59156">
        <ele>472.841469</ele>
        <time>2026-06-23T10:49:15.158Z</time>
      </trkpt>
      <trkpt lat="45.22728" lon="4.59147">
        <ele>473.114248</ele>
        <time>2026-06-23T10:49:17.144Z</time>
      </trkpt>
      <trkpt lat="45.22721" lon="4.59138">
        <ele>473.40474</ele>
        <time>2026-06-23T10:49:19.148Z</time>
      </trkpt>
      <trkpt lat="45.22714" lon="4.59129">
        <ele>473.681634</ele>
        <time>2026-06-23T10:49:21.149Z</time>
      </trkpt>
      <trkpt lat="45.22707" lon="4.5912">
        <ele>473.960512</ele>
        <time>2026-06-23T10:49:23.146Z</time>
      </trkpt>
      <trkpt lat="45.227" lon="4.59112">
        <ele>474.241415</ele>
        <time>2026-06-23T10:49:25.115Z</time>
      </trkpt>
      <trkpt lat="45.22693" lon="4.59103">
        <ele>474.524653</ele>
        <time>2026-06-23T10:49:27.129Z</time>
      </trkpt>
      <trkpt lat="45.22686" lon="4.59093">
        <ele>474.816269</ele>
        <time>2026-06-23T10:49:29.132Z</time>
      </trkpt>
      <trkpt lat="45.22679" lon="4.59084">
        <ele>475.090074</ele>
        <time>2026-06-23T10:49:31.132Z</time>
      </trkpt>
      <trkpt lat="45.22673" lon="4.59074">
        <ele>475.360134</ele>
        <time>2026-06-23T10:49:33.133Z</time>
      </trkpt>
      <trkpt lat="45.22664" lon="4.59061">
        <ele>475.767855</ele>
        <time>2026-06-23T10:49:36.135Z</time>
      </trkpt>
      <trkpt lat="45.22658" lon="4.59051">
        <ele>476.039666</ele>
        <time>2026-06-23T10:49:38.135Z</time>
      </trkpt>
      <trkpt lat="45.22649" lon="4.59037">
        <ele>476.436138</ele>
        <time>2026-06-23T10:49:41.153Z</time>
      </trkpt>
      <trkpt lat="45.22641" lon="4.59022">
        <ele>476.833798</ele>
        <time>2026-06-23T10:49:44.145Z</time>
      </trkpt>
      <trkpt lat="45.22634" lon="4.59014">
        <ele>477.107388</ele>
        <time>2026-06-23T10:49:46.140Z</time>
      </trkpt>
      <trkpt lat="45.22623" lon="4.59003">
        <ele>477.491638</ele>
        <time>2026-06-23T10:49:49.147Z</time>
      </trkpt>
      <trkpt lat="45.22613" lon="4.58993">
        <ele>477.875779</ele>
        <time>2026-06-23T10:49:52.145Z</time>
      </trkpt>
      <trkpt lat="45.22603" lon="4.58985">
        <ele>478.207122</ele>
        <time>2026-06-23T10:49:55.158Z</time>
      </trkpt>
      <trkpt lat="45.22592" lon="4.58979">
        <ele>478.54321</ele>
        <time>2026-06-23T10:49:58.154Z</time>
      </trkpt>
      <trkpt lat="45.22581" lon="4.58975">
        <ele>478.835702</ele>
        <time>2026-06-23T10:50:01.158Z</time>
      </trkpt>
      <trkpt lat="45.22571" lon="4.58968">
        <ele>479.131957</ele>
        <time>2026-06-23T10:50:04.147Z</time>
      </trkpt>
      <trkpt lat="45.2256" lon="4.58959">
        <ele>479.449972</ele>
        <time>2026-06-23T10:50:07.155Z</time>
      </trkpt>
      <trkpt lat="45.22551" lon="4.58948">
        <ele>479.755869</ele>
        <time>2026-06-23T10:50:10.153Z</time>
      </trkpt>
      <trkpt lat="45.22539" lon="4.58944">
        <ele>480.062034</ele>
        <time>2026-06-23T10:50:13.160Z</time>
      </trkpt>
      <trkpt lat="45.22527" lon="4.58936">
        <ele>480.398741</ele>
        <time>2026-06-23T10:50:16.151Z</time>
      </trkpt>
      <trkpt lat="45.22519" lon="4.58931">
        <ele>480.637451</ele>
        <time>2026-06-23T10:50:18.148Z</time>
      </trkpt>
      <trkpt lat="45.2251" lon="4.58926">
        <ele>480.892532</ele>
        <time>2026-06-23T10:50:20.152Z</time>
      </trkpt>
      <trkpt lat="45.225" lon="4.58921">
        <ele>481.147243</ele>
        <time>2026-06-23T10:50:22.149Z</time>
      </trkpt>
      <trkpt lat="45.22491" lon="4.58917">
        <ele>481.402296</ele>
        <time>2026-06-23T10:50:24.144Z</time>
      </trkpt>
      <trkpt lat="45.22482" lon="4.58912">
        <ele>481.655976</ele>
        <time>2026-06-23T10:50:26.163Z</time>
      </trkpt>
      <trkpt lat="45.22473" lon="4.58905">
        <ele>481.923306</ele>
        <time>2026-06-23T10:50:28.153Z</time>
      </trkpt>
      <trkpt lat="45.22463" lon="4.58898">
        <ele>482.196228</ele>
        <time>2026-06-23T10:50:30.127Z</time>
      </trkpt>
      <trkpt lat="45.22454" lon="4.58891">
        <ele>482.465801</ele>
        <time>2026-06-23T10:50:32.147Z</time>
      </trkpt>
      <trkpt lat="45.22445" lon="4.58884">
        <ele>482.74091</ele>
        <time>2026-06-23T10:50:34.152Z</time>
      </trkpt>
      <trkpt lat="45.22436" lon="4.58877">
        <ele>482.996187</ele>
        <time>2026-06-23T10:50:36.156Z</time>
      </trkpt>
      <trkpt lat="45.22429" lon="4.58868">
        <ele>482.958988</ele>
        <time>2026-06-23T10:50:38.150Z</time>
      </trkpt>
      <trkpt lat="45.22422" lon="4.58856">
        <ele>482.911461</ele>
        <time>2026-06-23T10:50:40.153Z</time>
      </trkpt>
      <trkpt lat="45.22416" lon="4.58843">
        <ele>482.862304</ele>
        <time>2026-06-23T10:50:42.144Z</time>
      </trkpt>
      <trkpt lat="45.22411" lon="4.58831">
        <ele>482.817897</ele>
        <time>2026-06-23T10:50:44.147Z</time>
      </trkpt>
      <trkpt lat="45.22407" lon="4.58816">
        <ele>482.769087</ele>
        <time>2026-06-23T10:50:46.152Z</time>
      </trkpt>
      <trkpt lat="45.22402" lon="4.58803">
        <ele>482.72192</ele>
        <time>2026-06-23T10:50:48.154Z</time>
      </trkpt>
      <trkpt lat="45.22396" lon="4.58791">
        <ele>482.676439</ele>
        <time>2026-06-23T10:50:50.151Z</time>
      </trkpt>
      <trkpt lat="45.22391" lon="4.58781">
        <ele>482.636349</ele>
        <time>2026-06-23T10:50:52.146Z</time>
      </trkpt>
      <trkpt lat="45.22387" lon="4.58769">
        <ele>482.59406</ele>
        <time>2026-06-23T10:50:54.145Z</time>
      </trkpt>
      <trkpt lat="45.22382" lon="4.58757">
        <ele>482.553317</ele>
        <time>2026-06-23T10:50:56.153Z</time>
      </trkpt>
      <trkpt lat="45.22379" lon="4.58742">
        <ele>482.503799</ele>
        <time>2026-06-23T10:50:58.150Z</time>
      </trkpt>
      <trkpt lat="45.22374" lon="4.58731">
        <ele>482.46233</ele>
        <time>2026-06-23T10:51:00.160Z</time>
      </trkpt>
      <trkpt lat="45.22368" lon="4.58714">
        <ele>482.403006</ele>
        <time>2026-06-23T10:51:03.167Z</time>
      </trkpt>
      <trkpt lat="45.22362" lon="4.58698">
        <ele>482.343196</ele>
        <time>2026-06-23T10:51:06.148Z</time>
      </trkpt>
      <trkpt lat="45.22358" lon="4.58686">
        <ele>482.302892</ele>
        <time>2026-06-23T10:51:08.151Z</time>
      </trkpt>
      <trkpt lat="45.22351" lon="4.58669">
        <ele>482.241829</ele>
        <time>2026-06-23T10:51:11.113Z</time>
      </trkpt>
      <trkpt lat="45.22346" lon="4.58657">
        <ele>482.204284</ele>
        <time>2026-06-23T10:51:13.145Z</time>
      </trkpt>
      <trkpt lat="45.2234" lon="4.58647">
        <ele>482.405399</ele>
        <time>2026-06-23T10:51:15.127Z</time>
      </trkpt>
      <trkpt lat="45.22333" lon="4.58636">
        <ele>482.608017</ele>
        <time>2026-06-23T10:51:17.123Z</time>
      </trkpt>
      <trkpt lat="45.22326" lon="4.58626">
        <ele>482.821798</ele>
        <time>2026-06-23T10:51:19.129Z</time>
      </trkpt>
      <trkpt lat="45.22318" lon="4.58615">
        <ele>483.042271</ele>
        <time>2026-06-23T10:51:21.154Z</time>
      </trkpt>
      <trkpt lat="45.2231" lon="4.58606">
        <ele>483.257606</ele>
        <time>2026-06-23T10:51:23.144Z</time>
      </trkpt>
      <trkpt lat="45.22302" lon="4.58597">
        <ele>483.466438</ele>
        <time>2026-06-23T10:51:25.117Z</time>
      </trkpt>
      <trkpt lat="45.22294" lon="4.58589">
        <ele>483.678574</ele>
        <time>2026-06-23T10:51:27.148Z</time>
      </trkpt>
      <trkpt lat="45.22285" lon="4.5858">
        <ele>483.903477</ele>
        <time>2026-06-23T10:51:29.145Z</time>
      </trkpt>
      <trkpt lat="45.22276" lon="4.58571">
        <ele>484.134983</ele>
        <time>2026-06-23T10:51:31.143Z</time>
      </trkpt>
      <trkpt lat="45.22266" lon="4.58561">
        <ele>484.37333</ele>
        <time>2026-06-23T10:51:33.147Z</time>
      </trkpt>
      <trkpt lat="45.22257" lon="4.58552">
        <ele>484.604832</ele>
        <time>2026-06-23T10:51:35.143Z</time>
      </trkpt>
      <trkpt lat="45.22248" lon="4.5854">
        <ele>484.864785</ele>
        <time>2026-06-23T10:51:37.149Z</time>
      </trkpt>
      <trkpt lat="45.22239" lon="4.58529">
        <ele>485.118406</ele>
        <time>2026-06-23T10:51:39.109Z</time>
      </trkpt>
      <trkpt lat="45.22229" lon="4.58518">
        <ele>485.366982</ele>
        <time>2026-06-23T10:51:41.125Z</time>
      </trkpt>
      <trkpt lat="45.2222" lon="4.58507">
        <ele>485.619718</ele>
        <time>2026-06-23T10:51:43.144Z</time>
      </trkpt>
      <trkpt lat="45.22211" lon="4.58496">
        <ele>485.869717</ele>
        <time>2026-06-23T10:51:45.178Z</time>
      </trkpt>
      <trkpt lat="45.22202" lon="4.58483">
        <ele>486.153137</ele>
        <time>2026-06-23T10:51:47.141Z</time>
      </trkpt>
      <trkpt lat="45.22194" lon="4.58471">
        <ele>486.422594</ele>
        <time>2026-06-23T10:51:49.152Z</time>
      </trkpt>
      <trkpt lat="45.22186" lon="4.58458">
        <ele>486.696433</ele>
        <time>2026-06-23T10:51:51.143Z</time>
      </trkpt>
      <trkpt lat="45.22179" lon="4.58446">
        <ele>486.960963</ele>
        <time>2026-06-23T10:51:53.142Z</time>
      </trkpt>
      <trkpt lat="45.22171" lon="4.58434">
        <ele>487.217845</ele>
        <time>2026-06-23T10:51:55.151Z</time>
      </trkpt>
      <trkpt lat="45.22164" lon="4.58422">
        <ele>487.479282</ele>
        <time>2026-06-23T10:51:57.145Z</time>
      </trkpt>
      <trkpt lat="45.22157" lon="4.58411">
        <ele>487.728487</ele>
        <time>2026-06-23T10:51:59.148Z</time>
      </trkpt>
      <trkpt lat="45.22149" lon="4.58399">
        <ele>487.990855</ele>
        <time>2026-06-23T10:52:01.129Z</time>
      </trkpt>
      <trkpt lat="45.22142" lon="4.58389">
        <ele>488.228386</ele>
        <time>2026-06-23T10:52:03.148Z</time>
      </trkpt>
      <trkpt lat="45.22133" lon="4.58378">
        <ele>488.492569</ele>
        <time>2026-06-23T10:52:05.155Z</time>
      </trkpt>
      <trkpt lat="45.22125" lon="4.58367">
        <ele>488.745782</ele>
        <time>2026-06-23T10:52:07.149Z</time>
      </trkpt>
      <trkpt lat="45.22117" lon="4.58358">
        <ele>488.997323</ele>
        <time>2026-06-23T10:52:09.147Z</time>
      </trkpt>
      <trkpt lat="45.22109" lon="4.58348">
        <ele>489.241784</ele>
        <time>2026-06-23T10:52:11.152Z</time>
      </trkpt>
      <trkpt lat="45.22101" lon="4.58339">
        <ele>489.478557</ele>
        <time>2026-06-23T10:52:13.132Z</time>
      </trkpt>
      <trkpt lat="45.22092" lon="4.58332">
        <ele>489.71154</ele>
        <time>2026-06-23T10:52:15.153Z</time>
      </trkpt>
      <trkpt lat="45.22082" lon="4.58325">
        <ele>489.959169</ele>
        <time>2026-06-23T10:52:17.149Z</time>
      </trkpt>
      <trkpt lat="45.22073" lon="4.58318">
        <ele>490.276938</ele>
        <time>2026-06-23T10:52:19.127Z</time>
      </trkpt>
      <trkpt lat="45.22065" lon="4.58311">
        <ele>490.636373</ele>
        <time>2026-06-23T10:52:21.158Z</time>
      </trkpt>
      <trkpt lat="45.22055" lon="4.58303">
        <ele>491.061711</ele>
        <time>2026-06-23T10:52:23.128Z</time>
      </trkpt>
      <trkpt lat="45.22046" lon="4.58296">
        <ele>491.47114</ele>
        <time>2026-06-23T10:52:25.143Z</time>
      </trkpt>
      <trkpt lat="45.22038" lon="4.58289">
        <ele>491.837072</ele>
        <time>2026-06-23T10:52:27.159Z</time>
      </trkpt>
      <trkpt lat="45.22029" lon="4.58281">
        <ele>492.226677</ele>
        <time>2026-06-23T10:52:29.142Z</time>
      </trkpt>
      <trkpt lat="45.22019" lon="4.58274">
        <ele>492.637409</ele>
        <time>2026-06-23T10:52:31.131Z</time>
      </trkpt>
      <trkpt lat="45.22011" lon="4.58266">
        <ele>493.019178</ele>
        <time>2026-06-23T10:52:33.139Z</time>
      </trkpt>
      <trkpt lat="45.21999" lon="4.58255">
        <ele>493.543837</ele>
        <time>2026-06-23T10:52:36.147Z</time>
      </trkpt>
      <trkpt lat="45.21991" lon="4.58248">
        <ele>493.929228</ele>
        <time>2026-06-23T10:52:38.129Z</time>
      </trkpt>
      <trkpt lat="45.21982" lon="4.5824">
        <ele>494.328911</ele>
        <time>2026-06-23T10:52:40.122Z</time>
      </trkpt>
      <trkpt lat="45.21973" lon="4.58232">
        <ele>494.706853</ele>
        <time>2026-06-23T10:52:42.142Z</time>
      </trkpt>
      <trkpt lat="45.21964" lon="4.58226">
        <ele>495.098613</ele>
        <time>2026-06-23T10:52:44.153Z</time>
      </trkpt>
      <trkpt lat="45.21954" lon="4.58217">
        <ele>495.531519</ele>
        <time>2026-06-23T10:52:46.143Z</time>
      </trkpt>
      <trkpt lat="45.21945" lon="4.58209">
        <ele>495.960031</ele>
        <time>2026-06-23T10:52:48.132Z</time>
      </trkpt>
      <trkpt lat="45.21937" lon="4.582">
        <ele>496.345026</ele>
        <time>2026-06-23T10:52:50.147Z</time>
      </trkpt>
      <trkpt lat="45.21929" lon="4.5819">
        <ele>496.746217</ele>
        <time>2026-06-23T10:52:52.159Z</time>
      </trkpt>
      <trkpt lat="45.21921" lon="4.58182">
        <ele>497.039911</ele>
        <time>2026-06-23T10:52:54.143Z</time>
      </trkpt>
      <trkpt lat="45.21912" lon="4.58174">
        <ele>497.300085</ele>
        <time>2026-06-23T10:52:56.162Z</time>
      </trkpt>
      <trkpt lat="45.21903" lon="4.58166">
        <ele>497.551885</ele>
        <time>2026-06-23T10:52:58.142Z</time>
      </trkpt>
      <trkpt lat="45.21894" lon="4.58159">
        <ele>497.803372</ele>
        <time>2026-06-23T10:53:00.145Z</time>
      </trkpt>
      <trkpt lat="45.21886" lon="4.58151">
        <ele>498.036385</ele>
        <time>2026-06-23T10:53:02.145Z</time>
      </trkpt>
      <trkpt lat="45.21877" lon="4.58145">
        <ele>498.28891</ele>
        <time>2026-06-23T10:53:04.153Z</time>
      </trkpt>
      <trkpt lat="45.21867" lon="4.58139">
        <ele>498.54951</ele>
        <time>2026-06-23T10:53:06.148Z</time>
      </trkpt>
      <trkpt lat="45.21858" lon="4.58133">
        <ele>498.806733</ele>
        <time>2026-06-23T10:53:08.152Z</time>
      </trkpt>
      <trkpt lat="45.21848" lon="4.58129">
        <ele>499.045153</ele>
        <time>2026-06-23T10:53:10.145Z</time>
      </trkpt>
      <trkpt lat="45.21838" lon="4.58125">
        <ele>499.301164</ele>
        <time>2026-06-23T10:53:12.146Z</time>
      </trkpt>
      <trkpt lat="45.21828" lon="4.58121">
        <ele>499.554331</ele>
        <time>2026-06-23T10:53:14.147Z</time>
      </trkpt>
      <trkpt lat="45.21819" lon="4.58116">
        <ele>499.797991</ele>
        <time>2026-06-23T10:53:16.156Z</time>
      </trkpt>
      <trkpt lat="45.21807" lon="4.5811">
        <ele>500.110595</ele>
        <time>2026-06-23T10:53:19.161Z</time>
      </trkpt>
      <trkpt lat="45.21795" lon="4.58102">
        <ele>500.443543</ele>
        <time>2026-06-23T10:53:22.123Z</time>
      </trkpt>
      <trkpt lat="45.21785" lon="4.58095">
        <ele>500.703482</ele>
        <time>2026-06-23T10:53:24.129Z</time>
      </trkpt>
      <trkpt lat="45.21777" lon="4.58086">
        <ele>500.953583</ele>
        <time>2026-06-23T10:53:26.153Z</time>
      </trkpt>
      <trkpt lat="45.2177" lon="4.58075">
        <ele>501.205762</ele>
        <time>2026-06-23T10:53:28.147Z</time>
      </trkpt>
      <trkpt lat="45.21763" lon="4.58064">
        <ele>501.425494</ele>
        <time>2026-06-23T10:53:30.149Z</time>
      </trkpt>
      <trkpt lat="45.21756" lon="4.58055">
        <ele>501.621819</ele>
        <time>2026-06-23T10:53:32.155Z</time>
      </trkpt>
      <trkpt lat="45.2175" lon="4.58045">
        <ele>501.804994</ele>
        <time>2026-06-23T10:53:34.158Z</time>
      </trkpt>
      <trkpt lat="45.21743" lon="4.58035">
        <ele>501.990163</ele>
        <time>2026-06-23T10:53:36.149Z</time>
      </trkpt>
      <trkpt lat="45.21737" lon="4.58026">
        <ele>502.173666</ele>
        <time>2026-06-23T10:53:38.147Z</time>
      </trkpt>
      <trkpt lat="45.21729" lon="4.58017">
        <ele>502.36664</ele>
        <time>2026-06-23T10:53:40.135Z</time>
      </trkpt>
      <trkpt lat="45.21721" lon="4.58009">
        <ele>502.554774</ele>
        <time>2026-06-23T10:53:42.138Z</time>
      </trkpt>
      <trkpt lat="45.21713" lon="4.58002">
        <ele>502.746484</ele>
        <time>2026-06-23T10:53:44.129Z</time>
      </trkpt>
      <trkpt lat="45.21704" lon="4.57996">
        <ele>502.936053</ele>
        <time>2026-06-23T10:53:46.141Z</time>
      </trkpt>
      <trkpt lat="45.21696" lon="4.57989">
        <ele>503.130392</ele>
        <time>2026-06-23T10:53:48.144Z</time>
      </trkpt>
      <trkpt lat="45.21687" lon="4.57983">
        <ele>503.320305</ele>
        <time>2026-06-23T10:53:50.159Z</time>
      </trkpt>
      <trkpt lat="45.21677" lon="4.57977">
        <ele>503.52357</ele>
        <time>2026-06-23T10:53:52.152Z</time>
      </trkpt>
      <trkpt lat="45.21669" lon="4.57972">
        <ele>503.712291</ele>
        <time>2026-06-23T10:53:54.138Z</time>
      </trkpt>
      <trkpt lat="45.2166" lon="4.57966">
        <ele>503.890424</ele>
        <time>2026-06-23T10:53:56.157Z</time>
      </trkpt>
      <trkpt lat="45.21649" lon="4.57956">
        <ele>504.162206</ele>
        <time>2026-06-23T10:53:59.140Z</time>
      </trkpt>
      <trkpt lat="45.21641" lon="4.57949">
        <ele>504.346725</ele>
        <time>2026-06-23T10:54:01.147Z</time>
      </trkpt>
      <trkpt lat="45.21633" lon="4.57941">
        <ele>504.523658</ele>
        <time>2026-06-23T10:54:03.134Z</time>
      </trkpt>
      <trkpt lat="45.21626" lon="4.57933">
        <ele>504.712092</ele>
        <time>2026-06-23T10:54:05.131Z</time>
      </trkpt>
      <trkpt lat="45.21619" lon="4.57923">
        <ele>504.909052</ele>
        <time>2026-06-23T10:54:07.150Z</time>
      </trkpt>
      <trkpt lat="45.21612" lon="4.57915">
        <ele>505.105526</ele>
        <time>2026-06-23T10:54:09.148Z</time>
      </trkpt>
      <trkpt lat="45.21602" lon="4.57903">
        <ele>505.390652</ele>
        <time>2026-06-23T10:54:12.116Z</time>
      </trkpt>
      <trkpt lat="45.21592" lon="4.5789">
        <ele>505.681654</ele>
        <time>2026-06-23T10:54:15.123Z</time>
      </trkpt>
      <trkpt lat="45.21584" lon="4.5788">
        <ele>505.910411</ele>
        <time>2026-06-23T10:54:17.188Z</time>
      </trkpt>
      <trkpt lat="45.21578" lon="4.5787">
        <ele>506.114342</ele>
        <time>2026-06-23T10:54:19.208Z</time>
      </trkpt>
      <trkpt lat="45.21571" lon="4.57862">
        <ele>506.316763</ele>
        <time>2026-06-23T10:54:21.689Z</time>
      </trkpt>
      <trkpt lat="45.21563" lon="4.57852">
        <ele>506.531348</ele>
        <time>2026-06-23T10:54:23.181Z</time>
      </trkpt>
      <trkpt lat="45.21556" lon="4.57843">
        <ele>506.732616</ele>
        <time>2026-06-23T10:54:25.205Z</time>
      </trkpt>
      <trkpt lat="45.21546" lon="4.57831">
        <ele>507.022348</ele>
        <time>2026-06-23T10:54:28.135Z</time>
      </trkpt>
      <trkpt lat="45.21539" lon="4.57822">
        <ele>507.228892</ele>
        <time>2026-06-23T10:54:30.176Z</time>
      </trkpt>
      <trkpt lat="45.21533" lon="4.57812">
        <ele>507.429769</ele>
        <time>2026-06-23T10:54:32.102Z</time>
      </trkpt>
      <trkpt lat="45.21526" lon="4.57803">
        <ele>507.628199</ele>
        <time>2026-06-23T10:54:34.101Z</time>
      </trkpt>
      <trkpt lat="45.21518" lon="4.57796">
        <ele>507.834749</ele>
        <time>2026-06-23T10:54:36.153Z</time>
      </trkpt>
      <trkpt lat="45.2151" lon="4.57788">
        <ele>508.044829</ele>
        <time>2026-06-23T10:54:38.107Z</time>
      </trkpt>
      <trkpt lat="45.21503" lon="4.57778">
        <ele>508.253971</ele>
        <time>2026-06-23T10:54:40.115Z</time>
      </trkpt>
      <trkpt lat="45.21496" lon="4.5777">
        <ele>508.450447</ele>
        <time>2026-06-23T10:54:42.162Z</time>
      </trkpt>
      <trkpt lat="45.21488" lon="4.57762">
        <ele>508.663217</ele>
        <time>2026-06-23T10:54:44.431Z</time>
      </trkpt>
      <trkpt lat="45.2148" lon="4.57755">
        <ele>508.83336</ele>
        <time>2026-06-23T10:54:46.217Z</time>
      </trkpt>
      <trkpt lat="45.21472" lon="4.57747">
        <ele>508.996898</ele>
        <time>2026-06-23T10:54:48.227Z</time>
      </trkpt>
      <trkpt lat="45.21464" lon="4.57739">
        <ele>509.161268</ele>
        <time>2026-06-23T10:54:50.176Z</time>
      </trkpt>
      <trkpt lat="45.21456" lon="4.57729">
        <ele>509.33985</ele>
        <time>2026-06-23T10:54:52.193Z</time>
      </trkpt>
      <trkpt lat="45.21447" lon="4.57718">
        <ele>509.522157</ele>
        <time>2026-06-23T10:54:54.246Z</time>
      </trkpt>
      <trkpt lat="45.2144" lon="4.57708">
        <ele>509.683363</ele>
        <time>2026-06-23T10:54:56.214Z</time>
      </trkpt>
      <trkpt lat="45.21433" lon="4.57699">
        <ele>509.840501</ele>
        <time>2026-06-23T10:54:58.196Z</time>
      </trkpt>
      <trkpt lat="45.21426" lon="4.5769">
        <ele>509.9908</ele>
        <time>2026-06-23T10:55:00.731Z</time>
      </trkpt>
      <trkpt lat="45.21417" lon="4.57677">
        <ele>510.214587</ele>
        <time>2026-06-23T10:55:03.240Z</time>
      </trkpt>
      <trkpt lat="45.2141" lon="4.57666">
        <ele>510.376354</ele>
        <time>2026-06-23T10:55:05.209Z</time>
      </trkpt>
      <trkpt lat="45.21404" lon="4.57656">
        <ele>510.536778</ele>
        <time>2026-06-23T10:55:07.142Z</time>
      </trkpt>
      <trkpt lat="45.21397" lon="4.57645">
        <ele>510.700359</ele>
        <time>2026-06-23T10:55:09.216Z</time>
      </trkpt>
      <trkpt lat="45.21391" lon="4.57632">
        <ele>510.880656</ele>
        <time>2026-06-23T10:55:11.417Z</time>
      </trkpt>
      <trkpt lat="45.21385" lon="4.5762">
        <ele>511.05532</ele>
        <time>2026-06-23T10:55:13.164Z</time>
      </trkpt>
      <trkpt lat="45.21379" lon="4.57606">
        <ele>511.24146</ele>
        <time>2026-06-23T10:55:15.168Z</time>
      </trkpt>
      <trkpt lat="45.21373" lon="4.57592">
        <ele>511.433515</ele>
        <time>2026-06-23T10:55:17.129Z</time>
      </trkpt>
      <trkpt lat="45.21367" lon="4.57577">
        <ele>511.634562</ele>
        <time>2026-06-23T10:55:19.151Z</time>
      </trkpt>
      <trkpt lat="45.21362" lon="4.57562">
        <ele>511.87584</ele>
        <time>2026-06-23T10:55:21.119Z</time>
      </trkpt>
      <trkpt lat="45.21357" lon="4.57548">
        <ele>512.128704</ele>
        <time>2026-06-23T10:55:23.135Z</time>
      </trkpt>
      <trkpt lat="45.21352" lon="4.57534">
        <ele>512.387105</ele>
        <time>2026-06-23T10:55:25.153Z</time>
      </trkpt>
      <trkpt lat="45.21346" lon="4.5752">
        <ele>512.645459</ele>
        <time>2026-06-23T10:55:27.144Z</time>
      </trkpt>
      <trkpt lat="45.2134" lon="4.57506">
        <ele>512.89853</ele>
        <time>2026-06-23T10:55:29.147Z</time>
      </trkpt>
      <trkpt lat="45.21335" lon="4.57494">
        <ele>513.129304</ele>
        <time>2026-06-23T10:55:31.144Z</time>
      </trkpt>
      <trkpt lat="45.21329" lon="4.5748">
        <ele>513.384569</ele>
        <time>2026-06-23T10:55:33.122Z</time>
      </trkpt>
      <trkpt lat="45.21323" lon="4.57467">
        <ele>513.635693</ele>
        <time>2026-06-23T10:55:35.149Z</time>
      </trkpt>
      <trkpt lat="45.21316" lon="4.57455">
        <ele>513.882168</ele>
        <time>2026-06-23T10:55:37.124Z</time>
      </trkpt>
      <trkpt lat="45.2131" lon="4.57443">
        <ele>514.1188</ele>
        <time>2026-06-23T10:55:39.169Z</time>
      </trkpt>
      <trkpt lat="45.21304" lon="4.57431">
        <ele>514.356831</ele>
        <time>2026-06-23T10:55:41.118Z</time>
      </trkpt>
      <trkpt lat="45.21298" lon="4.57419">
        <ele>514.589801</ele>
        <time>2026-06-23T10:55:43.126Z</time>
      </trkpt>
      <trkpt lat="45.21292" lon="4.57408">
        <ele>514.816339</ele>
        <time>2026-06-23T10:55:45.133Z</time>
      </trkpt>
      <trkpt lat="45.21285" lon="4.57397">
        <ele>515.049309</ele>
        <time>2026-06-23T10:55:47.153Z</time>
      </trkpt>
      <trkpt lat="45.21279" lon="4.57385">
        <ele>515.28596</ele>
        <time>2026-06-23T10:55:49.153Z</time>
      </trkpt>
      <trkpt lat="45.21274" lon="4.57373">
        <ele>515.509548</ele>
        <time>2026-06-23T10:55:51.148Z</time>
      </trkpt>
      <trkpt lat="45.21267" lon="4.57363">
        <ele>515.731109</ele>
        <time>2026-06-23T10:55:53.149Z</time>
      </trkpt>
      <trkpt lat="45.21261" lon="4.57352">
        <ele>515.866092</ele>
        <time>2026-06-23T10:55:55.130Z</time>
      </trkpt>
      <trkpt lat="45.21252" lon="4.57338">
        <ele>516.04192</ele>
        <time>2026-06-23T10:55:58.145Z</time>
      </trkpt>
      <trkpt lat="45.21247" lon="4.57327">
        <ele>516.17003</ele>
        <time>2026-06-23T10:56:00.152Z</time>
      </trkpt>
      <trkpt lat="45.21241" lon="4.57316">
        <ele>516.298859</ele>
        <time>2026-06-23T10:56:02.145Z</time>
      </trkpt>
      <trkpt lat="45.21235" lon="4.57305">
        <ele>516.429208</ele>
        <time>2026-06-23T10:56:04.138Z</time>
      </trkpt>
      <trkpt lat="45.2123" lon="4.57293">
        <ele>516.560315</ele>
        <time>2026-06-23T10:56:06.120Z</time>
      </trkpt>
      <trkpt lat="45.21223" lon="4.57283">
        <ele>516.690348</ele>
        <time>2026-06-23T10:56:08.126Z</time>
      </trkpt>
      <trkpt lat="45.21216" lon="4.57271">
        <ele>516.836463</ele>
        <time>2026-06-23T10:56:10.144Z</time>
      </trkpt>
      <trkpt lat="45.21209" lon="4.57259">
        <ele>516.976327</ele>
        <time>2026-06-23T10:56:12.157Z</time>
      </trkpt>
      <trkpt lat="45.21202" lon="4.57248">
        <ele>517.119971</ele>
        <time>2026-06-23T10:56:14.144Z</time>
      </trkpt>
      <trkpt lat="45.21195" lon="4.57236">
        <ele>517.263471</ele>
        <time>2026-06-23T10:56:16.148Z</time>
      </trkpt>
      <trkpt lat="45.21188" lon="4.57224">
        <ele>517.40551</ele>
        <time>2026-06-23T10:56:18.146Z</time>
      </trkpt>
      <trkpt lat="45.21182" lon="4.57212">
        <ele>517.543486</ele>
        <time>2026-06-23T10:56:20.150Z</time>
      </trkpt>
      <trkpt lat="45.21174" lon="4.572">
        <ele>517.697533</ele>
        <time>2026-06-23T10:56:22.150Z</time>
      </trkpt>
      <trkpt lat="45.21167" lon="4.57188">
        <ele>517.839091</ele>
        <time>2026-06-23T10:56:24.148Z</time>
      </trkpt>
      <trkpt lat="45.2116" lon="4.57176">
        <ele>517.989444</ele>
        <time>2026-06-23T10:56:26.150Z</time>
      </trkpt>
      <trkpt lat="45.21154" lon="4.57163">
        <ele>518.135518</ele>
        <time>2026-06-23T10:56:28.145Z</time>
      </trkpt>
      <trkpt lat="45.21146" lon="4.5715">
        <ele>518.179211</ele>
        <time>2026-06-23T10:56:30.149Z</time>
      </trkpt>
      <trkpt lat="45.2114" lon="4.57138">
        <ele>518.217961</ele>
        <time>2026-06-23T10:56:32.154Z</time>
      </trkpt>
      <trkpt lat="45.21133" lon="4.57126">
        <ele>518.258093</ele>
        <time>2026-06-23T10:56:34.147Z</time>
      </trkpt>
      <trkpt lat="45.21125" lon="4.57114">
        <ele>518.299996</ele>
        <time>2026-06-23T10:56:36.145Z</time>
      </trkpt>
      <trkpt lat="45.21118" lon="4.57102">
        <ele>518.339733</ele>
        <time>2026-06-23T10:56:38.147Z</time>
      </trkpt>
      <trkpt lat="45.21111" lon="4.57089">
        <ele>518.381324</ele>
        <time>2026-06-23T10:56:40.121Z</time>
      </trkpt>
      <trkpt lat="45.21104" lon="4.57076">
        <ele>518.422392</ele>
        <time>2026-06-23T10:56:42.149Z</time>
      </trkpt>
      <trkpt lat="45.21098" lon="4.57065">
        <ele>518.461032</ele>
        <time>2026-06-23T10:56:44.144Z</time>
      </trkpt>
      <trkpt lat="45.21091" lon="4.57053">
        <ele>518.499706</ele>
        <time>2026-06-23T10:56:46.150Z</time>
      </trkpt>
      <trkpt lat="45.21084" lon="4.57042">
        <ele>518.536854</ele>
        <time>2026-06-23T10:56:48.154Z</time>
      </trkpt>
      <trkpt lat="45.21078" lon="4.5703">
        <ele>518.576124</ele>
        <time>2026-06-23T10:56:50.154Z</time>
      </trkpt>
      <trkpt lat="45.21071" lon="4.57019">
        <ele>518.614367</ele>
        <time>2026-06-23T10:56:52.147Z</time>
      </trkpt>
      <trkpt lat="45.21065" lon="4.57008">
        <ele>518.649624</ele>
        <time>2026-06-23T10:56:54.148Z</time>
      </trkpt>
      <trkpt lat="45.21059" lon="4.56998">
        <ele>518.684625</ele>
        <time>2026-06-23T10:56:56.145Z</time>
      </trkpt>
      <trkpt lat="45.21052" lon="4.56987">
        <ele>518.721453</ele>
        <time>2026-06-23T10:56:58.149Z</time>
      </trkpt>
      <trkpt lat="45.21046" lon="4.56975">
        <ele>518.758316</ele>
        <time>2026-06-23T10:57:00.149Z</time>
      </trkpt>
      <trkpt lat="45.2104" lon="4.56965">
        <ele>518.828995</ele>
        <time>2026-06-23T10:57:02.147Z</time>
      </trkpt>
      <trkpt lat="45.21034" lon="4.56954">
        <ele>519.300971</ele>
        <time>2026-06-23T10:57:04.143Z</time>
      </trkpt>
      <trkpt lat="45.21028" lon="4.56944">
        <ele>519.774199</ele>
        <time>2026-06-23T10:57:06.145Z</time>
      </trkpt>
      <trkpt lat="45.2102" lon="4.56931">
        <ele>520.38483</ele>
        <time>2026-06-23T10:57:09.151Z</time>
      </trkpt>
      <trkpt lat="45.21012" lon="4.56917">
        <ele>521.057259</ele>
        <time>2026-06-23T10:57:12.146Z</time>
      </trkpt>
      <trkpt lat="45.21006" lon="4.56906">
        <ele>521.523291</ele>
        <time>2026-06-23T10:57:14.139Z</time>
      </trkpt>
      <trkpt lat="45.21" lon="4.56895">
        <ele>522.024222</ele>
        <time>2026-06-23T10:57:16.148Z</time>
      </trkpt>
      <trkpt lat="45.20992" lon="4.56881">
        <ele>522.683923</ele>
        <time>2026-06-23T10:57:19.148Z</time>
      </trkpt>
      <trkpt lat="45.20984" lon="4.56867">
        <ele>523.350655</ele>
        <time>2026-06-23T10:57:22.145Z</time>
      </trkpt>
      <trkpt lat="45.20975" lon="4.56852">
        <ele>524.025444</ele>
        <time>2026-06-23T10:57:25.143Z</time>
      </trkpt>
      <trkpt lat="45.20967" lon="4.56837">
        <ele>524.705524</ele>
        <time>2026-06-23T10:57:28.139Z</time>
      </trkpt>
      <trkpt lat="45.20959" lon="4.56823">
        <ele>525.369195</ele>
        <time>2026-06-23T10:57:31.148Z</time>
      </trkpt>
      <trkpt lat="45.20951" lon="4.56808">
        <ele>526.033995</ele>
        <time>2026-06-23T10:57:34.150Z</time>
      </trkpt>
      <trkpt lat="45.20943" lon="4.56793">
        <ele>526.687479</ele>
        <time>2026-06-23T10:57:37.151Z</time>
      </trkpt>
      <trkpt lat="45.20938" lon="4.56783">
        <ele>527.15946</ele>
        <time>2026-06-23T10:57:39.156Z</time>
      </trkpt>
      <trkpt lat="45.20932" lon="4.56772">
        <ele>527.642627</ele>
        <time>2026-06-23T10:57:41.145Z</time>
      </trkpt>
      <trkpt lat="45.20926" lon="4.56762">
        <ele>528.081359</ele>
        <time>2026-06-23T10:57:43.149Z</time>
      </trkpt>
      <trkpt lat="45.20917" lon="4.56748">
        <ele>528.63602</ele>
        <time>2026-06-23T10:57:46.145Z</time>
      </trkpt>
      <trkpt lat="45.20912" lon="4.56737">
        <ele>529.015429</ele>
        <time>2026-06-23T10:57:48.144Z</time>
      </trkpt>
      <trkpt lat="45.20906" lon="4.56727">
        <ele>529.399533</ele>
        <time>2026-06-23T10:57:50.142Z</time>
      </trkpt>
      <trkpt lat="45.20901" lon="4.56717">
        <ele>529.774541</ele>
        <time>2026-06-23T10:57:52.120Z</time>
      </trkpt>
      <trkpt lat="45.20893" lon="4.56702">
        <ele>530.326835</ele>
        <time>2026-06-23T10:57:55.145Z</time>
      </trkpt>
      <trkpt lat="45.20884" lon="4.56689">
        <ele>530.833954</ele>
        <time>2026-06-23T10:57:58.140Z</time>
      </trkpt>
      <trkpt lat="45.20876" lon="4.56674">
        <ele>531.403656</ele>
        <time>2026-06-23T10:58:01.136Z</time>
      </trkpt>
      <trkpt lat="45.2087" lon="4.56664">
        <ele>531.791971</ele>
        <time>2026-06-23T10:58:03.142Z</time>
      </trkpt>
      <trkpt lat="45.20863" lon="4.5665">
        <ele>532.288749</ele>
        <time>2026-06-23T10:58:06.151Z</time>
      </trkpt>
      <trkpt lat="45.20855" lon="4.56634">
        <ele>532.857531</ele>
        <time>2026-06-23T10:58:09.153Z</time>
      </trkpt>
      <trkpt lat="45.20848" lon="4.56625">
        <ele>533.26715</ele>
        <time>2026-06-23T10:58:11.151Z</time>
      </trkpt>
      <trkpt lat="45.20842" lon="4.56615">
        <ele>533.652298</ele>
        <time>2026-06-23T10:58:13.147Z</time>
      </trkpt>
      <trkpt lat="45.20834" lon="4.56602">
        <ele>534.16346</ele>
        <time>2026-06-23T10:58:16.130Z</time>
      </trkpt>
      <trkpt lat="45.20825" lon="4.56588">
        <ele>534.697938</ele>
        <time>2026-06-23T10:58:19.150Z</time>
      </trkpt>
      <trkpt lat="45.20816" lon="4.56573">
        <ele>535.271884</ele>
        <time>2026-06-23T10:58:22.144Z</time>
      </trkpt>
      <trkpt lat="45.20811" lon="4.56563">
        <ele>535.650873</ele>
        <time>2026-06-23T10:58:24.131Z</time>
      </trkpt>
      <trkpt lat="45.20805" lon="4.56553">
        <ele>536.014751</ele>
        <time>2026-06-23T10:58:26.145Z</time>
      </trkpt>
      <trkpt lat="45.20799" lon="4.56543">
        <ele>536.37697</ele>
        <time>2026-06-23T10:58:28.147Z</time>
      </trkpt>
      <trkpt lat="45.20794" lon="4.56531">
        <ele>536.753326</ele>
        <time>2026-06-23T10:58:30.151Z</time>
      </trkpt>
      <trkpt lat="45.20789" lon="4.56521">
        <ele>537.122205</ele>
        <time>2026-06-23T10:58:32.146Z</time>
      </trkpt>
      <trkpt lat="45.20784" lon="4.5651">
        <ele>537.484395</ele>
        <time>2026-06-23T10:58:34.145Z</time>
      </trkpt>
      <trkpt lat="45.20778" lon="4.56499">
        <ele>537.860147</ele>
        <time>2026-06-23T10:58:36.145Z</time>
      </trkpt>
      <trkpt lat="45.20773" lon="4.56488">
        <ele>538.231758</ele>
        <time>2026-06-23T10:58:38.151Z</time>
      </trkpt>
      <trkpt lat="45.20766" lon="4.56472">
        <ele>538.747758</ele>
        <time>2026-06-23T10:58:41.159Z</time>
      </trkpt>
      <trkpt lat="45.2076" lon="4.56457">
        <ele>539.242965</ele>
        <time>2026-06-23T10:58:44.145Z</time>
      </trkpt>
      <trkpt lat="45.20754" lon="4.56441">
        <ele>539.750958</ele>
        <time>2026-06-23T10:58:47.147Z</time>
      </trkpt>
      <trkpt lat="45.20749" lon="4.56428">
        <ele>540.150928</ele>
        <time>2026-06-23T10:58:49.151Z</time>
      </trkpt>
      <trkpt lat="45.20745" lon="4.56417">
        <ele>540.525107</ele>
        <time>2026-06-23T10:58:51.150Z</time>
      </trkpt>
      <trkpt lat="45.20741" lon="4.56405">
        <ele>540.891343</ele>
        <time>2026-06-23T10:58:53.146Z</time>
      </trkpt>
      <trkpt lat="45.20738" lon="4.56393">
        <ele>541.253573</ele>
        <time>2026-06-23T10:58:55.149Z</time>
      </trkpt>
      <trkpt lat="45.20731" lon="4.56375">
        <ele>541.802565</ele>
        <time>2026-06-23T10:58:58.148Z</time>
      </trkpt>
      <trkpt lat="45.20727" lon="4.56364">
        <ele>542.173198</ele>
        <time>2026-06-23T10:59:00.145Z</time>
      </trkpt>
      <trkpt lat="45.20723" lon="4.56351">
        <ele>542.566155</ele>
        <time>2026-06-23T10:59:02.151Z</time>
      </trkpt>
      <trkpt lat="45.20719" lon="4.56339">
        <ele>542.603492</ele>
        <time>2026-06-23T10:59:04.149Z</time>
      </trkpt>
      <trkpt lat="45.20717" lon="4.56327">
        <ele>542.621156</ele>
        <time>2026-06-23T10:59:06.154Z</time>
      </trkpt>
      <trkpt lat="45.20713" lon="4.56314">
        <ele>542.640109</ele>
        <time>2026-06-23T10:59:08.152Z</time>
      </trkpt>
      <trkpt lat="45.20709" lon="4.563">
        <ele>542.660547</ele>
        <time>2026-06-23T10:59:10.146Z</time>
      </trkpt>
      <trkpt lat="45.20704" lon="4.56288">
        <ele>542.68045</ele>
        <time>2026-06-23T10:59:12.146Z</time>
      </trkpt>
      <trkpt lat="45.20699" lon="4.56276">
        <ele>542.699565</ele>
        <time>2026-06-23T10:59:14.150Z</time>
      </trkpt>
      <trkpt lat="45.20693" lon="4.56264">
        <ele>542.719185</ele>
        <time>2026-06-23T10:59:16.151Z</time>
      </trkpt>
      <trkpt lat="45.20686" lon="4.56253">
        <ele>542.739329</ele>
        <time>2026-06-23T10:59:18.151Z</time>
      </trkpt>
      <trkpt lat="45.20678" lon="4.56244">
        <ele>542.758892</ele>
        <time>2026-06-23T10:59:20.145Z</time>
      </trkpt>
      <trkpt lat="45.20671" lon="4.56235">
        <ele>542.777399</ele>
        <time>2026-06-23T10:59:22.146Z</time>
      </trkpt>
      <trkpt lat="45.20664" lon="4.56227">
        <ele>542.795475</ele>
        <time>2026-06-23T10:59:24.148Z</time>
      </trkpt>
      <trkpt lat="45.20656" lon="4.56219">
        <ele>542.814208</ele>
        <time>2026-06-23T10:59:26.155Z</time>
      </trkpt>
      <trkpt lat="45.20648" lon="4.56211">
        <ele>542.833685</ele>
        <time>2026-06-23T10:59:28.146Z</time>
      </trkpt>
      <trkpt lat="45.20639" lon="4.56205">
        <ele>542.851962</ele>
        <time>2026-06-23T10:59:30.150Z</time>
      </trkpt>
      <trkpt lat="45.2063" lon="4.56197">
        <ele>542.87265</ele>
        <time>2026-06-23T10:59:32.145Z</time>
      </trkpt>
      <trkpt lat="45.20622" lon="4.56189">
        <ele>542.892974</ele>
        <time>2026-06-23T10:59:34.137Z</time>
      </trkpt>
      <trkpt lat="45.20614" lon="4.5618">
        <ele>542.911957</ele>
        <time>2026-06-23T10:59:36.148Z</time>
      </trkpt>
      <trkpt lat="45.20606" lon="4.56172">
        <ele>542.931001</ele>
        <time>2026-06-23T10:59:38.147Z</time>
      </trkpt>
      <trkpt lat="45.20598" lon="4.56164">
        <ele>543.164373</ele>
        <time>2026-06-23T10:59:40.147Z</time>
      </trkpt>
      <trkpt lat="45.2059" lon="4.56157">
        <ele>543.505895</ele>
        <time>2026-06-23T10:59:42.158Z</time>
      </trkpt>
      <trkpt lat="45.20582" lon="4.56149">
        <ele>543.844036</ele>
        <time>2026-06-23T10:59:44.151Z</time>
      </trkpt>
      <trkpt lat="45.20573" lon="4.56141">
        <ele>544.196712</ele>
        <time>2026-06-23T10:59:46.151Z</time>
      </trkpt>
      <trkpt lat="45.20565" lon="4.56134">
        <ele>544.531032</ele>
        <time>2026-06-23T10:59:48.149Z</time>
      </trkpt>
      <trkpt lat="45.20557" lon="4.56124">
        <ele>544.903147</ele>
        <time>2026-06-23T10:59:50.148Z</time>
      </trkpt>
      <trkpt lat="45.2055" lon="4.56113">
        <ele>545.281361</ele>
        <time>2026-06-23T10:59:52.151Z</time>
      </trkpt>
      <trkpt lat="45.20542" lon="4.56101">
        <ele>545.660688</ele>
        <time>2026-06-23T10:59:54.148Z</time>
      </trkpt>
      <trkpt lat="45.20536" lon="4.56089">
        <ele>546.038492</ele>
        <time>2026-06-23T10:59:56.154Z</time>
      </trkpt>
      <trkpt lat="45.20529" lon="4.56078">
        <ele>546.400427</ele>
        <time>2026-06-23T10:59:58.148Z</time>
      </trkpt>
      <trkpt lat="45.20523" lon="4.56066">
        <ele>546.765739</ele>
        <time>2026-06-23T11:00:00.155Z</time>
      </trkpt>
      <trkpt lat="45.20516" lon="4.56055">
        <ele>547.121959</ele>
        <time>2026-06-23T11:00:02.123Z</time>
      </trkpt>
      <trkpt lat="45.20511" lon="4.56044">
        <ele>547.449179</ele>
        <time>2026-06-23T11:00:04.119Z</time>
      </trkpt>
      <trkpt lat="45.20505" lon="4.56032">
        <ele>547.806506</ele>
        <time>2026-06-23T11:00:06.112Z</time>
      </trkpt>
      <trkpt lat="45.20499" lon="4.56019">
        <ele>548.17782</ele>
        <time>2026-06-23T11:00:08.146Z</time>
      </trkpt>
      <trkpt lat="45.20494" lon="4.56007">
        <ele>548.52968</ele>
        <time>2026-06-23T11:00:10.143Z</time>
      </trkpt>
      <trkpt lat="45.20489" lon="4.55995">
        <ele>548.876168</ele>
        <time>2026-06-23T11:00:12.160Z</time>
      </trkpt>
      <trkpt lat="45.20482" lon="4.55978">
        <ele>549.216453</ele>
        <time>2026-06-23T11:00:15.151Z</time>
      </trkpt>
      <trkpt lat="45.20477" lon="4.55966">
        <ele>549.246326</ele>
        <time>2026-06-23T11:00:17.151Z</time>
      </trkpt>
      <trkpt lat="45.20471" lon="4.55955">
        <ele>549.277403</ele>
        <time>2026-06-23T11:00:19.177Z</time>
      </trkpt>
      <trkpt lat="45.20465" lon="4.55938">
        <ele>549.319246</ele>
        <time>2026-06-23T11:00:22.148Z</time>
      </trkpt>
      <trkpt lat="45.20461" lon="4.55926">
        <ele>549.348493</ele>
        <time>2026-06-23T11:00:24.146Z</time>
      </trkpt>
      <trkpt lat="45.20454" lon="4.5591">
        <ele>549.390107</ele>
        <time>2026-06-23T11:00:27.148Z</time>
      </trkpt>
      <trkpt lat="45.20446" lon="4.55898">
        <ele>549.424516</ele>
        <time>2026-06-23T11:00:29.113Z</time>
      </trkpt>
      <trkpt lat="45.2044" lon="4.55888">
        <ele>549.455235</ele>
        <time>2026-06-23T11:00:31.151Z</time>
      </trkpt>
      <trkpt lat="45.20432" lon="4.55876">
        <ele>549.489235</ele>
        <time>2026-06-23T11:00:33.145Z</time>
      </trkpt>
      <trkpt lat="45.20426" lon="4.55864">
        <ele>549.521186</ele>
        <time>2026-06-23T11:00:35.153Z</time>
      </trkpt>
      <trkpt lat="45.2042" lon="4.55852">
        <ele>549.553851</ele>
        <time>2026-06-23T11:00:37.149Z</time>
      </trkpt>
      <trkpt lat="45.20414" lon="4.55839">
        <ele>549.588832</ele>
        <time>2026-06-23T11:00:39.122Z</time>
      </trkpt>
      <trkpt lat="45.20408" lon="4.55825">
        <ele>549.623863</ele>
        <time>2026-06-23T11:00:41.141Z</time>
      </trkpt>
      <trkpt lat="45.20403" lon="4.55811">
        <ele>549.657719</ele>
        <time>2026-06-23T11:00:43.152Z</time>
      </trkpt>
      <trkpt lat="45.20397" lon="4.55798">
        <ele>549.692935</ele>
        <time>2026-06-23T11:00:45.145Z</time>
      </trkpt>
      <trkpt lat="45.20392" lon="4.55786">
        <ele>549.723641</ele>
        <time>2026-06-23T11:00:47.151Z</time>
      </trkpt>
      <trkpt lat="45.20387" lon="4.55774">
        <ele>549.753233</ele>
        <time>2026-06-23T11:00:49.144Z</time>
      </trkpt>
      <trkpt lat="45.20382" lon="4.55762">
        <ele>550.00832</ele>
        <time>2026-06-23T11:00:51.156Z</time>
      </trkpt>
      <trkpt lat="45.20378" lon="4.5575">
        <ele>550.371855</ele>
        <time>2026-06-23T11:00:53.147Z</time>
      </trkpt>
      <trkpt lat="45.20373" lon="4.55739">
        <ele>550.708801</ele>
        <time>2026-06-23T11:00:55.154Z</time>
      </trkpt>
      <trkpt lat="45.20368" lon="4.55727">
        <ele>551.051439</ele>
        <time>2026-06-23T11:00:57.152Z</time>
      </trkpt>
      <trkpt lat="45.20361" lon="4.55711">
        <ele>551.519638</ele>
        <time>2026-06-23T11:01:00.150Z</time>
      </trkpt>
      <trkpt lat="45.20354" lon="4.55696">
        <ele>551.995597</ele>
        <time>2026-06-23T11:01:03.157Z</time>
      </trkpt>
      <trkpt lat="45.20349" lon="4.55679">
        <ele>552.473553</ele>
        <time>2026-06-23T11:01:06.148Z</time>
      </trkpt>
      <trkpt lat="45.20342" lon="4.55663">
        <ele>552.955454</ele>
        <time>2026-06-23T11:01:09.142Z</time>
      </trkpt>
      <trkpt lat="45.20337" lon="4.55652">
        <ele>553.287462</ele>
        <time>2026-06-23T11:01:11.124Z</time>
      </trkpt>
      <trkpt lat="45.2033" lon="4.55637">
        <ele>553.722236</ele>
        <time>2026-06-23T11:01:14.109Z</time>
      </trkpt>
      <trkpt lat="45.20324" lon="4.55625">
        <ele>554.115486</ele>
        <time>2026-06-23T11:01:17.110Z</time>
      </trkpt>
      <trkpt lat="45.20319" lon="4.55613">
        <ele>554.476063</ele>
        <time>2026-06-23T11:01:19.148Z</time>
      </trkpt>
      <trkpt lat="45.20315" lon="4.55601">
        <ele>554.82401</ele>
        <time>2026-06-23T11:01:21.152Z</time>
      </trkpt>
      <trkpt lat="45.20309" lon="4.55589">
        <ele>555.193518</ele>
        <time>2026-06-23T11:01:23.120Z</time>
      </trkpt>
      <trkpt lat="45.20301" lon="4.55574">
        <ele>555.669486</ele>
        <time>2026-06-23T11:01:26.131Z</time>
      </trkpt>
      <trkpt lat="45.20295" lon="4.55564">
        <ele>555.999104</ele>
        <time>2026-06-23T11:01:28.141Z</time>
      </trkpt>
      <trkpt lat="45.20287" lon="4.55549">
        <ele>556.36682</ele>
        <time>2026-06-23T11:01:31.139Z</time>
      </trkpt>
      <trkpt lat="45.20281" lon="4.55532">
        <ele>556.566377</ele>
        <time>2026-06-23T11:01:34.167Z</time>
      </trkpt>
      <trkpt lat="45.20276" lon="4.5552">
        <ele>556.715248</ele>
        <time>2026-06-23T11:01:36.133Z</time>
      </trkpt>
      <trkpt lat="45.2027" lon="4.55507">
        <ele>556.876929</ele>
        <time>2026-06-23T11:01:38.128Z</time>
      </trkpt>
      <trkpt lat="45.20266" lon="4.55494">
        <ele>557.035438</ele>
        <time>2026-06-23T11:01:40.147Z</time>
      </trkpt>
      <trkpt lat="45.20261" lon="4.55481">
        <ele>557.191995</ele>
        <time>2026-06-23T11:01:42.135Z</time>
      </trkpt>
      <trkpt lat="45.20255" lon="4.55469">
        <ele>557.346902</ele>
        <time>2026-06-23T11:01:44.154Z</time>
      </trkpt>
      <trkpt lat="45.2025" lon="4.55455">
        <ele>557.505553</ele>
        <time>2026-06-23T11:01:46.145Z</time>
      </trkpt>
      <trkpt lat="45.20244" lon="4.55439">
        <ele>557.707496</ele>
        <time>2026-06-23T11:01:49.148Z</time>
      </trkpt>
      <trkpt lat="45.20237" lon="4.55424">
        <ele>557.898811</ele>
        <time>2026-06-23T11:01:52.142Z</time>
      </trkpt>
      <trkpt lat="45.2023" lon="4.55409">
        <ele>558.088313</ele>
        <time>2026-06-23T11:01:55.151Z</time>
      </trkpt>
      <trkpt lat="45.20223" lon="4.55395">
        <ele>558.269457</ele>
        <time>2026-06-23T11:01:58.149Z</time>
      </trkpt>
      <trkpt lat="45.20217" lon="4.55382">
        <ele>558.431216</ele>
        <time>2026-06-23T11:02:01.150Z</time>
      </trkpt>
      <trkpt lat="45.20212" lon="4.55368">
        <ele>558.601662</ele>
        <time>2026-06-23T11:02:04.142Z</time>
      </trkpt>
      <trkpt lat="45.20206" lon="4.55356">
        <ele>558.751223</ele>
        <time>2026-06-23T11:02:07.144Z</time>
      </trkpt>
      <trkpt lat="45.20201" lon="4.55344">
        <ele>558.910375</ele>
        <time>2026-06-23T11:02:10.149Z</time>
      </trkpt>
      <trkpt lat="45.20194" lon="4.5533">
        <ele>558.877841</ele>
        <time>2026-06-23T11:02:13.159Z</time>
      </trkpt>
      <trkpt lat="45.20187" lon="4.55317">
        <ele>558.652973</ele>
        <time>2026-06-23T11:02:16.144Z</time>
      </trkpt>
      <trkpt lat="45.2018" lon="4.55309">
        <ele>558.475077</ele>
        <time>2026-06-23T11:02:19.158Z</time>
      </trkpt>
      <trkpt lat="45.20186" lon="4.55321">
        <ele>558.277113</ele>
        <time>2026-06-23T11:03:11.149Z</time>
      </trkpt>
      <trkpt lat="45.20193" lon="4.55334">
        <ele>558.056613</ele>
        <time>2026-06-23T11:03:14.142Z</time>
      </trkpt>
      <trkpt lat="45.20198" lon="4.55345">
        <ele>557.869734</ele>
        <time>2026-06-23T11:03:16.153Z</time>
      </trkpt>
      <trkpt lat="45.20204" lon="4.55357">
        <ele>557.677127</ele>
        <time>2026-06-23T11:03:18.155Z</time>
      </trkpt>
      <trkpt lat="45.2021" lon="4.55369">
        <ele>557.481395</ele>
        <time>2026-06-23T11:03:20.148Z</time>
      </trkpt>
      <trkpt lat="45.20215" lon="4.55382">
        <ele>557.278003</ele>
        <time>2026-06-23T11:03:22.150Z</time>
      </trkpt>
      <trkpt lat="45.20222" lon="4.55397">
        <ele>557.04013</ele>
        <time>2026-06-23T11:03:24.148Z</time>
      </trkpt>
      <trkpt lat="45.20229" lon="4.55415">
        <ele>556.754279</ele>
        <time>2026-06-23T11:03:26.152Z</time>
      </trkpt>
      <trkpt lat="45.20237" lon="4.55434">
        <ele>556.451097</ele>
        <time>2026-06-23T11:03:28.145Z</time>
      </trkpt>
      <trkpt lat="45.20245" lon="4.55454">
        <ele>556.140922</ele>
        <time>2026-06-23T11:03:30.151Z</time>
      </trkpt>
      <trkpt lat="45.20254" lon="4.55475">
        <ele>555.811574</ele>
        <time>2026-06-23T11:03:32.155Z</time>
      </trkpt>
      <trkpt lat="45.20264" lon="4.55494">
        <ele>555.467508</ele>
        <time>2026-06-23T11:03:34.150Z</time>
      </trkpt>
      <trkpt lat="45.20272" lon="4.55514">
        <ele>554.991809</ele>
        <time>2026-06-23T11:03:36.146Z</time>
      </trkpt>
      <trkpt lat="45.2028" lon="4.55533">
        <ele>554.521218</ele>
        <time>2026-06-23T11:03:38.139Z</time>
      </trkpt>
      <trkpt lat="45.20289" lon="4.55555">
        <ele>554.003944</ele>
        <time>2026-06-23T11:03:40.146Z</time>
      </trkpt>
      <trkpt lat="45.20298" lon="4.55575">
        <ele>553.500595</ele>
        <time>2026-06-23T11:03:42.148Z</time>
      </trkpt>
      <trkpt lat="45.20307" lon="4.55595">
        <ele>553.014629</ele>
        <time>2026-06-23T11:03:44.145Z</time>
      </trkpt>
      <trkpt lat="45.20316" lon="4.55613">
        <ele>552.551274</ele>
        <time>2026-06-23T11:03:46.152Z</time>
      </trkpt>
      <trkpt lat="45.20324" lon="4.55633">
        <ele>552.089896</ele>
        <time>2026-06-23T11:03:48.158Z</time>
      </trkpt>
      <trkpt lat="45.20333" lon="4.55652">
        <ele>551.625502</ele>
        <time>2026-06-23T11:03:50.152Z</time>
      </trkpt>
      <trkpt lat="45.20342" lon="4.55671">
        <ele>551.141872</ele>
        <time>2026-06-23T11:03:52.148Z</time>
      </trkpt>
      <trkpt lat="45.20351" lon="4.55692">
        <ele>550.622018</ele>
        <time>2026-06-23T11:03:54.149Z</time>
      </trkpt>
      <trkpt lat="45.2036" lon="4.55713">
        <ele>550.166465</ele>
        <time>2026-06-23T11:03:56.155Z</time>
      </trkpt>
      <trkpt lat="45.20369" lon="4.55734">
        <ele>549.833699</ele>
        <time>2026-06-23T11:03:58.150Z</time>
      </trkpt>
      <trkpt lat="45.20377" lon="4.55754">
        <ele>549.510296</ele>
        <time>2026-06-23T11:04:00.156Z</time>
      </trkpt>
      <trkpt lat="45.20386" lon="4.55773">
        <ele>549.194948</ele>
        <time>2026-06-23T11:04:02.144Z</time>
      </trkpt>
      <trkpt lat="45.20395" lon="4.55794">
        <ele>548.864234</ele>
        <time>2026-06-23T11:04:04.153Z</time>
      </trkpt>
      <trkpt lat="45.20404" lon="4.55814">
        <ele>548.531165</ele>
        <time>2026-06-23T11:04:06.148Z</time>
      </trkpt>
      <trkpt lat="45.20413" lon="4.55836">
        <ele>548.189589</ele>
        <time>2026-06-23T11:04:08.146Z</time>
      </trkpt>
      <trkpt lat="45.20421" lon="4.55857">
        <ele>547.855935</ele>
        <time>2026-06-23T11:04:10.151Z</time>
      </trkpt>
      <trkpt lat="45.2043" lon="4.55877">
        <ele>547.524652</ele>
        <time>2026-06-23T11:04:12.149Z</time>
      </trkpt>
      <trkpt lat="45.2044" lon="4.55896">
        <ele>547.199092</ele>
        <time>2026-06-23T11:04:14.145Z</time>
      </trkpt>
      <trkpt lat="45.20449" lon="4.55915">
        <ele>546.887974</ele>
        <time>2026-06-23T11:04:16.148Z</time>
      </trkpt>
      <trkpt lat="45.20458" lon="4.55933">
        <ele>546.622558</ele>
        <time>2026-06-23T11:04:18.156Z</time>
      </trkpt>
      <trkpt lat="45.20467" lon="4.55953">
        <ele>546.375305</ele>
        <time>2026-06-23T11:04:20.147Z</time>
      </trkpt>
      <trkpt lat="45.20475" lon="4.55972">
        <ele>546.138931</ele>
        <time>2026-06-23T11:04:22.154Z</time>
      </trkpt>
      <trkpt lat="45.20484" lon="4.55991">
        <ele>545.902845</ele>
        <time>2026-06-23T11:04:24.148Z</time>
      </trkpt>
      <trkpt lat="45.20493" lon="4.56011">
        <ele>545.663048</ele>
        <time>2026-06-23T11:04:26.148Z</time>
      </trkpt>
      <trkpt lat="45.20501" lon="4.5603">
        <ele>545.429312</ele>
        <time>2026-06-23T11:04:28.145Z</time>
      </trkpt>
      <trkpt lat="45.20509" lon="4.56049">
        <ele>545.196607</ele>
        <time>2026-06-23T11:04:30.154Z</time>
      </trkpt>
      <trkpt lat="45.20518" lon="4.56068">
        <ele>544.963931</ele>
        <time>2026-06-23T11:04:32.153Z</time>
      </trkpt>
      <trkpt lat="45.20528" lon="4.56087">
        <ele>544.718466</ele>
        <time>2026-06-23T11:04:34.149Z</time>
      </trkpt>
      <trkpt lat="45.20539" lon="4.56105">
        <ele>544.473887</ele>
        <time>2026-06-23T11:04:36.155Z</time>
      </trkpt>
      <trkpt lat="45.2055" lon="4.56121">
        <ele>544.240692</ele>
        <time>2026-06-23T11:04:38.153Z</time>
      </trkpt>
      <trkpt lat="45.20563" lon="4.56135">
        <ele>543.943014</ele>
        <time>2026-06-23T11:04:40.160Z</time>
      </trkpt>
      <trkpt lat="45.20575" lon="4.56147">
        <ele>543.574045</ele>
        <time>2026-06-23T11:04:42.146Z</time>
      </trkpt>
      <trkpt lat="45.20589" lon="4.56159">
        <ele>543.166328</ele>
        <time>2026-06-23T11:04:44.149Z</time>
      </trkpt>
      <trkpt lat="45.20603" lon="4.56172">
        <ele>542.742356</ele>
        <time>2026-06-23T11:04:46.149Z</time>
      </trkpt>
      <trkpt lat="45.20617" lon="4.56186">
        <ele>542.322874</ele>
        <time>2026-06-23T11:04:48.147Z</time>
      </trkpt>
      <trkpt lat="45.20625" lon="4.56193">
        <ele>542.098688</ele>
        <time>2026-06-23T11:04:49.152Z</time>
      </trkpt>
      <trkpt lat="45.20639" lon="4.56206">
        <ele>541.681375</ele>
        <time>2026-06-23T11:04:51.149Z</time>
      </trkpt>
      <trkpt lat="45.20653" lon="4.5622">
        <ele>541.267941</ele>
        <time>2026-06-23T11:04:53.148Z</time>
      </trkpt>
      <trkpt lat="45.20667" lon="4.56234">
        <ele>540.839506</ele>
        <time>2026-06-23T11:04:55.154Z</time>
      </trkpt>
      <trkpt lat="45.2068" lon="4.5625">
        <ele>540.408845</ele>
        <time>2026-06-23T11:04:57.152Z</time>
      </trkpt>
      <trkpt lat="45.20691" lon="4.56269">
        <ele>539.984556</ele>
        <time>2026-06-23T11:04:59.144Z</time>
      </trkpt>
      <trkpt lat="45.207" lon="4.56288">
        <ele>539.545011</ele>
        <time>2026-06-23T11:05:01.152Z</time>
      </trkpt>
      <trkpt lat="45.20708" lon="4.56309">
        <ele>538.908682</ele>
        <time>2026-06-23T11:05:03.149Z</time>
      </trkpt>
      <trkpt lat="45.20716" lon="4.56331">
        <ele>538.244132</ele>
        <time>2026-06-23T11:05:05.149Z</time>
      </trkpt>
      <trkpt lat="45.2072" lon="4.56343">
        <ele>537.890929</ele>
        <time>2026-06-23T11:05:06.152Z</time>
      </trkpt>
      <trkpt lat="45.20724" lon="4.56355">
        <ele>537.546364</ele>
        <time>2026-06-23T11:05:07.151Z</time>
      </trkpt>
      <trkpt lat="45.20732" lon="4.56378">
        <ele>536.880563</ele>
        <time>2026-06-23T11:05:09.149Z</time>
      </trkpt>
      <trkpt lat="45.2074" lon="4.564">
        <ele>536.211709</ele>
        <time>2026-06-23T11:05:11.145Z</time>
      </trkpt>
      <trkpt lat="45.20748" lon="4.56422">
        <ele>535.54591</ele>
        <time>2026-06-23T11:05:13.149Z</time>
      </trkpt>
      <trkpt lat="45.20752" lon="4.56435">
        <ele>535.191012</ele>
        <time>2026-06-23T11:05:14.148Z</time>
      </trkpt>
      <trkpt lat="45.2076" lon="4.56456">
        <ele>534.538259</ele>
        <time>2026-06-23T11:05:16.157Z</time>
      </trkpt>
      <trkpt lat="45.20765" lon="4.56467">
        <ele>534.183238</ele>
        <time>2026-06-23T11:05:17.149Z</time>
      </trkpt>
      <trkpt lat="45.20773" lon="4.5649">
        <ele>533.510985</ele>
        <time>2026-06-23T11:05:19.157Z</time>
      </trkpt>
      <trkpt lat="45.20781" lon="4.56512">
        <ele>532.85741</ele>
        <time>2026-06-23T11:05:21.153Z</time>
      </trkpt>
      <trkpt lat="45.2079" lon="4.56534">
        <ele>532.406523</ele>
        <time>2026-06-23T11:05:23.147Z</time>
      </trkpt>
      <trkpt lat="45.20796" lon="4.56544">
        <ele>532.180885</ele>
        <time>2026-06-23T11:05:24.151Z</time>
      </trkpt>
      <trkpt lat="45.20801" lon="4.56555">
        <ele>531.947945</ele>
        <time>2026-06-23T11:05:25.151Z</time>
      </trkpt>
      <trkpt lat="45.20807" lon="4.56565">
        <ele>531.718198</ele>
        <time>2026-06-23T11:05:26.151Z</time>
      </trkpt>
      <trkpt lat="45.20813" lon="4.56575">
        <ele>531.489402</ele>
        <time>2026-06-23T11:05:27.120Z</time>
      </trkpt>
      <trkpt lat="45.20819" lon="4.56586">
        <ele>531.253568</ele>
        <time>2026-06-23T11:05:28.149Z</time>
      </trkpt>
      <trkpt lat="45.20825" lon="4.56596">
        <ele>531.024119</ele>
        <time>2026-06-23T11:05:29.153Z</time>
      </trkpt>
      <trkpt lat="45.20831" lon="4.56606">
        <ele>530.793337</ele>
        <time>2026-06-23T11:05:30.148Z</time>
      </trkpt>
      <trkpt lat="45.20837" lon="4.56616">
        <ele>530.566824</ele>
        <time>2026-06-23T11:05:31.155Z</time>
      </trkpt>
      <trkpt lat="45.20848" lon="4.56635">
        <ele>530.130452</ele>
        <time>2026-06-23T11:05:33.150Z</time>
      </trkpt>
      <trkpt lat="45.20853" lon="4.56646">
        <ele>529.904687</ele>
        <time>2026-06-23T11:05:34.153Z</time>
      </trkpt>
      <trkpt lat="45.20859" lon="4.56656">
        <ele>529.676127</ele>
        <time>2026-06-23T11:05:35.149Z</time>
      </trkpt>
      <trkpt lat="45.20865" lon="4.56666">
        <ele>529.445793</ele>
        <time>2026-06-23T11:05:36.148Z</time>
      </trkpt>
      <trkpt lat="45.20871" lon="4.56677">
        <ele>529.210465</ele>
        <time>2026-06-23T11:05:37.143Z</time>
      </trkpt>
      <trkpt lat="45.20877" lon="4.56688">
        <ele>528.96283</ele>
        <time>2026-06-23T11:05:38.150Z</time>
      </trkpt>
      <trkpt lat="45.20883" lon="4.56698">
        <ele>528.725611</ele>
        <time>2026-06-23T11:05:39.150Z</time>
      </trkpt>
      <trkpt lat="45.20889" lon="4.56709">
        <ele>528.490283</ele>
        <time>2026-06-23T11:05:40.148Z</time>
      </trkpt>
      <trkpt lat="45.20901" lon="4.56728">
        <ele>528.029972</ele>
        <time>2026-06-23T11:05:42.153Z</time>
      </trkpt>
      <trkpt lat="45.20907" lon="4.56738">
        <ele>527.795941</ele>
        <time>2026-06-23T11:05:43.147Z</time>
      </trkpt>
      <trkpt lat="45.20913" lon="4.56748">
        <ele>527.552418</ele>
        <time>2026-06-23T11:05:44.149Z</time>
      </trkpt>
      <trkpt lat="45.2092" lon="4.56759">
        <ele>527.298285</ele>
        <time>2026-06-23T11:05:45.152Z</time>
      </trkpt>
      <trkpt lat="45.20926" lon="4.5677">
        <ele>527.042249</ele>
        <time>2026-06-23T11:05:46.147Z</time>
      </trkpt>
      <trkpt lat="45.20932" lon="4.5678">
        <ele>526.795299</ele>
        <time>2026-06-23T11:05:47.150Z</time>
      </trkpt>
      <trkpt lat="45.20938" lon="4.5679">
        <ele>526.562207</ele>
        <time>2026-06-23T11:05:48.150Z</time>
      </trkpt>
      <trkpt lat="45.20944" lon="4.568">
        <ele>526.325445</ele>
        <time>2026-06-23T11:05:49.148Z</time>
      </trkpt>
      <trkpt lat="45.2095" lon="4.56811">
        <ele>526.085081</ele>
        <time>2026-06-23T11:05:50.149Z</time>
      </trkpt>
      <trkpt lat="45.20955" lon="4.56821">
        <ele>525.852254</ele>
        <time>2026-06-23T11:05:51.151Z</time>
      </trkpt>
      <trkpt lat="45.20967" lon="4.56841">
        <ele>525.387234</ele>
        <time>2026-06-23T11:05:53.152Z</time>
      </trkpt>
      <trkpt lat="45.20973" lon="4.56852">
        <ele>525.134902</ele>
        <time>2026-06-23T11:05:54.152Z</time>
      </trkpt>
      <trkpt lat="45.20979" lon="4.56862">
        <ele>524.887954</ele>
        <time>2026-06-23T11:05:55.132Z</time>
      </trkpt>
      <trkpt lat="45.20985" lon="4.56873">
        <ele>524.651683</ele>
        <time>2026-06-23T11:05:56.149Z</time>
      </trkpt>
      <trkpt lat="45.20996" lon="4.56891">
        <ele>524.211183</ele>
        <time>2026-06-23T11:05:58.146Z</time>
      </trkpt>
      <trkpt lat="45.21002" lon="4.56902">
        <ele>523.973298</ele>
        <time>2026-06-23T11:05:59.154Z</time>
      </trkpt>
      <trkpt lat="45.21007" lon="4.56912">
        <ele>523.747865</ele>
        <time>2026-06-23T11:06:00.145Z</time>
      </trkpt>
      <trkpt lat="45.21013" lon="4.56922">
        <ele>523.548596</ele>
        <time>2026-06-23T11:06:01.156Z</time>
      </trkpt>
      <trkpt lat="45.21024" lon="4.56942">
        <ele>523.157815</ele>
        <time>2026-06-23T11:06:03.156Z</time>
      </trkpt>
      <trkpt lat="45.21029" lon="4.56952">
        <ele>522.96006</ele>
        <time>2026-06-23T11:06:04.147Z</time>
      </trkpt>
      <trkpt lat="45.21035" lon="4.56962">
        <ele>522.757997</ele>
        <time>2026-06-23T11:06:05.147Z</time>
      </trkpt>
      <trkpt lat="45.21041" lon="4.56972">
        <ele>522.555304</ele>
        <time>2026-06-23T11:06:06.151Z</time>
      </trkpt>
      <trkpt lat="45.21047" lon="4.56983">
        <ele>522.341017</ele>
        <time>2026-06-23T11:06:07.149Z</time>
      </trkpt>
      <trkpt lat="45.21052" lon="4.56994">
        <ele>522.137005</ele>
        <time>2026-06-23T11:06:08.155Z</time>
      </trkpt>
      <trkpt lat="45.21058" lon="4.57004">
        <ele>521.93679</ele>
        <time>2026-06-23T11:06:09.144Z</time>
      </trkpt>
      <trkpt lat="45.21064" lon="4.57014">
        <ele>521.734727</ele>
        <time>2026-06-23T11:06:10.169Z</time>
      </trkpt>
      <trkpt lat="45.2107" lon="4.57024">
        <ele>521.533595</ele>
        <time>2026-06-23T11:06:11.130Z</time>
      </trkpt>
      <trkpt lat="45.21076" lon="4.57034">
        <ele>521.33129</ele>
        <time>2026-06-23T11:06:12.123Z</time>
      </trkpt>
      <trkpt lat="45.21082" lon="4.57044">
        <ele>521.124249</ele>
        <time>2026-06-23T11:06:13.160Z</time>
      </trkpt>
      <trkpt lat="45.21093" lon="4.57065">
        <ele>520.722585</ele>
        <time>2026-06-23T11:06:15.144Z</time>
      </trkpt>
      <trkpt lat="45.21099" lon="4.57075">
        <ele>520.517923</ele>
        <time>2026-06-23T11:06:16.114Z</time>
      </trkpt>
      <trkpt lat="45.2111" lon="4.57095">
        <ele>520.131231</ele>
        <time>2026-06-23T11:06:18.115Z</time>
      </trkpt>
      <trkpt lat="45.2112" lon="4.57114">
        <ele>519.748373</ele>
        <time>2026-06-23T11:06:20.143Z</time>
      </trkpt>
      <trkpt lat="45.21131" lon="4.57133">
        <ele>519.314611</ele>
        <time>2026-06-23T11:06:22.114Z</time>
      </trkpt>
      <trkpt lat="45.21142" lon="4.57152">
        <ele>518.896107</ele>
        <time>2026-06-23T11:06:24.118Z</time>
      </trkpt>
      <trkpt lat="45.21153" lon="4.57171">
        <ele>518.476143</ele>
        <time>2026-06-23T11:06:26.109Z</time>
      </trkpt>
      <trkpt lat="45.21164" lon="4.57189">
        <ele>518.064743</ele>
        <time>2026-06-23T11:06:28.168Z</time>
      </trkpt>
      <trkpt lat="45.21174" lon="4.57207">
        <ele>517.661344</ele>
        <time>2026-06-23T11:06:30.136Z</time>
      </trkpt>
      <trkpt lat="45.21184" lon="4.57227">
        <ele>517.254443</ele>
        <time>2026-06-23T11:06:32.121Z</time>
      </trkpt>
      <trkpt lat="45.21194" lon="4.57246">
        <ele>516.834339</ele>
        <time>2026-06-23T11:06:34.183Z</time>
      </trkpt>
      <trkpt lat="45.21205" lon="4.57264">
        <ele>516.424767</ele>
        <time>2026-06-23T11:06:36.131Z</time>
      </trkpt>
      <trkpt lat="45.21216" lon="4.57282">
        <ele>516.016985</ele>
        <time>2026-06-23T11:06:38.136Z</time>
      </trkpt>
      <trkpt lat="45.21226" lon="4.573">
        <ele>515.626565</ele>
        <time>2026-06-23T11:06:40.137Z</time>
      </trkpt>
      <trkpt lat="45.21237" lon="4.57317">
        <ele>515.264389</ele>
        <time>2026-06-23T11:06:42.148Z</time>
      </trkpt>
      <trkpt lat="45.21247" lon="4.57335">
        <ele>514.938195</ele>
        <time>2026-06-23T11:06:44.148Z</time>
      </trkpt>
      <trkpt lat="45.21257" lon="4.57351">
        <ele>514.62945</ele>
        <time>2026-06-23T11:06:46.151Z</time>
      </trkpt>
      <trkpt lat="45.21268" lon="4.57368">
        <ele>514.301854</ele>
        <time>2026-06-23T11:06:48.149Z</time>
      </trkpt>
      <trkpt lat="45.21279" lon="4.57388">
        <ele>513.942784</ele>
        <time>2026-06-23T11:06:50.117Z</time>
      </trkpt>
      <trkpt lat="45.21289" lon="4.57406">
        <ele>513.615791</ele>
        <time>2026-06-23T11:06:52.147Z</time>
      </trkpt>
      <trkpt lat="45.21298" lon="4.57425">
        <ele>513.276428</ele>
        <time>2026-06-23T11:06:54.150Z</time>
      </trkpt>
      <trkpt lat="45.21309" lon="4.57445">
        <ele>512.922465</ele>
        <time>2026-06-23T11:06:56.142Z</time>
      </trkpt>
      <trkpt lat="45.21314" lon="4.57455">
        <ele>512.740499</ele>
        <time>2026-06-23T11:06:57.139Z</time>
      </trkpt>
      <trkpt lat="45.21324" lon="4.57477">
        <ele>512.376062</ele>
        <time>2026-06-23T11:06:59.149Z</time>
      </trkpt>
      <trkpt lat="45.21333" lon="4.57498">
        <ele>512.026805</ele>
        <time>2026-06-23T11:07:01.151Z</time>
      </trkpt>
      <trkpt lat="45.21342" lon="4.5752">
        <ele>511.69721</ele>
        <time>2026-06-23T11:07:03.152Z</time>
      </trkpt>
      <trkpt lat="45.2135" lon="4.5754">
        <ele>511.436994</ele>
        <time>2026-06-23T11:07:05.148Z</time>
      </trkpt>
      <trkpt lat="45.21359" lon="4.57561">
        <ele>511.168515</ele>
        <time>2026-06-23T11:07:07.146Z</time>
      </trkpt>
      <trkpt lat="45.21364" lon="4.57572">
        <ele>511.024424</ele>
        <time>2026-06-23T11:07:08.150Z</time>
      </trkpt>
      <trkpt lat="45.21372" lon="4.57592">
        <ele>510.76462</ele>
        <time>2026-06-23T11:07:10.147Z</time>
      </trkpt>
      <trkpt lat="45.2138" lon="4.57614">
        <ele>510.493186</ele>
        <time>2026-06-23T11:07:12.131Z</time>
      </trkpt>
      <trkpt lat="45.21389" lon="4.57632">
        <ele>510.250122</ele>
        <time>2026-06-23T11:07:14.149Z</time>
      </trkpt>
      <trkpt lat="45.21398" lon="4.57649">
        <ele>510.01064</ele>
        <time>2026-06-23T11:07:16.146Z</time>
      </trkpt>
      <trkpt lat="45.21408" lon="4.57666">
        <ele>509.771255</ele>
        <time>2026-06-23T11:07:18.157Z</time>
      </trkpt>
      <trkpt lat="45.21418" lon="4.57682">
        <ele>509.528625</ele>
        <time>2026-06-23T11:07:20.120Z</time>
      </trkpt>
      <trkpt lat="45.21428" lon="4.57698">
        <ele>509.298427</ele>
        <time>2026-06-23T11:07:22.147Z</time>
      </trkpt>
      <trkpt lat="45.21439" lon="4.57714">
        <ele>509.049123</ele>
        <time>2026-06-23T11:07:24.152Z</time>
      </trkpt>
      <trkpt lat="45.21451" lon="4.57729">
        <ele>508.847893</ele>
        <time>2026-06-23T11:07:26.159Z</time>
      </trkpt>
      <trkpt lat="45.21463" lon="4.57743">
        <ele>508.671026</ele>
        <time>2026-06-23T11:07:28.151Z</time>
      </trkpt>
      <trkpt lat="45.21476" lon="4.57755">
        <ele>508.48788</ele>
        <time>2026-06-23T11:07:30.146Z</time>
      </trkpt>
      <trkpt lat="45.21489" lon="4.57767">
        <ele>508.308816</ele>
        <time>2026-06-23T11:07:32.153Z</time>
      </trkpt>
      <trkpt lat="45.21503" lon="4.57781">
        <ele>508.120083</ele>
        <time>2026-06-23T11:07:34.147Z</time>
      </trkpt>
      <trkpt lat="45.21516" lon="4.57795">
        <ele>507.92558</ele>
        <time>2026-06-23T11:07:36.149Z</time>
      </trkpt>
      <trkpt lat="45.2153" lon="4.57811">
        <ele>507.723739</ele>
        <time>2026-06-23T11:07:38.152Z</time>
      </trkpt>
      <trkpt lat="45.21537" lon="4.5782">
        <ele>507.617796</ele>
        <time>2026-06-23T11:07:39.147Z</time>
      </trkpt>
      <trkpt lat="45.2155" lon="4.57837">
        <ele>507.413096</ele>
        <time>2026-06-23T11:07:41.152Z</time>
      </trkpt>
      <trkpt lat="45.21562" lon="4.57854">
        <ele>507.214797</ele>
        <time>2026-06-23T11:07:43.149Z</time>
      </trkpt>
      <trkpt lat="45.21574" lon="4.57871">
        <ele>507.024809</ele>
        <time>2026-06-23T11:07:45.147Z</time>
      </trkpt>
      <trkpt lat="45.21586" lon="4.57888">
        <ele>506.657138</ele>
        <time>2026-06-23T11:07:47.145Z</time>
      </trkpt>
      <trkpt lat="45.21592" lon="4.57897">
        <ele>506.335184</ele>
        <time>2026-06-23T11:07:48.151Z</time>
      </trkpt>
      <trkpt lat="45.216" lon="4.57905">
        <ele>505.994631</ele>
        <time>2026-06-23T11:07:49.151Z</time>
      </trkpt>
      <trkpt lat="45.21606" lon="4.57914">
        <ele>505.669161</ele>
        <time>2026-06-23T11:07:50.163Z</time>
      </trkpt>
      <trkpt lat="45.21613" lon="4.57923">
        <ele>505.346328</ele>
        <time>2026-06-23T11:07:51.151Z</time>
      </trkpt>
      <trkpt lat="45.21619" lon="4.57932">
        <ele>505.0191</ele>
        <time>2026-06-23T11:07:52.155Z</time>
      </trkpt>
      <trkpt lat="45.21633" lon="4.57948">
        <ele>504.393558</ele>
        <time>2026-06-23T11:07:54.156Z</time>
      </trkpt>
      <trkpt lat="45.21641" lon="4.57956">
        <ele>504.04701</ele>
        <time>2026-06-23T11:07:55.151Z</time>
      </trkpt>
      <trkpt lat="45.21649" lon="4.57963">
        <ele>503.707485</ele>
        <time>2026-06-23T11:07:56.153Z</time>
      </trkpt>
      <trkpt lat="45.21657" lon="4.5797">
        <ele>503.365245</ele>
        <time>2026-06-23T11:07:57.147Z</time>
      </trkpt>
      <trkpt lat="45.21665" lon="4.57976">
        <ele>503.021114</ele>
        <time>2026-06-23T11:07:58.148Z</time>
      </trkpt>
      <trkpt lat="45.21674" lon="4.57982">
        <ele>502.688395</ele>
        <time>2026-06-23T11:07:59.160Z</time>
      </trkpt>
      <trkpt lat="45.21689" lon="4.57992">
        <ele>502.070557</ele>
        <time>2026-06-23T11:08:01.153Z</time>
      </trkpt>
      <trkpt lat="45.21706" lon="4.58004">
        <ele>501.411763</ele>
        <time>2026-06-23T11:08:03.150Z</time>
      </trkpt>
      <trkpt lat="45.21714" lon="4.58011">
        <ele>501.066164</ele>
        <time>2026-06-23T11:08:04.156Z</time>
      </trkpt>
      <trkpt lat="45.21729" lon="4.58026">
        <ele>500.42974</ele>
        <time>2026-06-23T11:08:06.144Z</time>
      </trkpt>
      <trkpt lat="45.21736" lon="4.58034">
        <ele>500.173924</ele>
        <time>2026-06-23T11:08:07.151Z</time>
      </trkpt>
      <trkpt lat="45.21744" lon="4.58044">
        <ele>499.916455</ele>
        <time>2026-06-23T11:08:08.146Z</time>
      </trkpt>
      <trkpt lat="45.2175" lon="4.58053">
        <ele>499.673188</ele>
        <time>2026-06-23T11:08:09.150Z</time>
      </trkpt>
      <trkpt lat="45.21756" lon="4.58064">
        <ele>499.423394</ele>
        <time>2026-06-23T11:08:10.152Z</time>
      </trkpt>
      <trkpt lat="45.21763" lon="4.58074">
        <ele>499.158941</ele>
        <time>2026-06-23T11:08:11.154Z</time>
      </trkpt>
      <trkpt lat="45.2177" lon="4.58083">
        <ele>498.906592</ele>
        <time>2026-06-23T11:08:12.147Z</time>
      </trkpt>
      <trkpt lat="45.21777" lon="4.58093">
        <ele>498.645225</ele>
        <time>2026-06-23T11:08:13.135Z</time>
      </trkpt>
      <trkpt lat="45.21792" lon="4.58107">
        <ele>498.169505</ele>
        <time>2026-06-23T11:08:15.154Z</time>
      </trkpt>
      <trkpt lat="45.21801" lon="4.58114">
        <ele>497.914063</ele>
        <time>2026-06-23T11:08:16.154Z</time>
      </trkpt>
      <trkpt lat="45.2181" lon="4.58119">
        <ele>497.653738</ele>
        <time>2026-06-23T11:08:17.149Z</time>
      </trkpt>
      <trkpt lat="45.21819" lon="4.58124">
        <ele>497.398797</ele>
        <time>2026-06-23T11:08:18.143Z</time>
      </trkpt>
      <trkpt lat="45.21828" lon="4.58127">
        <ele>497.144073</ele>
        <time>2026-06-23T11:08:19.152Z</time>
      </trkpt>
      <trkpt lat="45.21838" lon="4.58132">
        <ele>496.876042</ele>
        <time>2026-06-23T11:08:20.153Z</time>
      </trkpt>
      <trkpt lat="45.21848" lon="4.58136">
        <ele>496.610175</ele>
        <time>2026-06-23T11:08:21.145Z</time>
      </trkpt>
      <trkpt lat="45.21857" lon="4.5814">
        <ele>496.366966</ele>
        <time>2026-06-23T11:08:22.149Z</time>
      </trkpt>
      <trkpt lat="45.21865" lon="4.58145">
        <ele>496.118832</ele>
        <time>2026-06-23T11:08:23.149Z</time>
      </trkpt>
      <trkpt lat="45.21874" lon="4.5815">
        <ele>495.861071</ele>
        <time>2026-06-23T11:08:24.151Z</time>
      </trkpt>
      <trkpt lat="45.21883" lon="4.58156">
        <ele>495.585694</ele>
        <time>2026-06-23T11:08:25.147Z</time>
      </trkpt>
      <trkpt lat="45.21892" lon="4.58163">
        <ele>495.268019</ele>
        <time>2026-06-23T11:08:26.153Z</time>
      </trkpt>
      <trkpt lat="45.219" lon="4.58169">
        <ele>494.960258</ele>
        <time>2026-06-23T11:08:27.148Z</time>
      </trkpt>
      <trkpt lat="45.21909" lon="4.58177">
        <ele>494.64249</ele>
        <time>2026-06-23T11:08:28.150Z</time>
      </trkpt>
      <trkpt lat="45.21917" lon="4.58184">
        <ele>494.334085</ele>
        <time>2026-06-23T11:08:29.144Z</time>
      </trkpt>
      <trkpt lat="45.21925" lon="4.58193">
        <ele>494.008268</ele>
        <time>2026-06-23T11:08:30.152Z</time>
      </trkpt>
      <trkpt lat="45.21932" lon="4.58202">
        <ele>493.690977</ele>
        <time>2026-06-23T11:08:31.144Z</time>
      </trkpt>
      <trkpt lat="45.2194" lon="4.5821">
        <ele>493.380545</ele>
        <time>2026-06-23T11:08:32.160Z</time>
      </trkpt>
      <trkpt lat="45.21949" lon="4.58218">
        <ele>493.059715</ele>
        <time>2026-06-23T11:08:33.153Z</time>
      </trkpt>
      <trkpt lat="45.21957" lon="4.58226">
        <ele>492.737547</ele>
        <time>2026-06-23T11:08:34.150Z</time>
      </trkpt>
      <trkpt lat="45.21965" lon="4.58234">
        <ele>492.420562</ele>
        <time>2026-06-23T11:08:35.144Z</time>
      </trkpt>
      <trkpt lat="45.21974" lon="4.58241">
        <ele>492.097305</ele>
        <time>2026-06-23T11:08:36.143Z</time>
      </trkpt>
      <trkpt lat="45.21982" lon="4.58248">
        <ele>491.799705</ele>
        <time>2026-06-23T11:08:37.149Z</time>
      </trkpt>
      <trkpt lat="45.2199" lon="4.58256">
        <ele>491.468145</ele>
        <time>2026-06-23T11:08:38.152Z</time>
      </trkpt>
      <trkpt lat="45.21998" lon="4.58264">
        <ele>491.155141</ele>
        <time>2026-06-23T11:08:39.144Z</time>
      </trkpt>
      <trkpt lat="45.22007" lon="4.58271">
        <ele>490.838049</ele>
        <time>2026-06-23T11:08:40.141Z</time>
      </trkpt>
      <trkpt lat="45.22016" lon="4.58279">
        <ele>490.498395</ele>
        <time>2026-06-23T11:08:41.147Z</time>
      </trkpt>
      <trkpt lat="45.22025" lon="4.58286">
        <ele>490.157813</ele>
        <time>2026-06-23T11:08:42.140Z</time>
      </trkpt>
      <trkpt lat="45.22034" lon="4.58294">
        <ele>489.805106</ele>
        <time>2026-06-23T11:08:43.147Z</time>
      </trkpt>
      <trkpt lat="45.22044" lon="4.58301">
        <ele>489.422714</ele>
        <time>2026-06-23T11:08:44.146Z</time>
      </trkpt>
      <trkpt lat="45.22053" lon="4.58309">
        <ele>489.032669</ele>
        <time>2026-06-23T11:08:45.148Z</time>
      </trkpt>
      <trkpt lat="45.22062" lon="4.58316">
        <ele>488.654675</ele>
        <time>2026-06-23T11:08:46.155Z</time>
      </trkpt>
      <trkpt lat="45.22071" lon="4.58323">
        <ele>488.294261</ele>
        <time>2026-06-23T11:08:47.160Z</time>
      </trkpt>
      <trkpt lat="45.22079" lon="4.5833">
        <ele>487.923876</ele>
        <time>2026-06-23T11:08:48.147Z</time>
      </trkpt>
      <trkpt lat="45.22088" lon="4.58338">
        <ele>487.548513</ele>
        <time>2026-06-23T11:08:49.149Z</time>
      </trkpt>
      <trkpt lat="45.22097" lon="4.58345">
        <ele>487.175892</ele>
        <time>2026-06-23T11:08:50.150Z</time>
      </trkpt>
      <trkpt lat="45.22106" lon="4.58354">
        <ele>486.790525</ele>
        <time>2026-06-23T11:08:51.147Z</time>
      </trkpt>
      <trkpt lat="45.22114" lon="4.58362">
        <ele>486.430069</ele>
        <time>2026-06-23T11:08:52.151Z</time>
      </trkpt>
      <trkpt lat="45.22122" lon="4.5837">
        <ele>486.063883</ele>
        <time>2026-06-23T11:08:53.153Z</time>
      </trkpt>
      <trkpt lat="45.2213" lon="4.58379">
        <ele>485.697786</ele>
        <time>2026-06-23T11:08:54.143Z</time>
      </trkpt>
      <trkpt lat="45.22137" lon="4.58388">
        <ele>485.358681</ele>
        <time>2026-06-23T11:08:55.149Z</time>
      </trkpt>
      <trkpt lat="45.22145" lon="4.58397">
        <ele>485.001784</ele>
        <time>2026-06-23T11:08:56.149Z</time>
      </trkpt>
      <trkpt lat="45.22152" lon="4.58407">
        <ele>484.632655</ele>
        <time>2026-06-23T11:08:57.150Z</time>
      </trkpt>
      <trkpt lat="45.22159" lon="4.58418">
        <ele>484.271266</ele>
        <time>2026-06-23T11:08:58.151Z</time>
      </trkpt>
      <trkpt lat="45.22165" lon="4.58428">
        <ele>483.91944</ele>
        <time>2026-06-23T11:08:59.150Z</time>
      </trkpt>
      <trkpt lat="45.22172" lon="4.5844">
        <ele>483.539899</ele>
        <time>2026-06-23T11:09:00.131Z</time>
      </trkpt>
      <trkpt lat="45.22178" lon="4.5845">
        <ele>483.511718</ele>
        <time>2026-06-23T11:09:01.147Z</time>
      </trkpt>
      <trkpt lat="45.22184" lon="4.5846">
        <ele>483.574046</ele>
        <time>2026-06-23T11:09:02.136Z</time>
      </trkpt>
      <trkpt lat="45.2219" lon="4.5847">
        <ele>483.636751</ele>
        <time>2026-06-23T11:09:03.148Z</time>
      </trkpt>
      <trkpt lat="45.22196" lon="4.5848">
        <ele>483.697361</ele>
        <time>2026-06-23T11:09:04.152Z</time>
      </trkpt>
      <trkpt lat="45.22208" lon="4.58498">
        <ele>483.814908</ele>
        <time>2026-06-23T11:09:06.152Z</time>
      </trkpt>
      <trkpt lat="45.22215" lon="4.58507">
        <ele>483.875791</ele>
        <time>2026-06-23T11:09:07.149Z</time>
      </trkpt>
      <trkpt lat="45.22222" lon="4.58516">
        <ele>483.937215</ele>
        <time>2026-06-23T11:09:08.144Z</time>
      </trkpt>
      <trkpt lat="45.22228" lon="4.58525">
        <ele>483.997615</ele>
        <time>2026-06-23T11:09:09.147Z</time>
      </trkpt>
      <trkpt lat="45.22243" lon="4.58541">
        <ele>484.117327</ele>
        <time>2026-06-23T11:09:11.157Z</time>
      </trkpt>
      <trkpt lat="45.22257" lon="4.58555">
        <ele>484.236644</ele>
        <time>2026-06-23T11:09:13.144Z</time>
      </trkpt>
      <trkpt lat="45.22271" lon="4.58569">
        <ele>484.345973</ele>
        <time>2026-06-23T11:09:15.148Z</time>
      </trkpt>
      <trkpt lat="45.22278" lon="4.58577">
        <ele>484.40664</ele>
        <time>2026-06-23T11:09:16.148Z</time>
      </trkpt>
      <trkpt lat="45.22291" lon="4.58592">
        <ele>484.517909</ele>
        <time>2026-06-23T11:09:18.146Z</time>
      </trkpt>
      <trkpt lat="45.22303" lon="4.58607">
        <ele>484.625611</ele>
        <time>2026-06-23T11:09:20.151Z</time>
      </trkpt>
      <trkpt lat="45.22315" lon="4.58623">
        <ele>484.577474</ele>
        <time>2026-06-23T11:09:22.148Z</time>
      </trkpt>
      <trkpt lat="45.22327" lon="4.5864">
        <ele>484.467351</ele>
        <time>2026-06-23T11:09:24.145Z</time>
      </trkpt>
      <trkpt lat="45.22337" lon="4.58657">
        <ele>484.361025</ele>
        <time>2026-06-23T11:09:26.145Z</time>
      </trkpt>
      <trkpt lat="45.22346" lon="4.58676">
        <ele>484.258025</ele>
        <time>2026-06-23T11:09:28.159Z</time>
      </trkpt>
      <trkpt lat="45.22354" lon="4.58694">
        <ele>484.155312</ele>
        <time>2026-06-23T11:09:30.144Z</time>
      </trkpt>
      <trkpt lat="45.22362" lon="4.58714">
        <ele>484.048301</ele>
        <time>2026-06-23T11:09:32.142Z</time>
      </trkpt>
      <trkpt lat="45.22369" lon="4.58735">
        <ele>483.940237</ele>
        <time>2026-06-23T11:09:34.152Z</time>
      </trkpt>
      <trkpt lat="45.22376" lon="4.58755">
        <ele>483.833864</ele>
        <time>2026-06-23T11:09:36.145Z</time>
      </trkpt>
      <trkpt lat="45.22385" lon="4.58775">
        <ele>483.725669</ele>
        <time>2026-06-23T11:09:38.144Z</time>
      </trkpt>
      <trkpt lat="45.22392" lon="4.58796">
        <ele>483.616402</ele>
        <time>2026-06-23T11:09:40.159Z</time>
      </trkpt>
      <trkpt lat="45.22401" lon="4.58816">
        <ele>483.502136</ele>
        <time>2026-06-23T11:09:42.148Z</time>
      </trkpt>
      <trkpt lat="45.2241" lon="4.58836">
        <ele>483.538987</ele>
        <time>2026-06-23T11:09:44.148Z</time>
      </trkpt>
      <trkpt lat="45.22419" lon="4.58857">
        <ele>483.67085</ele>
        <time>2026-06-23T11:09:46.144Z</time>
      </trkpt>
      <trkpt lat="45.22428" lon="4.58876">
        <ele>483.79798</ele>
        <time>2026-06-23T11:09:48.155Z</time>
      </trkpt>
      <trkpt lat="45.22441" lon="4.58889">
        <ele>483.918195</ele>
        <time>2026-06-23T11:09:50.148Z</time>
      </trkpt>
      <trkpt lat="45.22455" lon="4.589">
        <ele>484.044835</ele>
        <time>2026-06-23T11:09:52.140Z</time>
      </trkpt>
      <trkpt lat="45.22463" lon="4.58906">
        <ele>484.116726</ele>
        <time>2026-06-23T11:09:53.148Z</time>
      </trkpt>
      <trkpt lat="45.22477" lon="4.58916">
        <ele>484.235878</ele>
        <time>2026-06-23T11:09:55.144Z</time>
      </trkpt>
      <trkpt lat="45.22489" lon="4.58926">
        <ele>484.345159</ele>
        <time>2026-06-23T11:09:57.152Z</time>
      </trkpt>
      <trkpt lat="45.22502" lon="4.58935">
        <ele>484.45609</ele>
        <time>2026-06-23T11:09:59.146Z</time>
      </trkpt>
      <trkpt lat="45.22516" lon="4.58941">
        <ele>484.569125</ele>
        <time>2026-06-23T11:10:01.155Z</time>
      </trkpt>
      <trkpt lat="45.2253" lon="4.58949">
        <ele>484.682462</ele>
        <time>2026-06-23T11:10:03.146Z</time>
      </trkpt>
      <trkpt lat="45.22545" lon="4.58958">
        <ele>484.807737</ele>
        <time>2026-06-23T11:10:05.148Z</time>
      </trkpt>
      <trkpt lat="45.22559" lon="4.58963">
        <ele>484.408026</ele>
        <time>2026-06-23T11:10:07.148Z</time>
      </trkpt>
      <trkpt lat="45.22573" lon="4.58969">
        <ele>483.665011</ele>
        <time>2026-06-23T11:10:09.154Z</time>
      </trkpt>
      <trkpt lat="45.22587" lon="4.58981">
        <ele>482.837218</ele>
        <time>2026-06-23T11:10:11.151Z</time>
      </trkpt>
      <trkpt lat="45.22602" lon="4.58995">
        <ele>481.951375</ele>
        <time>2026-06-23T11:10:13.143Z</time>
      </trkpt>
      <trkpt lat="45.2261" lon="4.59001">
        <ele>481.494485</ele>
        <time>2026-06-23T11:10:14.143Z</time>
      </trkpt>
      <trkpt lat="45.22618" lon="4.59008">
        <ele>481.034903</ele>
        <time>2026-06-23T11:10:15.148Z</time>
      </trkpt>
      <trkpt lat="45.22625" lon="4.59016">
        <ele>480.580717</ele>
        <time>2026-06-23T11:10:16.145Z</time>
      </trkpt>
      <trkpt lat="45.22632" lon="4.59024">
        <ele>480.118003</ele>
        <time>2026-06-23T11:10:17.147Z</time>
      </trkpt>
      <trkpt lat="45.2264" lon="4.59033">
        <ele>479.629498</ele>
        <time>2026-06-23T11:10:18.147Z</time>
      </trkpt>
      <trkpt lat="45.22646" lon="4.59042">
        <ele>479.178407</ele>
        <time>2026-06-23T11:10:19.155Z</time>
      </trkpt>
      <trkpt lat="45.22659" lon="4.59061">
        <ele>478.24565</ele>
        <time>2026-06-23T11:10:21.153Z</time>
      </trkpt>
      <trkpt lat="45.22666" lon="4.5907">
        <ele>477.763171</ele>
        <time>2026-06-23T11:10:22.147Z</time>
      </trkpt>
      <trkpt lat="45.22673" lon="4.59079">
        <ele>477.309731</ele>
        <time>2026-06-23T11:10:23.148Z</time>
      </trkpt>
      <trkpt lat="45.22686" lon="4.59097">
        <ele>476.41737</ele>
        <time>2026-06-23T11:10:25.147Z</time>
      </trkpt>
      <trkpt lat="45.22692" lon="4.59106">
        <ele>475.951864</ele>
        <time>2026-06-23T11:10:26.152Z</time>
      </trkpt>
      <trkpt lat="45.22699" lon="4.59115">
        <ele>475.703817</ele>
        <time>2026-06-23T11:10:27.154Z</time>
      </trkpt>
      <trkpt lat="45.22711" lon="4.59132">
        <ele>475.32887</ele>
        <time>2026-06-23T11:10:29.148Z</time>
      </trkpt>
      <trkpt lat="45.22718" lon="4.59141">
        <ele>475.127416</ele>
        <time>2026-06-23T11:10:30.147Z</time>
      </trkpt>
      <trkpt lat="45.22731" lon="4.59157">
        <ele>474.749108</ele>
        <time>2026-06-23T11:10:32.146Z</time>
      </trkpt>
      <trkpt lat="45.22744" lon="4.59172">
        <ele>474.388067</ele>
        <time>2026-06-23T11:10:34.147Z</time>
      </trkpt>
      <trkpt lat="45.22757" lon="4.59185">
        <ele>474.029561</ele>
        <time>2026-06-23T11:10:36.160Z</time>
      </trkpt>
      <trkpt lat="45.22772" lon="4.59198">
        <ele>473.658547</ele>
        <time>2026-06-23T11:10:38.171Z</time>
      </trkpt>
      <trkpt lat="45.22787" lon="4.5921">
        <ele>473.268672</ele>
        <time>2026-06-23T11:10:40.146Z</time>
      </trkpt>
      <trkpt lat="45.22802" lon="4.59224">
        <ele>472.887737</ele>
        <time>2026-06-23T11:10:42.134Z</time>
      </trkpt>
      <trkpt lat="45.22809" lon="4.59232">
        <ele>472.686164</ele>
        <time>2026-06-23T11:10:43.132Z</time>
      </trkpt>
      <trkpt lat="45.22825" lon="4.59245">
        <ele>472.293796</ele>
        <time>2026-06-23T11:10:45.157Z</time>
      </trkpt>
      <trkpt lat="45.22839" lon="4.59259">
        <ele>471.891555</ele>
        <time>2026-06-23T11:10:47.164Z</time>
      </trkpt>
      <trkpt lat="45.22853" lon="4.59274">
        <ele>471.119516</ele>
        <time>2026-06-23T11:10:49.156Z</time>
      </trkpt>
      <trkpt lat="45.22867" lon="4.59288">
        <ele>470.379423</ele>
        <time>2026-06-23T11:10:51.153Z</time>
      </trkpt>
      <trkpt lat="45.22874" lon="4.59296">
        <ele>469.978203</ele>
        <time>2026-06-23T11:10:52.154Z</time>
      </trkpt>
      <trkpt lat="45.22888" lon="4.5931">
        <ele>469.211374</ele>
        <time>2026-06-23T11:10:54.149Z</time>
      </trkpt>
      <trkpt lat="45.22902" lon="4.59325">
        <ele>468.453404</ele>
        <time>2026-06-23T11:10:56.145Z</time>
      </trkpt>
      <trkpt lat="45.22916" lon="4.59341">
        <ele>467.687066</ele>
        <time>2026-06-23T11:10:58.157Z</time>
      </trkpt>
      <trkpt lat="45.22927" lon="4.5936">
        <ele>466.911444</ele>
        <time>2026-06-23T11:11:00.158Z</time>
      </trkpt>
      <trkpt lat="45.22932" lon="4.59371">
        <ele>466.515757</ele>
        <time>2026-06-23T11:11:01.123Z</time>
      </trkpt>
      <trkpt lat="45.22941" lon="4.59393">
        <ele>465.739175</ele>
        <time>2026-06-23T11:11:03.148Z</time>
      </trkpt>
      <trkpt lat="45.22951" lon="4.59413">
        <ele>464.980777</ele>
        <time>2026-06-23T11:11:05.150Z</time>
      </trkpt>
      <trkpt lat="45.22962" lon="4.59433">
        <ele>464.213677</ele>
        <time>2026-06-23T11:11:07.145Z</time>
      </trkpt>
      <trkpt lat="45.22972" lon="4.59452">
        <ele>463.571593</ele>
        <time>2026-06-23T11:11:09.150Z</time>
      </trkpt>
      <trkpt lat="45.22977" lon="4.59462">
        <ele>463.236406</ele>
        <time>2026-06-23T11:11:10.122Z</time>
      </trkpt>
      <trkpt lat="45.22987" lon="4.59484">
        <ele>462.580111</ele>
        <time>2026-06-23T11:11:12.153Z</time>
      </trkpt>
      <trkpt lat="45.22992" lon="4.59495">
        <ele>462.248907</ele>
        <time>2026-06-23T11:11:13.151Z</time>
      </trkpt>
      <trkpt lat="45.22997" lon="4.59506">
        <ele>461.898549</ele>
        <time>2026-06-23T11:11:14.132Z</time>
      </trkpt>
      <trkpt lat="45.23002" lon="4.59518">
        <ele>461.545729</ele>
        <time>2026-06-23T11:11:15.149Z</time>
      </trkpt>
      <trkpt lat="45.23007" lon="4.59529">
        <ele>461.202039</ele>
        <time>2026-06-23T11:11:16.132Z</time>
      </trkpt>
      <trkpt lat="45.23012" lon="4.59541">
        <ele>460.844803</ele>
        <time>2026-06-23T11:11:17.150Z</time>
      </trkpt>
      <trkpt lat="45.23017" lon="4.59552">
        <ele>460.504597</ele>
        <time>2026-06-23T11:11:18.147Z</time>
      </trkpt>
      <trkpt lat="45.23022" lon="4.59563">
        <ele>460.167077</ele>
        <time>2026-06-23T11:11:19.149Z</time>
      </trkpt>
      <trkpt lat="45.23027" lon="4.59574">
        <ele>459.825213</ele>
        <time>2026-06-23T11:11:20.155Z</time>
      </trkpt>
      <trkpt lat="45.23032" lon="4.59586">
        <ele>459.474597</ele>
        <time>2026-06-23T11:11:21.142Z</time>
      </trkpt>
      <trkpt lat="45.23036" lon="4.59598">
        <ele>459.119872</ele>
        <time>2026-06-23T11:11:22.147Z</time>
      </trkpt>
      <trkpt lat="45.2304" lon="4.5961">
        <ele>458.775274</ele>
        <time>2026-06-23T11:11:23.152Z</time>
      </trkpt>
      <trkpt lat="45.23044" lon="4.59623">
        <ele>458.425715</ele>
        <time>2026-06-23T11:11:24.145Z</time>
      </trkpt>
      <trkpt lat="45.23047" lon="4.59635">
        <ele>458.085265</ele>
        <time>2026-06-23T11:11:25.145Z</time>
      </trkpt>
      <trkpt lat="45.2305" lon="4.59648">
        <ele>457.737264</ele>
        <time>2026-06-23T11:11:26.147Z</time>
      </trkpt>
      <trkpt lat="45.23053" lon="4.59661">
        <ele>457.439627</ele>
        <time>2026-06-23T11:11:27.149Z</time>
      </trkpt>
      <trkpt lat="45.23055" lon="4.59674">
        <ele>457.280677</ele>
        <time>2026-06-23T11:11:28.149Z</time>
      </trkpt>
      <trkpt lat="45.23061" lon="4.59698">
        <ele>456.982211</ele>
        <time>2026-06-23T11:11:30.142Z</time>
      </trkpt>
      <trkpt lat="45.23067" lon="4.59721">
        <ele>456.690441</ele>
        <time>2026-06-23T11:11:32.153Z</time>
      </trkpt>
      <trkpt lat="45.23073" lon="4.59743">
        <ele>456.407653</ele>
        <time>2026-06-23T11:11:34.144Z</time>
      </trkpt>
      <trkpt lat="45.23079" lon="4.59766">
        <ele>456.115804</ele>
        <time>2026-06-23T11:11:36.145Z</time>
      </trkpt>
      <trkpt lat="45.23085" lon="4.59789">
        <ele>455.821829</ele>
        <time>2026-06-23T11:11:38.147Z</time>
      </trkpt>
      <trkpt lat="45.23091" lon="4.59812">
        <ele>455.535631</ele>
        <time>2026-06-23T11:11:40.142Z</time>
      </trkpt>
      <trkpt lat="45.23098" lon="4.59834">
        <ele>455.250504</ele>
        <time>2026-06-23T11:11:42.137Z</time>
      </trkpt>
      <trkpt lat="45.23106" lon="4.59853">
        <ele>454.977913</ele>
        <time>2026-06-23T11:11:44.144Z</time>
      </trkpt>
      <trkpt lat="45.23116" lon="4.59871">
        <ele>454.700493</ele>
        <time>2026-06-23T11:11:46.148Z</time>
      </trkpt>
      <trkpt lat="45.23127" lon="4.59889">
        <ele>454.430097</ele>
        <time>2026-06-23T11:11:48.146Z</time>
      </trkpt>
      <trkpt lat="45.23138" lon="4.59905">
        <ele>454.159903</ele>
        <time>2026-06-23T11:11:50.144Z</time>
      </trkpt>
      <trkpt lat="45.2315" lon="4.59922">
        <ele>453.894319</ele>
        <time>2026-06-23T11:11:52.147Z</time>
      </trkpt>
      <trkpt lat="45.2316" lon="4.5994">
        <ele>453.620272</ele>
        <time>2026-06-23T11:11:54.145Z</time>
      </trkpt>
      <trkpt lat="45.23172" lon="4.59958">
        <ele>453.331337</ele>
        <time>2026-06-23T11:11:56.162Z</time>
      </trkpt>
      <trkpt lat="45.23185" lon="4.59976">
        <ele>453.036768</ele>
        <time>2026-06-23T11:11:58.147Z</time>
      </trkpt>
      <trkpt lat="45.23196" lon="4.59995">
        <ele>452.755581</ele>
        <time>2026-06-23T11:12:00.158Z</time>
      </trkpt>
      <trkpt lat="45.23208" lon="4.60012">
        <ele>452.467728</ele>
        <time>2026-06-23T11:12:02.150Z</time>
      </trkpt>
      <trkpt lat="45.23219" lon="4.60029">
        <ele>452.197943</ele>
        <time>2026-06-23T11:12:04.155Z</time>
      </trkpt>
      <trkpt lat="45.2323" lon="4.60046">
        <ele>451.93013</ele>
        <time>2026-06-23T11:12:06.146Z</time>
      </trkpt>
      <trkpt lat="45.23242" lon="4.60062">
        <ele>451.659646</ele>
        <time>2026-06-23T11:12:08.146Z</time>
      </trkpt>
      <trkpt lat="45.23253" lon="4.60077">
        <ele>451.482952</ele>
        <time>2026-06-23T11:12:10.144Z</time>
      </trkpt>
      <trkpt lat="45.23265" lon="4.60092">
        <ele>451.477683</ele>
        <time>2026-06-23T11:12:12.145Z</time>
      </trkpt>
      <trkpt lat="45.23277" lon="4.60105">
        <ele>451.47245</ele>
        <time>2026-06-23T11:12:14.148Z</time>
      </trkpt>
      <trkpt lat="45.23288" lon="4.60118">
        <ele>451.467192</ele>
        <time>2026-06-23T11:12:16.148Z</time>
      </trkpt>
      <trkpt lat="45.233" lon="4.60132">
        <ele>451.46183</ele>
        <time>2026-06-23T11:12:18.152Z</time>
      </trkpt>
      <trkpt lat="45.23312" lon="4.60145">
        <ele>451.456596</ele>
        <time>2026-06-23T11:12:20.152Z</time>
      </trkpt>
      <trkpt lat="45.23325" lon="4.60158">
        <ele>451.451164</ele>
        <time>2026-06-23T11:12:22.145Z</time>
      </trkpt>
      <trkpt lat="45.23337" lon="4.60172">
        <ele>451.445604</ele>
        <time>2026-06-23T11:12:24.148Z</time>
      </trkpt>
      <trkpt lat="45.23348" lon="4.60184">
        <ele>451.440772</ele>
        <time>2026-06-23T11:12:26.143Z</time>
      </trkpt>
      <trkpt lat="45.23358" lon="4.60196">
        <ele>451.436079</ele>
        <time>2026-06-23T11:12:28.145Z</time>
      </trkpt>
      <trkpt lat="45.23369" lon="4.60209">
        <ele>451.431343</ele>
        <time>2026-06-23T11:12:30.147Z</time>
      </trkpt>
      <trkpt lat="45.23379" lon="4.60221">
        <ele>451.426728</ele>
        <time>2026-06-23T11:12:32.150Z</time>
      </trkpt>
      <trkpt lat="45.23389" lon="4.60232">
        <ele>451.422217</ele>
        <time>2026-06-23T11:12:34.145Z</time>
      </trkpt>
      <trkpt lat="45.23399" lon="4.60243">
        <ele>451.378732</ele>
        <time>2026-06-23T11:12:36.148Z</time>
      </trkpt>
      <trkpt lat="45.23407" lon="4.60254">
        <ele>451.335523</ele>
        <time>2026-06-23T11:12:38.148Z</time>
      </trkpt>
      <trkpt lat="45.23415" lon="4.60265">
        <ele>451.29338</ele>
        <time>2026-06-23T11:12:40.150Z</time>
      </trkpt>
      <trkpt lat="45.23423" lon="4.60277">
        <ele>451.24849</ele>
        <time>2026-06-23T11:12:42.148Z</time>
      </trkpt>
      <trkpt lat="45.23431" lon="4.6029">
        <ele>451.203528</ele>
        <time>2026-06-23T11:12:44.154Z</time>
      </trkpt>
      <trkpt lat="45.23438" lon="4.60303">
        <ele>451.160537</ele>
        <time>2026-06-23T11:12:46.144Z</time>
      </trkpt>
      <trkpt lat="45.23445" lon="4.60316">
        <ele>451.113818</ele>
        <time>2026-06-23T11:12:48.147Z</time>
      </trkpt>
      <trkpt lat="45.23454" lon="4.6033">
        <ele>451.064882</ele>
        <time>2026-06-23T11:12:50.147Z</time>
      </trkpt>
      <trkpt lat="45.23462" lon="4.60344">
        <ele>451.017348</ele>
        <time>2026-06-23T11:12:52.148Z</time>
      </trkpt>
      <trkpt lat="45.23471" lon="4.60359">
        <ele>450.964225</ele>
        <time>2026-06-23T11:12:54.147Z</time>
      </trkpt>
      <trkpt lat="45.2348" lon="4.60375">
        <ele>450.908923</ele>
        <time>2026-06-23T11:12:56.151Z</time>
      </trkpt>
      <trkpt lat="45.23489" lon="4.60389">
        <ele>450.857405</ele>
        <time>2026-06-23T11:12:58.151Z</time>
      </trkpt>
      <trkpt lat="45.23497" lon="4.60405">
        <ele>450.80591</ele>
        <time>2026-06-23T11:13:00.152Z</time>
      </trkpt>
      <trkpt lat="45.23504" lon="4.60422">
        <ele>450.752052</ele>
        <time>2026-06-23T11:13:02.150Z</time>
      </trkpt>
      <trkpt lat="45.2351" lon="4.6044">
        <ele>450.604208</ele>
        <time>2026-06-23T11:13:04.149Z</time>
      </trkpt>
      <trkpt lat="45.23515" lon="4.6046">
        <ele>450.414731</ele>
        <time>2026-06-23T11:13:06.149Z</time>
      </trkpt>
      <trkpt lat="45.23519" lon="4.60481">
        <ele>450.214786</ele>
        <time>2026-06-23T11:13:08.149Z</time>
      </trkpt>
      <trkpt lat="45.23523" lon="4.60501">
        <ele>450.019906</ele>
        <time>2026-06-23T11:13:10.150Z</time>
      </trkpt>
      <trkpt lat="45.23526" lon="4.60522">
        <ele>449.823895</ele>
        <time>2026-06-23T11:13:12.147Z</time>
      </trkpt>
      <trkpt lat="45.2353" lon="4.60543">
        <ele>449.623104</ele>
        <time>2026-06-23T11:13:14.147Z</time>
      </trkpt>
      <trkpt lat="45.23534" lon="4.60565">
        <ele>449.418669</ele>
        <time>2026-06-23T11:13:16.148Z</time>
      </trkpt>
      <trkpt lat="45.23538" lon="4.60586">
        <ele>449.213103</ele>
        <time>2026-06-23T11:13:18.152Z</time>
      </trkpt>
      <trkpt lat="45.23541" lon="4.60608">
        <ele>449.012029</ele>
        <time>2026-06-23T11:13:20.142Z</time>
      </trkpt>
      <trkpt lat="45.23545" lon="4.60629">
        <ele>448.812035</ele>
        <time>2026-06-23T11:13:22.143Z</time>
      </trkpt>
      <trkpt lat="45.23549" lon="4.6065">
        <ele>448.609711</ele>
        <time>2026-06-23T11:13:24.155Z</time>
      </trkpt>
      <trkpt lat="45.23553" lon="4.60671">
        <ele>448.408316</ele>
        <time>2026-06-23T11:13:26.147Z</time>
      </trkpt>
      <trkpt lat="45.23556" lon="4.60692">
        <ele>448.501925</ele>
        <time>2026-06-23T11:13:28.149Z</time>
      </trkpt>
      <trkpt lat="45.23559" lon="4.60713">
        <ele>448.628559</ele>
        <time>2026-06-23T11:13:30.149Z</time>
      </trkpt>
      <trkpt lat="45.23564" lon="4.60733">
        <ele>448.750341</ele>
        <time>2026-06-23T11:13:32.144Z</time>
      </trkpt>
      <trkpt lat="45.23567" lon="4.60753">
        <ele>448.865439</ele>
        <time>2026-06-23T11:13:34.144Z</time>
      </trkpt>
      <trkpt lat="45.2357" lon="4.6077">
        <ele>448.970138</ele>
        <time>2026-06-23T11:13:36.149Z</time>
      </trkpt>
      <trkpt lat="45.23573" lon="4.60788">
        <ele>449.076084</ele>
        <time>2026-06-23T11:13:38.144Z</time>
      </trkpt>
      <trkpt lat="45.23577" lon="4.60804">
        <ele>449.175975</ele>
        <time>2026-06-23T11:13:40.146Z</time>
      </trkpt>
      <trkpt lat="45.2358" lon="4.60819">
        <ele>449.268468</ele>
        <time>2026-06-23T11:13:42.145Z</time>
      </trkpt>
      <trkpt lat="45.23581" lon="4.60836">
        <ele>449.365705</ele>
        <time>2026-06-23T11:13:44.145Z</time>
      </trkpt>
      <trkpt lat="45.23584" lon="4.60852">
        <ele>449.45893</ele>
        <time>2026-06-23T11:13:46.152Z</time>
      </trkpt>
      <trkpt lat="45.23586" lon="4.60867">
        <ele>449.549872</ele>
        <time>2026-06-23T11:13:48.151Z</time>
      </trkpt>
      <trkpt lat="45.23588" lon="4.60883">
        <ele>449.644749</ele>
        <time>2026-06-23T11:13:50.156Z</time>
      </trkpt>
      <trkpt lat="45.23591" lon="4.60898">
        <ele>449.733013</ele>
        <time>2026-06-23T11:13:52.146Z</time>
      </trkpt>
      <trkpt lat="45.23593" lon="4.60912">
        <ele>449.81777</ele>
        <time>2026-06-23T11:13:54.156Z</time>
      </trkpt>
      <trkpt lat="45.23596" lon="4.60926">
        <ele>449.952689</ele>
        <time>2026-06-23T11:13:56.153Z</time>
      </trkpt>
      <trkpt lat="45.23598" lon="4.60941">
        <ele>450.180476</ele>
        <time>2026-06-23T11:13:58.145Z</time>
      </trkpt>
      <trkpt lat="45.236" lon="4.60955">
        <ele>450.396469</ele>
        <time>2026-06-23T11:14:00.146Z</time>
      </trkpt>
      <trkpt lat="45.23602" lon="4.60969">
        <ele>450.612254</ele>
        <time>2026-06-23T11:14:02.149Z</time>
      </trkpt>
      <trkpt lat="45.23603" lon="4.60983">
        <ele>450.834458</ele>
        <time>2026-06-23T11:14:04.139Z</time>
      </trkpt>
      <trkpt lat="45.23605" lon="4.60998">
        <ele>451.061339</ele>
        <time>2026-06-23T11:14:06.148Z</time>
      </trkpt>
      <trkpt lat="45.23606" lon="4.61014">
        <ele>451.302359</ele>
        <time>2026-06-23T11:14:08.149Z</time>
      </trkpt>
      <trkpt lat="45.23608" lon="4.61029">
        <ele>451.530926</ele>
        <time>2026-06-23T11:14:10.154Z</time>
      </trkpt>
      <trkpt lat="45.2361" lon="4.61043">
        <ele>451.750916</ele>
        <time>2026-06-23T11:14:12.140Z</time>
      </trkpt>
      <trkpt lat="45.23612" lon="4.61058">
        <ele>451.977988</ele>
        <time>2026-06-23T11:14:14.162Z</time>
      </trkpt>
      <trkpt lat="45.23613" lon="4.61071">
        <ele>452.184466</ele>
        <time>2026-06-23T11:14:16.146Z</time>
      </trkpt>
      <trkpt lat="45.23615" lon="4.61085">
        <ele>452.405564</ele>
        <time>2026-06-23T11:14:18.147Z</time>
      </trkpt>
      <trkpt lat="45.23617" lon="4.61099">
        <ele>452.614318</ele>
        <time>2026-06-23T11:14:20.148Z</time>
      </trkpt>
      <trkpt lat="45.23619" lon="4.61114">
        <ele>452.845131</ele>
        <time>2026-06-23T11:14:22.144Z</time>
      </trkpt>
      <trkpt lat="45.23621" lon="4.61127">
        <ele>453.048632</ele>
        <time>2026-06-23T11:14:24.142Z</time>
      </trkpt>
      <trkpt lat="45.23623" lon="4.6114">
        <ele>453.259288</ele>
        <time>2026-06-23T11:14:26.167Z</time>
      </trkpt>
      <trkpt lat="45.23624" lon="4.61154">
        <ele>453.461791</ele>
        <time>2026-06-23T11:14:28.145Z</time>
      </trkpt>
      <trkpt lat="45.23626" lon="4.61172">
        <ele>453.742527</ele>
        <time>2026-06-23T11:14:31.148Z</time>
      </trkpt>
      <trkpt lat="45.23628" lon="4.61185">
        <ele>453.948115</ele>
        <time>2026-06-23T11:14:33.145Z</time>
      </trkpt>
      <trkpt lat="45.2363" lon="4.61199">
        <ele>454.153936</ele>
        <time>2026-06-23T11:14:35.147Z</time>
      </trkpt>
      <trkpt lat="45.23632" lon="4.61212">
        <ele>454.360428</ele>
        <time>2026-06-23T11:14:37.152Z</time>
      </trkpt>
      <trkpt lat="45.23634" lon="4.61225">
        <ele>454.556187</ele>
        <time>2026-06-23T11:14:39.145Z</time>
      </trkpt>
      <trkpt lat="45.23635" lon="4.61243">
        <ele>454.834562</ele>
        <time>2026-06-23T11:14:42.145Z</time>
      </trkpt>
      <trkpt lat="45.23636" lon="4.61256">
        <ele>455.030679</ele>
        <time>2026-06-23T11:14:44.151Z</time>
      </trkpt>
      <trkpt lat="45.23637" lon="4.6127">
        <ele>455.235755</ele>
        <time>2026-06-23T11:14:46.140Z</time>
      </trkpt>
      <trkpt lat="45.23639" lon="4.61283">
        <ele>455.436344</ele>
        <time>2026-06-23T11:14:48.149Z</time>
      </trkpt>
      <trkpt lat="45.23641" lon="4.61297">
        <ele>455.646615</ele>
        <time>2026-06-23T11:14:50.152Z</time>
      </trkpt>
      <trkpt lat="45.23643" lon="4.61311">
        <ele>455.860121</ele>
        <time>2026-06-23T11:14:52.144Z</time>
      </trkpt>
      <trkpt lat="45.23645" lon="4.6133">
        <ele>456.153959</ele>
        <time>2026-06-23T11:14:55.155Z</time>
      </trkpt>
      <trkpt lat="45.23648" lon="4.61345">
        <ele>456.385617</ele>
        <time>2026-06-23T11:14:57.149Z</time>
      </trkpt>
      <trkpt lat="45.2365" lon="4.61359">
        <ele>456.597359</ele>
        <time>2026-06-23T11:14:59.155Z</time>
      </trkpt>
      <trkpt lat="45.23652" lon="4.61372">
        <ele>456.807207</ele>
        <time>2026-06-23T11:15:01.153Z</time>
      </trkpt>
      <trkpt lat="45.23654" lon="4.61388">
        <ele>457.05058</ele>
        <time>2026-06-23T11:15:03.146Z</time>
      </trkpt>
      <trkpt lat="45.23656" lon="4.61403">
        <ele>457.280421</ele>
        <time>2026-06-23T11:15:05.145Z</time>
      </trkpt>
      <trkpt lat="45.23658" lon="4.61417">
        <ele>457.489392</ele>
        <time>2026-06-23T11:15:07.146Z</time>
      </trkpt>
      <trkpt lat="45.23659" lon="4.61432">
        <ele>457.488496</ele>
        <time>2026-06-23T11:15:09.146Z</time>
      </trkpt>
      <trkpt lat="45.2366" lon="4.61448">
        <ele>457.291977</ele>
        <time>2026-06-23T11:15:11.145Z</time>
      </trkpt>
      <trkpt lat="45.23662" lon="4.61463">
        <ele>457.096711</ele>
        <time>2026-06-23T11:15:13.144Z</time>
      </trkpt>
      <trkpt lat="45.23664" lon="4.61479">
        <ele>456.88881</ele>
        <time>2026-06-23T11:15:15.149Z</time>
      </trkpt>
      <trkpt lat="45.23667" lon="4.61496">
        <ele>456.67016</ele>
        <time>2026-06-23T11:15:17.147Z</time>
      </trkpt>
      <trkpt lat="45.2367" lon="4.61513">
        <ele>456.454294</ele>
        <time>2026-06-23T11:15:19.148Z</time>
      </trkpt>
      <trkpt lat="45.23672" lon="4.61529">
        <ele>456.239534</ele>
        <time>2026-06-23T11:15:21.144Z</time>
      </trkpt>
      <trkpt lat="45.23674" lon="4.61546">
        <ele>456.027227</ele>
        <time>2026-06-23T11:15:23.152Z</time>
      </trkpt>
      <trkpt lat="45.23675" lon="4.61563">
        <ele>455.80585</ele>
        <time>2026-06-23T11:15:25.155Z</time>
      </trkpt>
      <trkpt lat="45.23677" lon="4.61582">
        <ele>455.562918</ele>
        <time>2026-06-23T11:15:27.152Z</time>
      </trkpt>
      <trkpt lat="45.23675" lon="4.616">
        <ele>455.339094</ele>
        <time>2026-06-23T11:15:29.145Z</time>
      </trkpt>
      <trkpt lat="45.23671" lon="4.61616">
        <ele>455.123797</ele>
        <time>2026-06-23T11:15:31.150Z</time>
      </trkpt>
      <trkpt lat="45.23667" lon="4.61634">
        <ele>454.883127</ele>
        <time>2026-06-23T11:15:33.155Z</time>
      </trkpt>
      <trkpt lat="45.23662" lon="4.61653">
        <ele>454.627968</ele>
        <time>2026-06-23T11:15:35.148Z</time>
      </trkpt>
      <trkpt lat="45.23658" lon="4.61674">
        <ele>454.336071</ele>
        <time>2026-06-23T11:15:37.144Z</time>
      </trkpt>
      <trkpt lat="45.23657" lon="4.61697">
        <ele>453.560707</ele>
        <time>2026-06-23T11:15:39.152Z</time>
      </trkpt>
      <trkpt lat="45.23661" lon="4.61721">
        <ele>452.757893</ele>
        <time>2026-06-23T11:15:41.153Z</time>
      </trkpt>
      <trkpt lat="45.23667" lon="4.61745">
        <ele>451.903984</ele>
        <time>2026-06-23T11:15:43.152Z</time>
      </trkpt>
      <trkpt lat="45.23671" lon="4.61757">
        <ele>451.472573</ele>
        <time>2026-06-23T11:15:44.142Z</time>
      </trkpt>
      <trkpt lat="45.23674" lon="4.61769">
        <ele>451.036577</ele>
        <time>2026-06-23T11:15:45.148Z</time>
      </trkpt>
      <trkpt lat="45.23678" lon="4.61782">
        <ele>450.576838</ele>
        <time>2026-06-23T11:15:46.147Z</time>
      </trkpt>
      <trkpt lat="45.23684" lon="4.61806">
        <ele>449.747819</ele>
        <time>2026-06-23T11:15:48.147Z</time>
      </trkpt>
      <trkpt lat="45.23687" lon="4.61818">
        <ele>449.309098</ele>
        <time>2026-06-23T11:15:49.145Z</time>
      </trkpt>
      <trkpt lat="45.23691" lon="4.61832">
        <ele>448.814771</ele>
        <time>2026-06-23T11:15:50.147Z</time>
      </trkpt>
      <trkpt lat="45.23697" lon="4.61856">
        <ele>447.960809</ele>
        <time>2026-06-23T11:15:52.153Z</time>
      </trkpt>
      <trkpt lat="45.23699" lon="4.61869">
        <ele>447.535305</ele>
        <time>2026-06-23T11:15:53.146Z</time>
      </trkpt>
      <trkpt lat="45.237" lon="4.61882">
        <ele>447.086044</ele>
        <time>2026-06-23T11:15:54.143Z</time>
      </trkpt>
      <trkpt lat="45.23699" lon="4.61896">
        <ele>446.624475</ele>
        <time>2026-06-23T11:15:55.145Z</time>
      </trkpt>
      <trkpt lat="45.23697" lon="4.6191">
        <ele>446.155132</ele>
        <time>2026-06-23T11:15:56.154Z</time>
      </trkpt>
      <trkpt lat="45.23693" lon="4.61922">
        <ele>445.760853</ele>
        <time>2026-06-23T11:15:57.143Z</time>
      </trkpt>
      <trkpt lat="45.2369" lon="4.61935">
        <ele>445.400282</ele>
        <time>2026-06-23T11:15:58.147Z</time>
      </trkpt>
      <trkpt lat="45.23687" lon="4.61949">
        <ele>445.041789</ele>
        <time>2026-06-23T11:15:59.145Z</time>
      </trkpt>
      <trkpt lat="45.23685" lon="4.61963">
        <ele>444.66204</ele>
        <time>2026-06-23T11:16:00.145Z</time>
      </trkpt>
      <trkpt lat="45.23684" lon="4.61976">
        <ele>444.321552</ele>
        <time>2026-06-23T11:16:01.148Z</time>
      </trkpt>
      <trkpt lat="45.23684" lon="4.6199">
        <ele>443.949232</ele>
        <time>2026-06-23T11:16:02.148Z</time>
      </trkpt>
      <trkpt lat="45.23686" lon="4.62004">
        <ele>443.580981</ele>
        <time>2026-06-23T11:16:03.153Z</time>
      </trkpt>
      <trkpt lat="45.23689" lon="4.62019">
        <ele>443.182987</ele>
        <time>2026-06-23T11:16:04.146Z</time>
      </trkpt>
      <trkpt lat="45.23692" lon="4.62033">
        <ele>442.79887</ele>
        <time>2026-06-23T11:16:05.145Z</time>
      </trkpt>
      <trkpt lat="45.23695" lon="4.62047">
        <ele>442.405869</ele>
        <time>2026-06-23T11:16:06.156Z</time>
      </trkpt>
      <trkpt lat="45.23698" lon="4.62061">
        <ele>442.02311</ele>
        <time>2026-06-23T11:16:07.145Z</time>
      </trkpt>
      <trkpt lat="45.23701" lon="4.62075">
        <ele>441.642567</ele>
        <time>2026-06-23T11:16:08.147Z</time>
      </trkpt>
      <trkpt lat="45.23704" lon="4.6209">
        <ele>441.247421</ele>
        <time>2026-06-23T11:16:09.144Z</time>
      </trkpt>
      <trkpt lat="45.23707" lon="4.62105">
        <ele>440.848385</ele>
        <time>2026-06-23T11:16:10.125Z</time>
      </trkpt>
      <trkpt lat="45.23711" lon="4.62119">
        <ele>440.448274</ele>
        <time>2026-06-23T11:16:11.120Z</time>
      </trkpt>
      <trkpt lat="45.23714" lon="4.62134">
        <ele>440.052009</ele>
        <time>2026-06-23T11:16:12.132Z</time>
      </trkpt>
      <trkpt lat="45.23718" lon="4.62148">
        <ele>439.65584</ele>
        <time>2026-06-23T11:16:13.146Z</time>
      </trkpt>
      <trkpt lat="45.23723" lon="4.62162">
        <ele>439.26088</ele>
        <time>2026-06-23T11:16:14.130Z</time>
      </trkpt>
      <trkpt lat="45.23729" lon="4.62174">
        <ele>439.011231</ele>
        <time>2026-06-23T11:16:15.139Z</time>
      </trkpt>
      <trkpt lat="45.23736" lon="4.62187">
        <ele>438.752939</ele>
        <time>2026-06-23T11:16:16.121Z</time>
      </trkpt>
      <trkpt lat="45.23742" lon="4.62199">
        <ele>438.497903</ele>
        <time>2026-06-23T11:16:17.118Z</time>
      </trkpt>
      <trkpt lat="45.23749" lon="4.62211">
        <ele>438.241241</ele>
        <time>2026-06-23T11:16:18.147Z</time>
      </trkpt>
      <trkpt lat="45.23756" lon="4.62224">
        <ele>437.981849</ele>
        <time>2026-06-23T11:16:19.153Z</time>
      </trkpt>
      <trkpt lat="45.23763" lon="4.62235">
        <ele>437.726985</ele>
        <time>2026-06-23T11:16:20.148Z</time>
      </trkpt>
      <trkpt lat="45.2377" lon="4.62247">
        <ele>437.473487</ele>
        <time>2026-06-23T11:16:21.154Z</time>
      </trkpt>
      <trkpt lat="45.23777" lon="4.62259">
        <ele>437.223702</ele>
        <time>2026-06-23T11:16:22.144Z</time>
      </trkpt>
      <trkpt lat="45.23783" lon="4.62271">
        <ele>436.974098</ele>
        <time>2026-06-23T11:16:23.145Z</time>
      </trkpt>
      <trkpt lat="45.2379" lon="4.62283">
        <ele>436.726373</ele>
        <time>2026-06-23T11:16:24.144Z</time>
      </trkpt>
      <trkpt lat="45.23796" lon="4.62295">
        <ele>436.472715</ele>
        <time>2026-06-23T11:16:25.144Z</time>
      </trkpt>
      <trkpt lat="45.23803" lon="4.62308">
        <ele>436.215033</ele>
        <time>2026-06-23T11:16:26.155Z</time>
      </trkpt>
      <trkpt lat="45.23809" lon="4.62321">
        <ele>435.961361</ele>
        <time>2026-06-23T11:16:27.154Z</time>
      </trkpt>
      <trkpt lat="45.23815" lon="4.62333">
        <ele>435.71574</ele>
        <time>2026-06-23T11:16:28.145Z</time>
      </trkpt>
      <trkpt lat="45.23821" lon="4.62346">
        <ele>435.465921</ele>
        <time>2026-06-23T11:16:29.149Z</time>
      </trkpt>
      <trkpt lat="45.23826" lon="4.62359">
        <ele>435.224805</ele>
        <time>2026-06-23T11:16:30.150Z</time>
      </trkpt>
      <trkpt lat="45.2383" lon="4.62372">
        <ele>435.132836</ele>
        <time>2026-06-23T11:16:31.153Z</time>
      </trkpt>
      <trkpt lat="45.23834" lon="4.62386">
        <ele>435.260127</ele>
        <time>2026-06-23T11:16:32.144Z</time>
      </trkpt>
      <trkpt lat="45.23839" lon="4.624">
        <ele>435.388372</ele>
        <time>2026-06-23T11:16:33.149Z</time>
      </trkpt>
      <trkpt lat="45.23843" lon="4.62413">
        <ele>435.51408</ele>
        <time>2026-06-23T11:16:34.144Z</time>
      </trkpt>
      <trkpt lat="45.23847" lon="4.62426">
        <ele>435.635281</ele>
        <time>2026-06-23T11:16:35.113Z</time>
      </trkpt>
      <trkpt lat="45.2385" lon="4.62439">
        <ele>435.756775</ele>
        <time>2026-06-23T11:16:36.126Z</time>
      </trkpt>
      <trkpt lat="45.23854" lon="4.62452">
        <ele>435.877031</ele>
        <time>2026-06-23T11:16:37.153Z</time>
      </trkpt>
      <trkpt lat="45.23857" lon="4.62466">
        <ele>435.999697</ele>
        <time>2026-06-23T11:16:38.123Z</time>
      </trkpt>
      <trkpt lat="45.2386" lon="4.62479">
        <ele>436.121657</ele>
        <time>2026-06-23T11:16:39.149Z</time>
      </trkpt>
      <trkpt lat="45.23862" lon="4.62492">
        <ele>436.234925</ele>
        <time>2026-06-23T11:16:40.151Z</time>
      </trkpt>
      <trkpt lat="45.23862" lon="4.62507">
        <ele>436.359381</ele>
        <time>2026-06-23T11:16:41.144Z</time>
      </trkpt>
      <trkpt lat="45.23861" lon="4.6252">
        <ele>436.473203</ele>
        <time>2026-06-23T11:16:42.140Z</time>
      </trkpt>
      <trkpt lat="45.23859" lon="4.62534">
        <ele>436.592393</ele>
        <time>2026-06-23T11:16:43.136Z</time>
      </trkpt>
      <trkpt lat="45.23857" lon="4.62547">
        <ele>436.707076</ele>
        <time>2026-06-23T11:16:44.148Z</time>
      </trkpt>
      <trkpt lat="45.23852" lon="4.62571">
        <ele>436.922122</ele>
        <time>2026-06-23T11:16:46.129Z</time>
      </trkpt>
      <trkpt lat="45.23848" lon="4.62596">
        <ele>437.143379</ele>
        <time>2026-06-23T11:16:48.117Z</time>
      </trkpt>
      <trkpt lat="45.23845" lon="4.62608">
        <ele>437.253964</ele>
        <time>2026-06-23T11:16:49.127Z</time>
      </trkpt>
      <trkpt lat="45.23843" lon="4.62621">
        <ele>436.923794</ele>
        <time>2026-06-23T11:16:50.136Z</time>
      </trkpt>
      <trkpt lat="45.23841" lon="4.62634">
        <ele>436.505652</ele>
        <time>2026-06-23T11:16:51.156Z</time>
      </trkpt>
      <trkpt lat="45.23838" lon="4.62646">
        <ele>436.096019</ele>
        <time>2026-06-23T11:16:52.137Z</time>
      </trkpt>
      <trkpt lat="45.23831" lon="4.62669">
        <ele>435.287484</ele>
        <time>2026-06-23T11:16:54.144Z</time>
      </trkpt>
      <trkpt lat="45.23825" lon="4.62681">
        <ele>434.861602</ele>
        <time>2026-06-23T11:16:55.151Z</time>
      </trkpt>
      <trkpt lat="45.23819" lon="4.62691">
        <ele>434.446963</ele>
        <time>2026-06-23T11:16:56.147Z</time>
      </trkpt>
      <trkpt lat="45.23814" lon="4.62701">
        <ele>434.033944</ele>
        <time>2026-06-23T11:16:57.149Z</time>
      </trkpt>
      <trkpt lat="45.23808" lon="4.62711">
        <ele>433.620495</ele>
        <time>2026-06-23T11:16:58.120Z</time>
      </trkpt>
      <trkpt lat="45.23801" lon="4.62722">
        <ele>433.167285</ele>
        <time>2026-06-23T11:16:59.126Z</time>
      </trkpt>
      <trkpt lat="45.23794" lon="4.62733">
        <ele>432.696213</ele>
        <time>2026-06-23T11:17:00.124Z</time>
      </trkpt>
      <trkpt lat="45.23789" lon="4.62744">
        <ele>432.27503</ele>
        <time>2026-06-23T11:17:01.149Z</time>
      </trkpt>
      <trkpt lat="45.23783" lon="4.62755">
        <ele>431.856885</ele>
        <time>2026-06-23T11:17:02.149Z</time>
      </trkpt>
      <trkpt lat="45.23774" lon="4.62776">
        <ele>431.078665</ele>
        <time>2026-06-23T11:17:04.137Z</time>
      </trkpt>
      <trkpt lat="45.23766" lon="4.62795">
        <ele>430.367942</ele>
        <time>2026-06-23T11:17:06.147Z</time>
      </trkpt>
      <trkpt lat="45.23758" lon="4.62815">
        <ele>429.65021</ele>
        <time>2026-06-23T11:17:08.148Z</time>
      </trkpt>
      <trkpt lat="45.23749" lon="4.62832">
        <ele>429.117425</ele>
        <time>2026-06-23T11:17:10.148Z</time>
      </trkpt>
      <trkpt lat="45.23738" lon="4.62847">
        <ele>428.83083</ele>
        <time>2026-06-23T11:17:12.149Z</time>
      </trkpt>
      <trkpt lat="45.23725" lon="4.62858">
        <ele>428.542281</ele>
        <time>2026-06-23T11:17:14.148Z</time>
      </trkpt>
      <trkpt lat="45.23711" lon="4.62868">
        <ele>428.261549</ele>
        <time>2026-06-23T11:17:16.148Z</time>
      </trkpt>
      <trkpt lat="45.23695" lon="4.62873">
        <ele>427.956936</ele>
        <time>2026-06-23T11:17:18.153Z</time>
      </trkpt>
      <trkpt lat="45.23678" lon="4.62877">
        <ele>427.651564</ele>
        <time>2026-06-23T11:17:20.146Z</time>
      </trkpt>
      <trkpt lat="45.23669" lon="4.6288">
        <ele>427.481913</ele>
        <time>2026-06-23T11:17:21.160Z</time>
      </trkpt>
      <trkpt lat="45.2366" lon="4.62884">
        <ele>427.305318</ele>
        <time>2026-06-23T11:17:22.149Z</time>
      </trkpt>
      <trkpt lat="45.23646" lon="4.62895">
        <ele>426.996285</ele>
        <time>2026-06-23T11:17:24.145Z</time>
      </trkpt>
      <trkpt lat="45.23633" lon="4.6291">
        <ele>426.700267</ele>
        <time>2026-06-23T11:17:26.147Z</time>
      </trkpt>
      <trkpt lat="45.23624" lon="4.62929">
        <ele>426.406532</ele>
        <time>2026-06-23T11:17:28.155Z</time>
      </trkpt>
      <trkpt lat="45.23617" lon="4.62949">
        <ele>426.112723</ele>
        <time>2026-06-23T11:17:30.143Z</time>
      </trkpt>
      <trkpt lat="45.23613" lon="4.6297">
        <ele>426.164281</ele>
        <time>2026-06-23T11:17:32.141Z</time>
      </trkpt>
      <trkpt lat="45.23611" lon="4.6299">
        <ele>427.232068</ele>
        <time>2026-06-23T11:17:34.147Z</time>
      </trkpt>
      <trkpt lat="45.23611" lon="4.63008">
        <ele>428.165679</ele>
        <time>2026-06-23T11:17:36.144Z</time>
      </trkpt>
      <trkpt lat="45.23611" lon="4.63022">
        <ele>428.931063</ele>
        <time>2026-06-23T11:17:38.159Z</time>
      </trkpt>
      <trkpt lat="45.23611" lon="4.63035">
        <ele>429.617112</ele>
        <time>2026-06-23T11:17:40.146Z</time>
      </trkpt>
      <trkpt lat="45.2361" lon="4.63051">
        <ele>430.435512</ele>
        <time>2026-06-23T11:17:43.148Z</time>
      </trkpt>
      <trkpt lat="45.23609" lon="4.63064">
        <ele>431.123806</ele>
        <time>2026-06-23T11:17:46.145Z</time>
      </trkpt>
      <trkpt lat="45.23611" lon="4.63082">
        <ele>432.09555</ele>
        <time>2026-06-23T11:18:34.156Z</time>
      </trkpt>
      <trkpt lat="45.23608" lon="4.63099">
        <ele>432.999304</ele>
        <time>2026-06-23T11:18:37.146Z</time>
      </trkpt>
      <trkpt lat="45.23605" lon="4.63115">
        <ele>433.878672</ele>
        <time>2026-06-23T11:18:39.148Z</time>
      </trkpt>
      <trkpt lat="45.23599" lon="4.63129">
        <ele>434.724239</ele>
        <time>2026-06-23T11:18:41.144Z</time>
      </trkpt>
      <trkpt lat="45.23592" lon="4.63145">
        <ele>435.746407</ele>
        <time>2026-06-23T11:18:43.136Z</time>
      </trkpt>
      <trkpt lat="45.23579" lon="4.63159">
        <ele>436.945393</ele>
        <time>2026-06-23T11:18:45.141Z</time>
      </trkpt>
      <trkpt lat="45.23565" lon="4.63168">
        <ele>438.143702</ele>
        <time>2026-06-23T11:18:47.136Z</time>
      </trkpt>
      <trkpt lat="45.23553" lon="4.63182">
        <ele>439.233883</ele>
        <time>2026-06-23T11:18:49.143Z</time>
      </trkpt>
      <trkpt lat="45.2354" lon="4.63195">
        <ele>439.792571</ele>
        <time>2026-06-23T11:18:51.148Z</time>
      </trkpt>
      <trkpt lat="45.23526" lon="4.63205">
        <ele>440.246637</ele>
        <time>2026-06-23T11:18:53.143Z</time>
      </trkpt>
      <trkpt lat="45.23513" lon="4.63221">
        <ele>440.7464</ele>
        <time>2026-06-23T11:18:55.114Z</time>
      </trkpt>
      <trkpt lat="45.23501" lon="4.63238">
        <ele>441.246565</ele>
        <time>2026-06-23T11:18:57.147Z</time>
      </trkpt>
      <trkpt lat="45.23492" lon="4.63256">
        <ele>441.695138</ele>
        <time>2026-06-23T11:18:59.137Z</time>
      </trkpt>
      <trkpt lat="45.23483" lon="4.63273">
        <ele>442.137277</ele>
        <time>2026-06-23T11:19:01.135Z</time>
      </trkpt>
      <trkpt lat="45.2342" lon="4.63454">
        <ele>444.671684</ele>
        <time>2026-06-23T11:19:18.141Z</time>
      </trkpt>
      <trkpt lat="45.22728" lon="4.685">
        <ele>418.80819</ele>
        <time>2026-06-23T11:34:25.155Z</time>
      </trkpt>
      <trkpt lat="45.22718" lon="4.68507">
        <ele>414.802188</ele>
        <time>2026-06-23T11:34:29.152Z</time>
      </trkpt>
      <trkpt lat="45.22708" lon="4.68511">
        <ele>410.821698</ele>
        <time>2026-06-23T11:34:33.142Z</time>
      </trkpt>
      <trkpt lat="45.22705" lon="4.68524">
        <ele>407.361441</ele>
        <time>2026-06-23T11:34:38.141Z</time>
      </trkpt>
      <trkpt lat="45.227" lon="4.6854">
        <ele>402.893964</ele>
        <time>2026-06-23T11:34:42.127Z</time>
      </trkpt>
      <trkpt lat="45.22692" lon="4.68551">
        <ele>398.729005</ele>
        <time>2026-06-23T11:34:45.139Z</time>
      </trkpt>
      <trkpt lat="45.22683" lon="4.68556">
        <ele>395.081179</ele>
        <time>2026-06-23T11:34:48.139Z</time>
      </trkpt>
      <trkpt lat="45.22673" lon="4.68554">
        <ele>391.415664</ele>
        <time>2026-06-23T11:34:51.137Z</time>
      </trkpt>
      <trkpt lat="45.22664" lon="4.68561">
        <ele>387.956725</ele>
        <time>2026-06-23T11:34:54.134Z</time>
      </trkpt>
      <trkpt lat="45.22654" lon="4.68559">
        <ele>384.170069</ele>
        <time>2026-06-23T11:34:57.145Z</time>
      </trkpt>
      <trkpt lat="45.22648" lon="4.68572">
        <ele>382.249223</ele>
        <time>2026-06-23T11:35:01.139Z</time>
      </trkpt>
      <trkpt lat="45.22647" lon="4.68588">
        <ele>381.631695</ele>
        <time>2026-06-23T11:35:04.135Z</time>
      </trkpt>
      <trkpt lat="45.22649" lon="4.68609">
        <ele>380.847663</ele>
        <time>2026-06-23T11:35:06.137Z</time>
      </trkpt>
      <trkpt lat="45.2265" lon="4.68624">
        <ele>380.242716</ele>
        <time>2026-06-23T11:35:08.140Z</time>
      </trkpt>
      <trkpt lat="45.22646" lon="4.68637">
        <ele>379.734488</ele>
        <time>2026-06-23T11:35:11.135Z</time>
      </trkpt>
      <trkpt lat="45.22653" lon="4.68655">
        <ele>378.939576</ele>
        <time>2026-06-23T11:35:15.137Z</time>
      </trkpt>
      <trkpt lat="45.22661" lon="4.68667">
        <ele>378.3377</ele>
        <time>2026-06-23T11:35:17.137Z</time>
      </trkpt>
      <trkpt lat="45.22667" lon="4.68678">
        <ele>377.790341</ele>
        <time>2026-06-23T11:35:19.142Z</time>
      </trkpt>
      <trkpt lat="45.22671" lon="4.68694">
        <ele>377.142834</ele>
        <time>2026-06-23T11:35:22.140Z</time>
      </trkpt>
      <trkpt lat="45.22669" lon="4.68708">
        <ele>376.599971</ele>
        <time>2026-06-23T11:35:25.141Z</time>
      </trkpt>
      <trkpt lat="45.22658" lon="4.68711">
        <ele>376.017316</ele>
        <time>2026-06-23T11:35:27.138Z</time>
      </trkpt>
      <trkpt lat="45.22639" lon="4.68706">
        <ele>374.966018</ele>
        <time>2026-06-23T11:35:28.138Z</time>
      </trkpt>
      <trkpt lat="45.22629" lon="4.68719">
        <ele>374.208074</ele>
        <time>2026-06-23T11:35:29.143Z</time>
      </trkpt>
      <trkpt lat="45.22619" lon="4.68722">
        <ele>373.641138</ele>
        <time>2026-06-23T11:35:31.140Z</time>
      </trkpt>
      <trkpt lat="45.22608" lon="4.68727">
        <ele>373.039014</ele>
        <time>2026-06-23T11:35:34.136Z</time>
      </trkpt>
      <trkpt lat="45.22602" lon="4.68736">
        <ele>373.417787</ele>
        <time>2026-06-23T11:35:40.140Z</time>
      </trkpt>
      <trkpt lat="45.22595" lon="4.68747">
        <ele>374.478909</ele>
        <time>2026-06-23T11:35:45.140Z</time>
      </trkpt>
      <trkpt lat="45.22592" lon="4.68765">
        <ele>375.780353</ele>
        <time>2026-06-23T11:35:50.142Z</time>
      </trkpt>
      <trkpt lat="45.22592" lon="4.6878">
        <ele>376.875336</ele>
        <time>2026-06-23T11:35:53.153Z</time>
      </trkpt>
      <trkpt lat="45.22591" lon="4.68793">
        <ele>377.839938</ele>
        <time>2026-06-23T11:35:58.140Z</time>
      </trkpt>
      <trkpt lat="45.22594" lon="4.68808">
        <ele>378.934621</ele>
        <time>2026-06-23T11:36:05.153Z</time>
      </trkpt>
      <trkpt lat="45.22593" lon="4.68822">
        <ele>379.973235</ele>
        <time>2026-06-23T11:36:08.141Z</time>
      </trkpt>
      <trkpt lat="45.22594" lon="4.68836">
        <ele>381.022053</ele>
        <time>2026-06-23T11:36:11.138Z</time>
      </trkpt>
      <trkpt lat="45.22592" lon="4.6885">
        <ele>382.047788</ele>
        <time>2026-06-23T11:36:16.141Z</time>
      </trkpt>
      <trkpt lat="45.22597" lon="4.68863">
        <ele>383.104255</ele>
        <time>2026-06-23T11:36:19.144Z</time>
      </trkpt>
      <trkpt lat="45.22598" lon="4.6888">
        <ele>384.315435</ele>
        <time>2026-06-23T11:36:23.140Z</time>
      </trkpt>
      <trkpt lat="45.22603" lon="4.68894">
        <ele>385.484342</ele>
        <time>2026-06-23T11:36:28.143Z</time>
      </trkpt>
      <trkpt lat="45.22609" lon="4.68909">
        <ele>386.667446</ele>
        <time>2026-06-23T11:36:31.145Z</time>
      </trkpt>
      <trkpt lat="45.22615" lon="4.68919">
        <ele>387.619132</ele>
        <time>2026-06-23T11:36:33.138Z</time>
      </trkpt>
      <trkpt lat="45.2262" lon="4.68931">
        <ele>388.683371</ele>
        <time>2026-06-23T11:36:37.149Z</time>
      </trkpt>
      <trkpt lat="45.22625" lon="4.68944">
        <ele>389.72994</ele>
        <time>2026-06-23T11:36:42.141Z</time>
      </trkpt>
      <trkpt lat="45.22631" lon="4.68959">
        <ele>390.96861</ele>
        <time>2026-06-23T11:36:46.147Z</time>
      </trkpt>
      <trkpt lat="45.22635" lon="4.68973">
        <ele>392.334202</ele>
        <time>2026-06-23T11:36:50.139Z</time>
      </trkpt>
      <trkpt lat="45.22637" lon="4.68987">
        <ele>393.814391</ele>
        <time>2026-06-23T11:36:53.145Z</time>
      </trkpt>
      <trkpt lat="45.22643" lon="4.69004">
        <ele>395.677207</ele>
        <time>2026-06-23T11:36:56.142Z</time>
      </trkpt>
      <trkpt lat="45.22648" lon="4.6902">
        <ele>397.343385</ele>
        <time>2026-06-23T11:36:59.137Z</time>
      </trkpt>
      <trkpt lat="45.22654" lon="4.69034">
        <ele>399.003015</ele>
        <time>2026-06-23T11:37:03.141Z</time>
      </trkpt>
      <trkpt lat="45.2266" lon="4.69046">
        <ele>400.475747</ele>
        <time>2026-06-23T11:37:05.143Z</time>
      </trkpt>
      <trkpt lat="45.22667" lon="4.69056">
        <ele>401.877702</ele>
        <time>2026-06-23T11:37:08.139Z</time>
      </trkpt>
      <trkpt lat="45.22676" lon="4.69065">
        <ele>403.321283</ele>
        <time>2026-06-23T11:37:11.141Z</time>
      </trkpt>
      <trkpt lat="45.22684" lon="4.69072">
        <ele>404.691496</ele>
        <time>2026-06-23T11:37:14.139Z</time>
      </trkpt>
      <trkpt lat="45.22689" lon="4.69084">
        <ele>406.076152</ele>
        <time>2026-06-23T11:37:17.141Z</time>
      </trkpt>
      <trkpt lat="45.22698" lon="4.69092">
        <ele>407.528226</ele>
        <time>2026-06-23T11:37:21.140Z</time>
      </trkpt>
      <trkpt lat="45.22706" lon="4.69099">
        <ele>408.851236</ele>
        <time>2026-06-23T11:37:24.148Z</time>
      </trkpt>
      <trkpt lat="45.22717" lon="4.69099">
        <ele>410.438611</ele>
        <time>2026-06-23T11:37:28.146Z</time>
      </trkpt>
      <trkpt lat="45.22727" lon="4.69094">
        <ele>411.914681</ele>
        <time>2026-06-23T11:37:32.146Z</time>
      </trkpt>
      <trkpt lat="45.22737" lon="4.69095">
        <ele>413.407695</ele>
        <time>2026-06-23T11:37:35.143Z</time>
      </trkpt>
      <trkpt lat="45.22747" lon="4.69095">
        <ele>414.700412</ele>
        <time>2026-06-23T11:37:38.140Z</time>
      </trkpt>
      <trkpt lat="45.22755" lon="4.69107">
        <ele>416.313752</ele>
        <time>2026-06-23T11:37:42.149Z</time>
      </trkpt>
      <trkpt lat="45.22764" lon="4.69107">
        <ele>415.883085</ele>
        <time>2026-06-23T11:37:44.147Z</time>
      </trkpt>
      <trkpt lat="45.22775" lon="4.69107">
        <ele>415.132108</ele>
        <time>2026-06-23T11:37:47.141Z</time>
      </trkpt>
      <trkpt lat="45.22783" lon="4.69102">
        <ele>414.486423</ele>
        <time>2026-06-23T11:37:50.143Z</time>
      </trkpt>
      <trkpt lat="45.22793" lon="4.69096">
        <ele>413.718952</ele>
        <time>2026-06-23T11:37:54.150Z</time>
      </trkpt>
      <trkpt lat="45.22804" lon="4.691">
        <ele>412.972109</ele>
        <time>2026-06-23T11:37:58.147Z</time>
      </trkpt>
      <trkpt lat="45.22815" lon="4.69102">
        <ele>412.170983</ele>
        <time>2026-06-23T11:38:02.146Z</time>
      </trkpt>
      <trkpt lat="45.22826" lon="4.69104">
        <ele>411.417733</ele>
        <time>2026-06-23T11:38:05.142Z</time>
      </trkpt>
      <trkpt lat="45.22837" lon="4.69106">
        <ele>410.638147</ele>
        <time>2026-06-23T11:38:08.138Z</time>
      </trkpt>
      <trkpt lat="45.22847" lon="4.69109">
        <ele>409.922845</ele>
        <time>2026-06-23T11:38:11.143Z</time>
      </trkpt>
      <trkpt lat="45.22857" lon="4.69114">
        <ele>409.133949</ele>
        <time>2026-06-23T11:38:15.143Z</time>
      </trkpt>
      <trkpt lat="45.22868" lon="4.69113">
        <ele>408.379386</ele>
        <time>2026-06-23T11:38:18.140Z</time>
      </trkpt>
      <trkpt lat="45.22878" lon="4.69115">
        <ele>407.635909</ele>
        <time>2026-06-23T11:38:20.143Z</time>
      </trkpt>
      <trkpt lat="45.22889" lon="4.69119">
        <ele>406.866193</ele>
        <time>2026-06-23T11:38:23.136Z</time>
      </trkpt>
      <trkpt lat="45.229" lon="4.69112">
        <ele>406.036521</ele>
        <time>2026-06-23T11:38:27.138Z</time>
      </trkpt>
      <trkpt lat="45.2291" lon="4.69108">
        <ele>405.268059</ele>
        <time>2026-06-23T11:38:30.148Z</time>
      </trkpt>
      <trkpt lat="45.2292" lon="4.69105">
        <ele>404.591921</ele>
        <time>2026-06-23T11:38:33.145Z</time>
      </trkpt>
      <trkpt lat="45.22933" lon="4.69101">
        <ele>403.532369</ele>
        <time>2026-06-23T11:38:36.143Z</time>
      </trkpt>
      <trkpt lat="45.22944" lon="4.69101">
        <ele>402.570772</ele>
        <time>2026-06-23T11:38:38.143Z</time>
      </trkpt>
      <trkpt lat="45.22953" lon="4.69099">
        <ele>401.665463</ele>
        <time>2026-06-23T11:38:40.140Z</time>
      </trkpt>
      <trkpt lat="45.22962" lon="4.69095">
        <ele>400.798418</ele>
        <time>2026-06-23T11:38:42.141Z</time>
      </trkpt>
      <trkpt lat="45.22971" lon="4.69092">
        <ele>399.896916</ele>
        <time>2026-06-23T11:38:44.139Z</time>
      </trkpt>
      <trkpt lat="45.22981" lon="4.6909">
        <ele>398.930479</ele>
        <time>2026-06-23T11:38:46.137Z</time>
      </trkpt>
      <trkpt lat="45.22993" lon="4.69084">
        <ele>397.726739</ele>
        <time>2026-06-23T11:38:49.147Z</time>
      </trkpt>
      <trkpt lat="45.23001" lon="4.69078">
        <ele>396.873884</ele>
        <time>2026-06-23T11:38:51.145Z</time>
      </trkpt>
      <trkpt lat="45.23011" lon="4.6907">
        <ele>395.839431</ele>
        <time>2026-06-23T11:38:54.143Z</time>
      </trkpt>
      <trkpt lat="45.23021" lon="4.69065">
        <ele>394.835556</ele>
        <time>2026-06-23T11:38:57.147Z</time>
      </trkpt>
      <trkpt lat="45.23028" lon="4.69053">
        <ele>393.841445</ele>
        <time>2026-06-23T11:39:00.139Z</time>
      </trkpt>
      <trkpt lat="45.23037" lon="4.69052">
        <ele>392.942953</ele>
        <time>2026-06-23T11:39:02.139Z</time>
      </trkpt>
      <trkpt lat="45.2305" lon="4.69054">
        <ele>391.741651</ele>
        <time>2026-06-23T11:39:04.144Z</time>
      </trkpt>
      <trkpt lat="45.23059" lon="4.69052">
        <ele>390.860072</ele>
        <time>2026-06-23T11:39:06.142Z</time>
      </trkpt>
      <trkpt lat="45.23069" lon="4.69051">
        <ele>389.956615</ele>
        <time>2026-06-23T11:39:08.140Z</time>
      </trkpt>
      <trkpt lat="45.23078" lon="4.69049">
        <ele>389.053159</ele>
        <time>2026-06-23T11:39:10.140Z</time>
      </trkpt>
      <trkpt lat="45.23092" lon="4.69049">
        <ele>387.73343</ele>
        <time>2026-06-23T11:39:12.146Z</time>
      </trkpt>
      <trkpt lat="45.23104" lon="4.6904">
        <ele>387.410836</ele>
        <time>2026-06-23T11:39:15.142Z</time>
      </trkpt>
      <trkpt lat="45.23114" lon="4.69027">
        <ele>389.374971</ele>
        <time>2026-06-23T11:39:18.142Z</time>
      </trkpt>
      <trkpt lat="45.23124" lon="4.69021">
        <ele>390.864437</ele>
        <time>2026-06-23T11:39:21.140Z</time>
      </trkpt>
      <trkpt lat="45.23133" lon="4.69016">
        <ele>392.299992</ele>
        <time>2026-06-23T11:39:24.145Z</time>
      </trkpt>
      <trkpt lat="45.23145" lon="4.69009">
        <ele>394.135569</ele>
        <time>2026-06-23T11:39:28.142Z</time>
      </trkpt>
      <trkpt lat="45.23154" lon="4.69004">
        <ele>395.557529</ele>
        <time>2026-06-23T11:39:31.143Z</time>
      </trkpt>
      <trkpt lat="45.23164" lon="4.68993">
        <ele>397.259152</ele>
        <time>2026-06-23T11:39:34.148Z</time>
      </trkpt>
      <trkpt lat="45.23175" lon="4.68987">
        <ele>398.92257</ele>
        <time>2026-06-23T11:39:37.140Z</time>
      </trkpt>
      <trkpt lat="45.23184" lon="4.68985">
        <ele>400.191069</ele>
        <time>2026-06-23T11:39:39.143Z</time>
      </trkpt>
      <trkpt lat="45.23196" lon="4.68981">
        <ele>401.986384</ele>
        <time>2026-06-23T11:39:43.140Z</time>
      </trkpt>
      <trkpt lat="45.23206" lon="4.68978">
        <ele>403.37617</ele>
        <time>2026-06-23T11:39:45.143Z</time>
      </trkpt>
      <trkpt lat="45.23215" lon="4.68974">
        <ele>404.719878</ele>
        <time>2026-06-23T11:39:47.144Z</time>
      </trkpt>
      <trkpt lat="45.23228" lon="4.68971">
        <ele>406.605874</ele>
        <time>2026-06-23T11:39:50.147Z</time>
      </trkpt>
      <trkpt lat="45.23241" lon="4.68968">
        <ele>408.425643</ele>
        <time>2026-06-23T11:39:53.141Z</time>
      </trkpt>
      <trkpt lat="45.23251" lon="4.68964">
        <ele>409.89145</ele>
        <time>2026-06-23T11:39:56.141Z</time>
      </trkpt>
      <trkpt lat="45.23263" lon="4.68958">
        <ele>411.76818</ele>
        <time>2026-06-23T11:39:59.137Z</time>
      </trkpt>
      <trkpt lat="45.23274" lon="4.68952">
        <ele>412.706529</ele>
        <time>2026-06-23T11:40:02.141Z</time>
      </trkpt>
      <trkpt lat="45.23285" lon="4.68951">
        <ele>413.261739</ele>
        <time>2026-06-23T11:40:05.138Z</time>
      </trkpt>
      <trkpt lat="45.23297" lon="4.68946">
        <ele>413.875861</ele>
        <time>2026-06-23T11:40:08.142Z</time>
      </trkpt>
      <trkpt lat="45.23308" lon="4.68939">
        <ele>414.481179</ele>
        <time>2026-06-23T11:40:11.148Z</time>
      </trkpt>
      <trkpt lat="45.23317" lon="4.68937">
        <ele>414.938299</ele>
        <time>2026-06-23T11:40:13.144Z</time>
      </trkpt>
      <trkpt lat="45.2333" lon="4.68929">
        <ele>415.607905</ele>
        <time>2026-06-23T11:40:15.139Z</time>
      </trkpt>
      <trkpt lat="45.23339" lon="4.68922">
        <ele>416.163631</ele>
        <time>2026-06-23T11:40:17.149Z</time>
      </trkpt>
      <trkpt lat="45.23349" lon="4.68916">
        <ele>416.669001</ele>
        <time>2026-06-23T11:40:19.149Z</time>
      </trkpt>
      <trkpt lat="45.23358" lon="4.68912">
        <ele>417.160741</ele>
        <time>2026-06-23T11:40:21.141Z</time>
      </trkpt>
      <trkpt lat="45.23369" lon="4.68907">
        <ele>417.748953</ele>
        <time>2026-06-23T11:40:23.141Z</time>
      </trkpt>
      <trkpt lat="45.23379" lon="4.68905">
        <ele>418.21618</ele>
        <time>2026-06-23T11:40:25.141Z</time>
      </trkpt>
      <trkpt lat="45.23389" lon="4.68902">
        <ele>418.761312</ele>
        <time>2026-06-23T11:40:27.144Z</time>
      </trkpt>
      <trkpt lat="45.234" lon="4.689">
        <ele>419.290151</ele>
        <time>2026-06-23T11:40:29.139Z</time>
      </trkpt>
      <trkpt lat="45.2341" lon="4.68898">
        <ele>419.80193</ele>
        <time>2026-06-23T11:40:31.148Z</time>
      </trkpt>
      <trkpt lat="45.23421" lon="4.68892">
        <ele>420.392707</ele>
        <time>2026-06-23T11:40:33.139Z</time>
      </trkpt>
      <trkpt lat="45.23431" lon="4.68887">
        <ele>420.931359</ele>
        <time>2026-06-23T11:40:35.139Z</time>
      </trkpt>
      <trkpt lat="45.2344" lon="4.68882">
        <ele>421.568757</ele>
        <time>2026-06-23T11:40:37.142Z</time>
      </trkpt>
      <trkpt lat="45.2345" lon="4.68879">
        <ele>422.871982</ele>
        <time>2026-06-23T11:40:39.141Z</time>
      </trkpt>
      <trkpt lat="45.2346" lon="4.68878">
        <ele>424.224755</ele>
        <time>2026-06-23T11:40:41.146Z</time>
      </trkpt>
      <trkpt lat="45.2347" lon="4.68877">
        <ele>425.488048</ele>
        <time>2026-06-23T11:40:43.143Z</time>
      </trkpt>
      <trkpt lat="45.23485" lon="4.68875">
        <ele>427.354035</ele>
        <time>2026-06-23T11:40:46.142Z</time>
      </trkpt>
      <trkpt lat="45.23497" lon="4.68876">
        <ele>428.897425</ele>
        <time>2026-06-23T11:40:48.149Z</time>
      </trkpt>
      <trkpt lat="45.23508" lon="4.68877">
        <ele>430.311601</ele>
        <time>2026-06-23T11:40:50.144Z</time>
      </trkpt>
      <trkpt lat="45.2352" lon="4.68881">
        <ele>431.893648</ele>
        <time>2026-06-23T11:40:52.143Z</time>
      </trkpt>
      <trkpt lat="45.2353" lon="4.68887">
        <ele>433.270038</ele>
        <time>2026-06-23T11:40:54.160Z</time>
      </trkpt>
      <trkpt lat="45.23539" lon="4.68894">
        <ele>434.698888</ele>
        <time>2026-06-23T11:40:56.140Z</time>
      </trkpt>
      <trkpt lat="45.23549" lon="4.68902">
        <ele>436.093961</ele>
        <time>2026-06-23T11:40:58.140Z</time>
      </trkpt>
      <trkpt lat="45.2356" lon="4.68911">
        <ele>437.723367</ele>
        <time>2026-06-23T11:41:00.152Z</time>
      </trkpt>
      <trkpt lat="45.2357" lon="4.6892">
        <ele>439.311674</ele>
        <time>2026-06-23T11:41:02.148Z</time>
      </trkpt>
      <trkpt lat="45.23581" lon="4.68926">
        <ele>440.798369</ele>
        <time>2026-06-23T11:41:04.153Z</time>
      </trkpt>
      <trkpt lat="45.2359" lon="4.68933">
        <ele>442.128751</ele>
        <time>2026-06-23T11:41:06.133Z</time>
      </trkpt>
      <trkpt lat="45.236" lon="4.68938">
        <ele>443.433625</ele>
        <time>2026-06-23T11:41:08.144Z</time>
      </trkpt>
      <trkpt lat="45.2361" lon="4.68945">
        <ele>444.964574</ele>
        <time>2026-06-23T11:41:10.141Z</time>
      </trkpt>
      <trkpt lat="45.23621" lon="4.68948">
        <ele>446.533792</ele>
        <time>2026-06-23T11:41:12.106Z</time>
      </trkpt>
      <trkpt lat="45.23631" lon="4.68951">
        <ele>448.027675</ele>
        <time>2026-06-23T11:41:14.145Z</time>
      </trkpt>
      <trkpt lat="45.23642" lon="4.68953">
        <ele>449.595815</ele>
        <time>2026-06-23T11:41:16.141Z</time>
      </trkpt>
      <trkpt lat="45.23653" lon="4.68956">
        <ele>451.236816</ele>
        <time>2026-06-23T11:41:18.114Z</time>
      </trkpt>
      <trkpt lat="45.23662" lon="4.6896">
        <ele>452.585836</ele>
        <time>2026-06-23T11:41:20.140Z</time>
      </trkpt>
      <trkpt lat="45.23673" lon="4.68968">
        <ele>454.341263</ele>
        <time>2026-06-23T11:41:23.149Z</time>
      </trkpt>
      <trkpt lat="45.23683" lon="4.6897">
        <ele>455.870923</ele>
        <time>2026-06-23T11:41:25.139Z</time>
      </trkpt>
      <trkpt lat="45.23693" lon="4.68976">
        <ele>457.411294</ele>
        <time>2026-06-23T11:41:27.154Z</time>
      </trkpt>
      <trkpt lat="45.23704" lon="4.68978">
        <ele>458.955185</ele>
        <time>2026-06-23T11:41:29.140Z</time>
      </trkpt>
      <trkpt lat="45.23716" lon="4.68979">
        <ele>460.640503</ele>
        <time>2026-06-23T11:41:31.141Z</time>
      </trkpt>
      <trkpt lat="45.23727" lon="4.68983">
        <ele>462.31725</ele>
        <time>2026-06-23T11:41:33.140Z</time>
      </trkpt>
      <trkpt lat="45.2374" lon="4.68989">
        <ele>464.31903</ele>
        <time>2026-06-23T11:41:35.138Z</time>
      </trkpt>
      <trkpt lat="45.23752" lon="4.68991">
        <ele>466.038312</ele>
        <time>2026-06-23T11:41:37.144Z</time>
      </trkpt>
      <trkpt lat="45.23764" lon="4.68994">
        <ele>467.744964</ele>
        <time>2026-06-23T11:41:39.147Z</time>
      </trkpt>
      <trkpt lat="45.23774" lon="4.68995">
        <ele>469.288874</ele>
        <time>2026-06-23T11:41:41.115Z</time>
      </trkpt>
      <trkpt lat="45.23786" lon="4.68997">
        <ele>470.268123</ele>
        <time>2026-06-23T11:41:43.145Z</time>
      </trkpt>
      <trkpt lat="45.23797" lon="4.69">
        <ele>470.268123</ele>
        <time>2026-06-23T11:41:45.140Z</time>
      </trkpt>
      <trkpt lat="45.23809" lon="4.69">
        <ele>470.268123</ele>
        <time>2026-06-23T11:41:47.153Z</time>
      </trkpt>
      <trkpt lat="45.23819" lon="4.69005">
        <ele>470.268123</ele>
        <time>2026-06-23T11:41:49.140Z</time>
      </trkpt>
      <trkpt lat="45.2383" lon="4.6901">
        <ele>470.268123</ele>
        <time>2026-06-23T11:41:51.114Z</time>
      </trkpt>
      <trkpt lat="45.23842" lon="4.69016">
        <ele>470.268123</ele>
        <time>2026-06-23T11:41:53.144Z</time>
      </trkpt>
      <trkpt lat="45.23852" lon="4.69024">
        <ele>470.268123</ele>
        <time>2026-06-23T11:41:55.141Z</time>
      </trkpt>
      <trkpt lat="45.23863" lon="4.6903">
        <ele>470.268123</ele>
        <time>2026-06-23T11:41:57.143Z</time>
      </trkpt>
      <trkpt lat="45.23871" lon="4.69037">
        <ele>470.268123</ele>
        <time>2026-06-23T11:41:59.140Z</time>
      </trkpt>
      <trkpt lat="45.2388" lon="4.69045">
        <ele>470.268123</ele>
        <time>2026-06-23T11:42:01.140Z</time>
      </trkpt>
      <trkpt lat="45.2389" lon="4.69056">
        <ele>470.268123</ele>
        <time>2026-06-23T11:42:03.138Z</time>
      </trkpt>
      <trkpt lat="45.239" lon="4.69068">
        <ele>470.268123</ele>
        <time>2026-06-23T11:42:05.143Z</time>
      </trkpt>
      <trkpt lat="45.2391" lon="4.69079">
        <ele>470.268123</ele>
        <time>2026-06-23T11:42:07.153Z</time>
      </trkpt>
      <trkpt lat="45.23918" lon="4.69089">
        <ele>470.268123</ele>
        <time>2026-06-23T11:42:09.143Z</time>
      </trkpt>
      <trkpt lat="45.23928" lon="4.69096">
        <ele>470.268123</ele>
        <time>2026-06-23T11:42:11.146Z</time>
      </trkpt>
      <trkpt lat="45.23937" lon="4.691">
        <ele>470.268123</ele>
        <time>2026-06-23T11:42:13.143Z</time>
      </trkpt>
      <trkpt lat="45.23949" lon="4.69104">
        <ele>470.268123</ele>
        <time>2026-06-23T11:42:16.138Z</time>
      </trkpt>
      <trkpt lat="45.23956" lon="4.69113">
        <ele>470.268123</ele>
        <time>2026-06-23T11:42:20.143Z</time>
      </trkpt>
      <trkpt lat="45.23939" lon="4.69147">
        <ele>470.268123</ele>
        <time>2026-06-23T11:42:57.149Z</time>
      </trkpt>
    </trkseg>
  </trk>
</gpx>